[[{"header":{"parameterUnit":"m.s-1","parameterCategory":1,"la1":30.6,"la2":29.2853,"lo1":-89.7004,"lo2":-87.6739,"dy":0.0162,"dx":0.0183,"nx":112,"ny":82,"refTime":"2026-04-19T12:00:00:Z","depth":0,"parameterNumber":2,"parameterNumberName":"U-component_of_WINDS"},"data":[0.0,0.0,0.0,0.0,0.0,0.0,0.0,0.0,0.0,0.0,0.0,0.0,0.0,0.0,0.0,0.0,0.0,0.0,0.0,0.0,0.0,0.0,0.0,0.0,0.0,0.0,0.0,0.0,0.0,0.0,0.0,0.0,0.0,0.0,0.0,0.0,0.0,0.0,0.0,0.0,0.0,0.0,0.0,0.0,0.0,0.0,0.0,0.0,0.0,0.0,0.0,0.0,0.0,0.0,0.0,0.0,0.0,0.0,0.0,0.0,0.0,0.0,0.0,0.0,0.0,0.0,0.0,0.0,0.0,0.0,0.0,0.0,0.0,0.0,0.0,0.0,0.0,0.0,0.0,0.0,0.0,0.0,0.0,0.0,0.0,0.0,0.0,0.0,0.0,0.0,0.0,-1.2411,-1.3001,-1.3235,-1.3105,-1.2977,-1.2283,-1.0874,0.0,0.0,0.0,0.0,0.0,0.0,0.0,0.0,0.0,0.0,0.0,0.0,0.0,0.0,0.0,0.0,0.0,0.0,0.0,0.0,0.0,0.0,0.0,0.0,0.0,0.0,0.0,0.0,0.0,0.0,0.0,0.0,0.0,0.0,0.0,0.0,0.0,0.0,0.0,0.0,0.0,0.0,0.0,0.0,0.0,0.0,0.0,0.0,0.0,0.0,0.0,0.0,0.0,0.0,0.0,0.0,0.0,0.0,0.0,0.0,0.0,0.0,0.0,0.0,0.0,0.0,0.0,0.0,0.0,0.0,0.0,0.0,0.0,0.0,0.0,0.0,0.0,0.0,0.0,0.0,0.0,0.0,0.0,0.0,0.0,0.0,0.0,0.0,0.0,0.0,0.0,0.0,0.0,0.0,0.0,0.0,0.0,0.0,0.0,0.0,0.0,0.0,0.0,0.0,-1.0841,-1.2271,-1.2935,-1.3261,-1.3107,-1.2995,-1.2265,-1.0822,0.0,0.0,0.0,0.0,0.0,0.0,0.0,0.0,0.0,0.0,0.0,0.0,0.0,0.0,0.0,0.0,0.0,0.0,0.0,0.0,0.0,0.0,0.0,0.0,0.0,0.0,0.0,0.0,0.0,0.0,0.0,0.0,0.0,0.0,0.0,0.0,0.0,0.0,0.0,0.0,0.0,0.0,0.0,0.0,0.0,0.0,0.0,0.0,0.0,0.0,0.0,0.0,0.0,0.0,0.0,0.0,0.0,0.0,0.0,0.0,0.0,0.0,0.0,0.0,0.0,0.0,0.0,0.0,0.0,0.0,0.0,0.0,0.0,0.0,0.0,0.0,0.0,0.0,0.0,0.0,0.0,0.0,0.0,0.0,0.0,0.0,0.0,0.0,0.0,0.0,0.0,0.0,0.0,0.0,0.0,0.0,0.0,0.0,0.0,0.0,0.0,0.0,0.0,-1.128,-1.1858,-1.2734,-1.3092,-1.3175,-1.2962,-1.2894,-1.223,-1.0807,-1.0351,0.0,0.0,0.0,0.0,0.0,0.0,0.0,0.0,0.0,0.0,0.0,0.0,0.0,0.0,0.0,0.0,0.0,0.0,0.0,0.0,0.0,0.0,0.0,0.0,0.0,0.0,0.0,0.0,0.0,0.0,0.0,0.0,0.0,0.0,0.0,0.0,0.0,0.0,0.0,0.0,0.0,0.0,0.0,0.0,0.0,0.0,0.0,0.0,0.0,0.0,0.0,0.0,0.0,0.0,0.0,0.0,0.0,0.0,0.0,0.0,0.0,0.0,0.0,0.0,0.0,0.0,0.0,0.0,0.0,0.0,0.0,0.0,0.0,0.0,0.0,0.0,0.0,0.0,0.0,0.0,0.0,0.0,0.0,0.0,0.0,0.0,0.0,0.0,0.0,0.0,0.0,0.0,0.0,0.0,0.0,0.0,0.0,0.0,0.0,0.0,0.0,0.0,-1.2534,-1.2892,-1.3211,-1.3227,-1.3105,-1.2876,-1.2658,-1.2,-1.0791,-0.9852,0.0,0.0,0.0,0.0,0.0,0.0,0.0,0.0,0.0,0.0,0.0,0.0,0.0,0.0,0.0,0.0,0.0,0.0,0.0,0.0,0.0,0.0,0.0,0.0,0.0,0.0,0.0,0.0,0.0,0.0,0.0,0.0,0.0,0.0,0.0,0.0,0.0,0.0,0.0,0.0,0.0,0.0,0.0,0.0,0.0,0.0,0.0,0.0,0.0,0.0,0.0,0.0,0.0,0.0,0.0,0.0,0.0,0.0,0.0,0.0,0.0,0.0,0.0,0.0,0.0,0.0,0.0,0.0,0.0,0.0,0.0,0.0,0.0,0.0,0.0,0.0,0.0,0.0,0.0,0.0,0.0,0.0,0.0,0.0,0.0,0.0,0.0,0.0,0.0,0.0,0.0,0.0,0.0,0.0,0.0,0.0,0.0,0.0,0.0,0.0,0.0,0.0,-1.2673,-1.3473,-1.3395,-1.3269,-1.314,-1.3004,-1.2248,-1.1464,-1.0767,-0.9378,0.0,0.0,0.0,0.0,0.0,0.0,0.0,0.0,0.0,0.0,0.0,0.0,0.0,0.0,0.0,0.0,0.0,0.0,0.0,0.0,0.0,0.0,0.0,0.0,0.0,0.0,0.0,0.0,0.0,0.0,0.0,0.0,0.0,0.0,0.0,0.0,0.0,0.0,0.0,0.0,0.0,0.0,0.0,0.0,0.0,0.0,0.0,0.0,0.0,0.0,0.0,0.0,0.0,0.0,0.0,0.0,0.0,0.0,0.0,0.0,0.0,0.0,0.0,0.0,0.0,0.0,0.0,0.0,0.0,0.0,0.0,0.0,0.0,0.0,0.0,0.0,0.0,0.0,0.0,0.0,0.0,0.0,0.0,0.0,0.0,0.0,0.0,0.0,0.0,0.0,0.0,0.0,0.0,0.0,0.0,0.0,0.0,0.0,0.0,0.0,0.0,0.0,-1.23,-1.3011,0.0,-1.3235,-1.3114,-1.2904,-1.2569,-1.1894,-1.0759,0.0,0.0,0.0,0.0,0.0,0.0,0.0,0.0,0.0,0.0,0.0,0.0,0.0,0.0,0.0,0.0,0.0,0.0,0.0,0.0,0.0,0.0,0.0,0.0,0.0,0.0,0.0,0.0,0.0,0.0,0.0,0.0,0.0,0.0,0.0,0.0,0.0,0.0,0.0,0.0,0.0,0.0,0.0,0.0,0.0,0.0,0.0,0.0,0.0,0.0,0.0,0.0,0.0,0.0,0.0,0.0,0.0,0.0,0.0,0.0,0.0,0.0,0.0,0.0,0.0,0.0,0.0,0.0,0.0,0.0,0.0,0.0,0.0,0.0,0.0,0.0,0.0,0.0,0.0,0.0,0.0,0.0,0.0,0.0,0.0,0.0,0.0,0.0,0.0,0.0,0.0,0.0,0.0,0.0,0.0,0.0,0.0,0.0,0.0,0.0,0.0,0.0,-1.1232,-1.216,-1.2906,0.0,-1.3158,-1.3052,-1.2885,-1.2407,-1.1732,-1.0759,0.0,0.0,0.0,0.0,0.0,0.0,0.0,0.0,0.0,0.0,0.0,0.0,0.0,0.0,0.0,0.0,0.0,0.0,0.0,0.0,0.0,0.0,0.0,0.0,0.0,0.0,0.0,0.0,0.0,0.0,0.0,0.0,0.0,0.0,0.0,0.0,0.0,0.0,0.0,0.0,0.0,0.0,0.0,0.0,0.0,0.0,0.0,0.0,0.0,0.0,0.0,0.0,0.0,0.0,0.0,0.0,0.0,0.0,0.0,0.0,0.0,0.0,0.0,0.0,0.0,0.0,0.0,0.0,0.0,0.0,0.0,0.0,0.0,0.0,0.0,0.0,0.0,0.0,0.0,0.0,0.0,0.0,0.0,0.0,0.0,0.0,0.0,0.0,0.0,0.0,0.0,0.0,0.0,0.0,0.0,0.0,0.0,0.0,0.0,0.0,0.0,0.0,-1.1117,-1.242,-1.3345,-1.3185,-1.307,-1.3004,-1.2971,-1.158,-1.0695,0.0,0.0,0.0,0.0,0.0,0.0,0.0,0.0,0.0,0.0,0.0,0.0,0.0,0.0,0.0,0.0,0.0,0.0,0.0,0.0,0.0,0.0,0.0,0.0,0.0,0.0,0.0,0.0,0.0,0.0,0.0,0.0,0.0,0.0,0.0,0.0,0.0,0.0,0.0,0.0,0.0,0.0,0.0,0.0,0.0,0.0,0.0,0.0,0.0,0.0,0.0,0.0,0.0,0.0,0.0,0.0,0.0,0.0,0.0,0.0,0.0,0.0,0.0,0.0,0.0,0.0,0.0,0.0,0.0,0.0,0.0,0.0,0.0,0.0,0.0,0.0,0.0,0.0,0.0,0.0,0.0,0.0,0.0,0.0,0.0,0.0,0.0,0.0,0.0,0.0,0.0,0.0,0.0,0.0,0.0,0.0,0.0,0.0,0.0,0.0,0.0,0.0,0.0,-1.1042,-1.1495,-1.1899,-1.2232,-1.224,-1.2154,-1.2029,-1.1633,-1.1155,-1.0583,0.0,0.0,0.0,0.0,0.0,0.0,0.0,0.0,0.0,0.0,0.0,0.0,0.0,0.0,0.0,0.0,0.0,0.0,0.0,0.0,0.0,0.0,0.0,0.0,0.0,0.0,0.0,0.0,0.0,0.0,0.0,0.0,0.0,0.0,0.0,0.0,0.0,0.0,0.0,0.0,0.0,0.0,0.0,0.0,0.0,0.0,0.0,0.0,0.0,0.0,0.0,0.0,0.0,0.0,0.0,0.0,0.0,0.0,0.0,0.0,0.0,0.0,0.0,0.0,0.0,0.0,0.0,0.0,0.0,0.0,0.0,0.0,0.0,0.0,0.0,0.0,0.0,0.0,0.0,0.0,0.0,0.0,0.0,0.0,0.0,0.0,0.0,0.0,0.0,0.0,0.0,0.0,0.0,0.0,0.0,0.0,0.0,0.0,0.0,0.0,0.0,0.0,-1.0939,-1.1038,-1.1235,-1.1719,-1.1792,-1.1723,-1.1557,-1.1342,-1.0982,-1.0486,0.0,0.0,0.0,0.0,0.0,0.0,0.0,0.0,0.0,0.0,0.0,0.0,0.0,0.0,0.0,0.0,0.0,0.0,0.0,0.0,0.0,0.0,0.0,0.0,0.0,0.0,0.0,0.0,0.0,0.0,0.0,0.0,0.0,0.0,0.0,0.0,0.0,0.0,0.0,0.0,0.0,0.0,0.0,0.0,0.0,0.0,0.0,0.0,0.0,0.0,0.0,0.0,0.0,0.0,0.0,0.0,0.0,0.0,0.0,0.0,0.0,0.0,0.0,0.0,0.0,0.0,0.0,0.0,0.0,0.0,0.0,0.0,0.0,0.0,0.0,0.0,0.0,0.0,0.0,0.0,0.0,0.0,0.0,0.0,0.0,0.0,0.0,0.0,0.0,0.0,0.0,0.0,0.0,0.0,0.0,0.0,0.0,0.0,0.0,0.0,0.0,0.0,-1.0825,-1.0858,-1.1025,-1.1537,-1.1574,-1.1539,-1.149,-1.0791,-1.0404,-1.0396,0.0,0.0,0.0,0.0,0.0,0.0,0.0,0.0,0.0,0.0,0.0,0.0,0.0,0.0,0.0,0.0,0.0,0.0,0.0,0.0,0.0,0.0,0.0,0.0,0.0,0.0,0.0,0.0,0.0,0.0,0.0,0.0,0.0,0.0,0.0,0.0,0.0,0.0,0.0,0.0,0.0,0.0,0.0,0.0,0.0,0.0,0.0,0.0,0.0,0.0,0.0,0.0,0.0,0.0,0.0,0.0,0.0,0.0,0.0,0.0,-1.216,0.0,0.0,0.0,0.0,0.0,0.0,0.0,0.0,0.0,0.0,0.0,0.0,0.0,0.0,0.0,0.0,0.0,0.0,0.0,0.0,0.0,0.0,0.0,0.0,0.0,0.0,0.0,0.0,0.0,0.0,0.0,0.0,0.0,0.0,0.0,0.0,0.0,0.0,0.0,0.0,0.0,-1.0715,-1.0599,-1.0677,-1.1372,-1.1435,-1.1422,-1.1343,-1.0722,-1.0291,-1.0247,0.0,0.0,0.0,0.0,0.0,0.0,0.0,0.0,0.0,0.0,0.0,0.0,0.0,0.0,0.0,0.0,0.0,0.0,0.0,0.0,0.0,0.0,0.0,0.0,0.0,0.0,0.0,0.0,0.0,0.0,0.0,0.0,0.0,0.0,0.0,0.0,0.0,0.0,0.0,0.0,0.0,0.0,0.0,0.0,0.0,0.0,0.0,0.0,0.0,0.0,0.0,0.0,0.0,0.0,0.0,0.0,0.0,0.0,0.0,0.0,0.0,-1.3274,0.0,0.0,0.0,0.0,0.0,0.0,0.0,0.0,0.0,0.0,0.0,0.0,0.0,0.0,0.0,0.0,0.0,0.0,0.0,0.0,0.0,0.0,0.0,0.0,0.0,0.0,0.0,0.0,0.0,0.0,0.0,0.0,0.0,0.0,0.0,0.0,0.0,0.0,0.0,0.0,-1.1178,-1.072,-1.0559,-1.1273,-1.1035,-1.0928,-1.1169,-1.0585,-1.019,-1.0139,-0.8532,0.0,0.0,0.0,0.0,0.0,0.0,0.0,0.0,0.0,0.0,0.0,0.0,0.0,0.0,0.0,0.0,0.0,0.0,0.0,0.0,0.0,0.0,0.0,0.0,0.0,0.0,0.0,0.0,0.0,0.0,0.0,0.0,0.0,0.0,0.0,0.0,0.0,0.0,0.0,0.0,0.0,0.0,0.0,0.0,0.0,0.0,0.0,0.0,0.0,0.0,0.0,0.0,0.0,0.0,0.0,-1.8595,-1.9151,-1.939,-1.9241,-1.6428,-1.5905,-1.6906,0.0,0.0,0.0,0.0,0.0,0.0,0.0,0.0,0.0,0.0,0.0,0.0,0.0,0.0,0.0,0.0,0.0,0.0,0.0,0.0,0.0,0.0,0.0,0.0,0.0,-1.2465,-1.2241,0.0,0.0,0.0,0.0,0.0,0.0,0.0,0.0,0.0,0.0,0.0,0.0,-1.1654,-1.111,-1.0852,-1.1399,-1.0896,-1.0696,-1.1072,-1.058,-1.0211,-1.0127,-0.9404,-0.8459,0.0,0.0,0.0,0.0,0.0,0.0,0.0,0.0,0.0,0.0,0.0,0.0,0.0,0.0,0.0,0.0,0.0,0.0,0.0,0.0,0.0,0.0,0.0,0.0,0.0,0.0,0.0,0.0,0.0,0.0,0.0,0.0,-1.0823,-1.2084,0.0,0.0,0.0,0.0,0.0,0.0,0.0,0.0,0.0,0.0,0.0,0.0,0.0,0.0,-1.8372,-2.0026,-2.062,-2.018,-2.1884,-2.2443,-2.2044,-2.2134,-2.2164,-2.2134,-2.1096,0.0,-1.8356,-1.7519,0.0,0.0,0.0,0.0,0.0,0.0,0.0,0.0,0.0,0.0,0.0,0.0,0.0,0.0,0.0,0.0,0.0,0.0,0.0,0.0,0.0,0.0,-1.4517,-1.4024,-1.3932,-1.3883,0.0,-1.2272,-1.0986,-1.0903,0.0,0.0,0.0,0.0,0.0,0.0,0.0,0.0,-1.1413,-1.1749,-1.1984,-1.2066,-1.2005,-1.1707,-1.1164,-1.101,-1.0734,-1.0158,-0.8888,-0.828,-0.8549,-0.6865,0.0,0.0,0.0,0.0,0.0,0.0,0.0,0.0,0.0,0.0,0.0,0.0,0.0,0.0,0.0,0.0,0.0,0.0,0.0,0.0,0.0,0.0,0.0,0.0,0.0,0.0,0.0,0.0,0.0,-1.0993,-1.2494,-1.3119,-1.3513,-1.3511,0.0,0.0,0.0,0.0,0.0,0.0,0.0,0.0,0.0,-1.8056,-1.8934,-1.9838,-2.0779,-2.188,-2.2571,-2.29,-2.3767,-2.4238,-2.4328,-2.4328,-2.4328,-2.4298,-2.4029,-2.3191,-2.1884,-2.012,-1.8463,-1.6937,0.0,0.0,0.0,0.0,0.0,0.0,-1.5875,0.0,0.0,0.0,0.0,0.0,0.0,0.0,0.0,0.0,0.0,0.0,0.0,0.0,0.0,-1.5825,-1.5805,-1.5737,-1.5408,-1.4301,-1.3194,0.0,-1.2087,-1.1691,-1.1004,0.0,0.0,0.0,0.0,0.0,-1.1933,-1.2135,-1.22,-1.22,-1.183,-1.1605,-1.1697,-1.1349,-1.097,-1.0672,-1.007,-0.9474,-0.8882,-0.7975,-0.7394,0.0,0.0,0.0,0.0,0.0,0.0,0.0,0.0,0.0,0.0,0.0,0.0,0.0,0.0,0.0,0.0,0.0,0.0,0.0,0.0,0.0,0.0,0.0,0.0,0.0,0.0,0.0,0.0,-1.2863,-1.3938,-1.4326,-1.4901,-1.5053,0.0,0.0,0.0,0.0,0.0,0.0,-1.735,-1.8262,-1.9129,-1.9905,-2.1066,-2.2076,-2.291,-2.374,-2.467,-2.5621,-2.58,-2.6129,-2.6632,-2.6452,-2.6273,-2.6093,-2.5944,-2.5495,-2.4664,-2.2392,-2.0677,-1.942,-1.8715,-1.7775,0.0,-1.7489,-1.7712,-1.7802,-1.828,-1.8476,-1.8386,-1.7891,0.0,-1.6398,-1.5557,0.0,0.0,0.0,0.0,-1.6577,-1.7165,0.0,-1.7197,-1.7258,-1.7304,-1.7226,-1.678,-1.6317,-1.5531,0.0,-1.3575,-1.3146,-1.2199,0.0,0.0,0.0,0.0,-1.1828,-1.2349,-1.2292,-1.22,-1.22,-1.1851,-1.1718,-1.1892,-1.1759,-1.1472,-1.1133,-1.0949,-1.0333,-0.9185,-0.8743,-0.8239,-0.7603,0.0,0.0,0.0,0.0,0.0,0.0,0.0,0.0,0.0,0.0,0.0,0.0,0.0,0.0,0.0,0.0,0.0,0.0,0.0,0.0,0.0,0.0,0.0,0.0,0.0,0.0,0.0,0.0,0.0,-1.6581,-1.7113,0.0,0.0,0.0,0.0,-1.7484,-1.8231,-1.911,-2.004,-2.0419,-2.0803,-2.138,-2.2455,-2.3597,-2.4831,-2.6529,-2.7703,-2.8397,-2.9026,-2.9382,-2.9382,-2.8727,-2.8098,-2.7465,-2.6836,-2.6183,-2.5465,-2.4029,-2.2712,-2.1485,-2.0827,-2.0109,-1.9588,-2.0258,-2.0509,-2.0509,-2.0539,-2.0539,-2.0539,-2.0509,-1.963,-1.833,-1.7074,-1.6759,0.0,0.0,-1.7769,-1.8031,-1.855,-1.8329,-1.7956,-1.7956,-1.8004,-1.8037,-1.8006,-1.8022,-1.7454,0.0,-1.459,-1.4129,-1.4079,0.0,0.0,-1.3208,-1.3104,-1.2878,-1.2282,-1.221,-1.22,-1.22,-1.2754,-1.2559,-1.1256,-1.2343,-1.2528,-1.1195,-1.0488,-1.0031,-0.9758,-0.8525,-0.7753,-0.7504,-0.6821,0.0,0.0,0.0,0.0,0.0,0.0,0.0,0.0,0.0,0.0,0.0,0.0,0.0,0.0,0.0,0.0,0.0,0.0,0.0,0.0,0.0,0.0,0.0,0.0,0.0,0.0,0.0,0.0,-1.8746,-1.9027,0.0,-1.8973,-1.9102,-1.93,-1.9608,-2.0566,-2.1302,-2.164,-2.2824,-2.3697,-2.4249,-2.5437,-2.6469,-2.7334,-2.8345,-2.899,-2.9235,-2.9502,-2.9621,-2.9592,-2.9352,-2.9086,-2.8873,-2.8633,-2.8423,-2.8068,-2.6746,-2.5136,-2.3528,-2.3289,-2.2802,-2.2173,-2.2024,-2.2014,-2.1954,-2.1485,-2.1335,-2.1335,-2.1335,-2.1006,-2.0557,-2.0085,-1.9966,-1.9936,-1.9738,-1.9696,-1.9671,-1.9444,-1.9251,-1.8985,-1.8597,-1.854,-1.8469,-1.8109,-1.8097,-1.7915,-1.721,-1.6211,-1.5347,-1.4916,-1.4498,-1.4129,-1.3883,-1.3852,-1.3759,-1.3525,-1.3124,-1.2847,-1.2847,-1.2662,-1.2354,-1.1861,-1.2262,-1.2128,-1.1164,-1.0887,-1.0302,-0.9267,-0.8714,-0.8172,-0.7588,-0.6878,-0.64,0.0,0.0,0.0,0.0,0.0,0.0,0.0,0.0,0.0,0.0,0.0,0.0,0.0,0.0,0.0,0.0,0.0,0.0,0.0,0.0,0.0,0.0,0.0,0.0,0.0,0.0,-1.8982,-2.042,-2.0697,-2.0879,-2.1144,-2.1351,-2.1638,-2.2006,-2.2817,-2.3341,-2.3553,-2.4622,-2.5406,-2.5771,-2.6818,-2.775,-2.8627,-2.926,-2.9774,-3.0253,-3.0253,-3.0253,-3.0223,-3.0013,-2.9894,-2.9894,-2.9711,-2.9621,-2.9532,-2.8633,-2.747,-2.6189,-2.5292,-2.4664,-2.4238,-2.3841,-2.3691,-2.358,-2.2921,-2.2682,-2.2622,-2.2194,-2.2044,-2.1994,-2.1754,-2.1695,-2.1605,-2.1156,-2.1036,-2.0946,-2.0498,-2.0198,-1.9947,-1.9534,-1.9281,-1.9045,-1.8678,-1.852,-1.8434,-1.8434,-1.7409,-1.6409,-1.5962,-1.5316,-1.4855,-1.4855,-1.467,-1.456,-1.456,-1.3944,-1.3452,-1.3205,-1.3001,-1.2693,-1.2231,-1.2416,-1.2231,-1.1512,-1.1208,-1.0574,-0.9542,-0.9174,-0.8626,-0.7852,-0.7161,-0.68,-0.68,0.0,0.0,0.0,0.0,0.0,0.0,0.0,0.0,0.0,0.0,0.0,0.0,0.0,0.0,0.0,0.0,0.0,0.0,0.0,0.0,0.0,0.0,0.0,-1.8279,-1.8757,-1.9786,-2.1557,-2.2128,-2.2484,-2.277,-2.3313,-2.394,-2.4658,-2.4923,-2.5275,-2.5793,-2.5845,-2.5871,-2.5871,-2.6484,-2.7444,-2.8717,-2.9279,-3.0235,-3.1541,-3.1541,-3.1541,-3.1511,-3.0881,-3.0552,-3.0492,-2.9894,-2.9681,-2.9681,-2.9651,-2.9621,-2.9382,-2.6722,-2.5704,-2.5704,-2.5644,-2.5615,-2.5501,-2.4874,-2.4634,-2.4425,-2.3191,-2.2793,-2.2643,-2.1994,-2.1784,-2.1754,-2.1724,-2.1724,-2.1724,-2.1695,-2.1216,-2.0718,-2.0688,-2.0235,-1.981,-1.9797,-1.9442,-1.9137,-1.9121,-1.8114,-1.7239,-1.7208,-1.6655,-1.6225,-1.6194,-1.5654,0.0,-1.5224,-1.464,-1.3975,-1.3359,-1.3852,-1.3667,-1.2385,-1.2847,-1.2908,-1.2231,-1.1364,-1.0822,-1.0673,-0.9841,-0.9066,-0.8354,-0.7744,-0.7442,-0.747,0.0,0.0,0.0,0.0,0.0,0.0,0.0,0.0,0.0,0.0,0.0,0.0,0.0,0.0,0.0,0.0,0.0,0.0,0.0,0.0,0.0,0.0,-1.951,-1.9962,-2.1142,-2.2443,-2.3784,-2.4054,-2.4192,-2.4348,-2.4506,-2.4784,-2.5252,-2.576,-2.6141,-2.6425,-2.7236,-2.768,-2.768,-2.8738,-2.9497,-2.9838,-3.0503,-3.1269,-3.2151,-3.2151,-3.2162,-3.2198,-3.2019,-3.166,-3.1212,-3.1032,-3.0972,-3.0943,-3.0462,-3.0253,-3.0073,-2.8427,-2.7769,-2.7649,-2.6662,-2.6004,-2.5561,-2.5382,-2.5322,-2.5262,-2.4926,-2.4477,-2.4036,-2.3857,-2.3439,-2.2981,-2.2553,-2.2433,-2.2313,-2.1814,-2.1545,-2.1306,-2.0808,-2.0557,-2.0307,-1.9846,-1.9735,-1.9719,-1.9632,-1.9134,-1.8407,-1.7362,-1.7055,-1.6747,-1.6256,0.0,0.0,-1.5931,-1.5347,-1.5039,-1.5347,-1.467,-1.4252,-1.4375,-1.3636,-1.2908,0.0,-1.1364,-1.0603,-0.9993,-0.9599,-0.9266,-0.903,-0.8391,-0.8279,0.0,0.0,0.0,0.0,0.0,0.0,0.0,0.0,0.0,0.0,0.0,0.0,0.0,0.0,0.0,0.0,0.0,0.0,0.0,0.0,0.0,0.0,-1.9936,-2.1217,-2.2272,-2.3025,-2.3873,-2.5008,-2.536,-2.5619,-2.5912,-2.6232,-2.6494,-2.6696,-2.7206,-2.7548,-2.7683,-2.8351,-2.8786,-2.8786,-2.9512,-3.0019,-3.0295,-3.0678,-3.1415,-3.2391,-3.2391,-3.2595,-3.2916,-3.2916,-3.2557,0.0,-3.1929,-3.175,-3.1481,-3.1062,-3.0913,0.0,0.0,0.0,0.0,0.0,-2.6752,-2.6393,-2.6123,-2.6033,-2.5974,-2.5704,-2.5322,-2.5023,-2.5023,-2.4545,-2.3969,-2.358,-2.3281,-2.3002,-2.2592,-2.2293,-2.2024,-2.1635,-2.1126,-2.0569,-2.0198,-2.0008,-1.9869,-1.9815,0.0,0.0,-1.8159,-1.7777,-1.7485,-1.7085,-1.6809,-1.6624,0.0,-1.601,-1.5654,-1.5777,-1.507,-1.456,-1.4375,-1.3787,0.0,0.0,0.0,-1.112,-1.0323,-0.9923,0.0,0.0,0.0,0.0,0.0,0.0,0.0,0.0,-0.7466,-0.7306,0.0,0.0,0.0,0.0,0.0,0.0,0.0,0.0,0.0,0.0,0.0,0.0,0.0,0.0,0.0,0.0,-2.192,-2.3226,-2.4782,-2.4682,-2.4782,-2.5686,-2.6323,-2.6876,-2.7318,-2.7965,-2.8377,-2.8377,-2.8703,-2.8944,-2.8954,0.0,0.0,0.0,0.0,-2.9777,-3.0346,-3.0381,-3.104,-3.2367,-3.2367,-3.2757,-3.3481,-3.3481,-3.3184,-3.2617,-3.2527,-3.2138,-3.16,-3.154,-3.1511,-3.1391,-3.0163,-2.9295,-2.8637,-2.7974,-2.7705,0.0,0.0,0.0,0.0,-2.6033,-2.5764,-2.5704,-2.5704,-2.5232,-2.4694,-2.4634,-2.4156,-2.3699,-2.361,-2.3191,-2.2793,-2.2703,-2.1784,-2.0868,-2.0718,-2.0284,-1.9888,-1.981,-1.9957,-1.988,-1.9216,-1.8662,-1.8284,-1.8207,-1.7623,0.0,-1.7208,-1.6594,-1.5993,-1.547,0.0,0.0,-1.3693,-1.3746,-1.3305,-1.2174,-1.2171,-1.1897,-1.1223,-1.0559,-1.0475,-1.1083,-1.0503,-1.0221,-1.0306,-1.0306,-1.0007,-0.9396,-0.934,-0.8992,0.0,0.0,0.0,0.0,0.0,0.0,0.0,0.0,0.0,0.0,0.0,0.0,0.0,0.0,0.0,-2.2368,-2.3954,-2.5234,-2.6072,-2.6816,-2.7218,-2.6992,-2.7444,-2.7821,-2.7946,-2.8083,-2.8231,-2.8377,-2.845,-2.8558,-2.8677,-2.9331,0.0,-2.9699,-3.0325,-3.0734,-3.0856,-3.0856,-3.1305,-3.2176,0.0,0.0,-3.3433,-3.3433,-3.337,-3.3275,-3.2736,-3.2437,-3.2258,-3.172,-3.1511,-3.1421,-3.0642,-2.9953,-2.9352,-2.8637,-2.8397,-2.8308,-2.7645,-2.7405,-2.7375,-2.7255,-2.6866,-2.6393,-2.6393,-2.5944,0.0,-2.4754,-2.4515,-2.4276,-2.3759,-2.352,-2.3281,-2.2823,-2.2493,-2.2014,-2.0927,-2.0644,-2.0429,-1.9816,-1.9869,-1.9927,-1.97,-1.9348,-1.8869,-1.8221,-1.7608,-1.7208,-1.7208,-1.6594,-1.6348,-1.6778,-1.6331,-1.6047,-1.6168,-1.4766,-1.3713,-1.3312,-1.2211,-1.1639,-1.1814,-1.0773,-1.0475,-1.1083,-1.0503,-1.0447,-1.0942,-1.0942,-1.0616,-0.9996,-0.9537,-0.9227,0.0,0.0,0.0,0.0,0.0,0.0,0.0,0.0,0.0,0.0,0.0,-1.9459,-2.0788,0.0,-2.3201,-2.4582,-2.5711,-2.664,-2.7193,-2.7996,-2.8323,-2.777,-2.8172,-2.8524,-2.8524,-2.8775,-2.8988,-2.9063,-2.9176,-2.9288,-2.9337,-2.9816,-3.0146,-3.0258,-3.0655,-3.0924,-3.0973,-3.0973,-3.1357,-3.211,-3.211,-3.2518,-3.3277,-3.3277,-3.3363,-3.3431,-3.3105,-3.2606,-3.1957,-3.1309,-3.119,-3.1422,-3.0747,-3.03,-2.9953,-2.9325,-2.9086,-2.8996,-2.8308,-2.8124,-2.8064,-2.7705,-2.7375,-2.7106,-2.7106,-2.6632,-2.6033,-2.5704,-2.5113,-2.4515,-2.4186,-2.3849,-2.352,-2.3242,-2.2912,-2.2523,-2.1844,-2.1205,-2.0625,-2.0258,-2.0038,-1.9851,-1.9762,-1.9684,-1.9412,-1.8644,-1.8037,-1.7517,-1.7166,-1.6582,-1.6261,-1.6423,-1.6209,-1.5956,-1.5726,-1.4112,-1.3161,-1.3274,-1.1994,-1.1346,-1.1533,-1.097,-1.0773,-1.1083,-1.0801,-1.0801,-1.1111,-1.1111,-1.0942,-1.0644,-1.0334,-1.0035,0.0,0.0,0.0,0.0,0.0,0.0,0.0,0.0,-1.8705,-2.0413,-2.1142,-2.1974,-2.3502,-2.4575,-2.5611,-2.665,-2.7278,-2.777,-2.8197,-2.875,-2.8925,-2.8473,-2.8825,-2.9063,-2.9063,-2.9528,-2.9804,-2.9804,-2.9934,-3.0049,-3.0049,-3.0216,-3.0406,-3.0584,-3.0622,-3.0736,-3.0962,-3.0962,-3.1246,-3.1882,-3.1882,-3.2254,-3.3003,-3.3003,-3.3133,-3.3355,-3.3211,-3.2519,-3.1426,-3.076,-3.0803,-3.122,-3.0568,-3.0309,-3.0243,-2.9763,-2.9662,-2.9654,-2.8863,-2.8591,-2.8491,-2.782,-2.7603,-2.7585,-2.7585,-2.7225,-2.6776,-2.6632,-2.5824,-2.491,-2.4551,-2.4119,-2.3738,-2.3531,-2.3157,-2.2832,-2.2578,-2.1784,-2.0968,-2.0604,-2.0184,-1.9803,-1.9629,-1.9654,-1.9546,-1.9123,-1.8543,-1.7863,-1.7089,-1.6502,-1.6005,-1.5624,-1.5668,-1.5386,-1.4482,-1.3277,-1.272,-1.3136,-1.197,-1.1324,-1.1448,-1.12,-1.1076,-1.1087,-1.1076,-1.1076,-1.1087,-1.1099,-1.1111,-1.1111,-1.1111,-1.083,-1.8531,-1.8254,-1.8229,-1.9133,-1.9083,-1.9584,0.0,0.0,-2.1644,-2.3803,-2.4274,-2.4707,-2.5896,-2.6625,-2.7218,-2.7821,-2.8373,-2.8737,-2.8787,-2.9327,-2.9679,-2.9603,-2.9654,-2.9704,-2.9704,-2.9754,-2.9804,-2.9804,-2.9818,-2.9818,-2.9818,-3.0011,-3.0164,-3.0164,-3.033,-3.052,-3.0736,-3.0736,-3.0887,-3.1123,-3.1123,-3.1505,-3.2218,-3.2218,-3.2585,-3.3205,-3.2573,-3.1954,-3.1279,-3.066,-3.0471,-3.0478,-2.9854,-2.9631,-2.9612,-2.955,-2.9866,-3.0229,-2.9019,-2.8599,-2.8498,-2.7822,-2.7597,-2.7585,-2.7585,-2.7555,-2.7375,-2.6776,-2.6482,-2.5998,-2.4411,-2.422,-2.4246,-2.3222,-2.3245,-2.3233,-2.2213,-2.2241,-2.1982,-2.0313,-2.0031,-1.9885,-1.9263,-1.8884,-1.8779,-1.9123,-1.8691,-1.8008,-1.7043,-1.6342,-1.5722,-1.5132,-1.5135,-1.489,-1.4113,-1.3697,-1.3538,-1.3681,-1.2562,-1.2167,-1.2756,-1.159,-1.0958,-1.1017,-1.0958,-1.0958,-1.1017,-1.1076,-1.1111,-1.1111,-1.1111,-1.1055,-2.0464,-2.0288,-2.0238,-2.0665,-2.1091,-2.1841,-2.3602,-2.3703,-2.3979,-2.5862,-2.6264,-2.649,-2.7268,-2.7871,-2.8323,0.0,-2.9051,-2.9428,-2.9428,-2.9352,-2.9302,-2.9302,-2.9302,-2.9428,-2.9754,-2.9804,-2.9804,-2.9804,-2.9804,-2.9804,-2.9804,-3.0159,-3.0452,-3.057,-3.0953,-3.111,-3.0971,-3.0971,-3.0894,-3.0634,-3.0773,-3.0973,-3.1283,-3.1394,-3.1846,-3.2514,-3.1908,-3.1702,-3.173,-3.0742,-3.0339,-3.0363,-2.9698,-2.9462,-2.9507,-2.9499,-2.9686,-2.9809,-2.8882,-2.88,-2.8905,-2.751,-2.7355,-2.76,-2.7192,-2.6811,-2.657,-2.6649,-2.6369,-2.5833,-2.4758,-2.4341,-2.3984,-2.3159,-2.2838,-2.2608,-2.2124,-2.1921,-2.1585,-2.0805,-2.0123,-1.9546,-1.9271,-1.8832,-1.8461,-1.8403,-1.8134,-1.7777,-1.7295,-1.6468,-1.5604,-1.4839,-1.4702,-1.4497,-1.4201,-1.3747,-1.351,-1.3555,-1.2816,-1.243,-1.2636,-1.2156,-1.1731,-1.1362,-1.1337,-1.1146,-1.0839,-1.0899,-1.0922,-1.0875,-1.0958,-1.0993,-2.1518,-2.1719,-2.202,-2.2322,-2.3125,-2.4004,-2.4732,-2.5209,-2.5887,-2.7243,-2.7519,-2.762,-2.8021,-2.8549,-2.8888,-2.8888,-2.9428,-2.9804,-2.9804,-2.9302,-2.8888,-2.8888,-2.8762,-2.8925,-2.9503,-2.9704,-2.9804,-2.9804,-2.9804,-2.9854,-3.0005,-3.0407,-3.0723,-3.1048,-3.1387,-3.1534,-3.1326,-3.1326,-3.1161,-3.083,-3.0829,-3.0854,-3.0854,-3.0825,-3.1134,-3.1599,-3.1172,-3.1271,-3.1643,-3.0581,-3.02,-3.0145,-2.9349,-2.911,-2.9187,-2.899,-2.9129,-2.9417,-2.8722,-2.8806,-2.8969,-2.7449,-2.7145,-2.7332,-2.6845,-2.6291,-2.5906,-2.6336,-2.6098,-2.5566,-2.4847,-2.4428,-2.3932,-2.3031,-2.256,-2.2268,-2.1959,-2.1667,-2.1377,-2.1023,-2.0251,-1.953,-1.9197,-1.872,-1.8227,-1.7713,-1.7554,-1.741,-1.7234,-1.6239,-1.533,-1.4708,-1.4365,-1.4187,-1.4208,-1.383,-1.3587,-1.3618,-1.3121,-1.2768,-1.2669,-1.2548,-1.2277,-1.1804,-1.175,-1.1575,-1.1143,-1.1219,-1.1232,-1.1181,-1.1282,-1.132,-2.1644,-2.2272,-2.3321,-2.4399,-2.5134,-2.5812,-2.6917,-2.7193,-2.7369,-2.7971,-2.8072,-2.8097,-2.8097,-2.8549,-2.8888,-2.8888,-2.9428,-2.9804,-2.9804,-2.9302,-2.8888,-2.8888,-2.8448,-2.8348,0.0,-2.9478,-2.9804,-2.9804,-2.9804,-3.003,-3.0557,-3.0608,-3.0859,-3.1361,-3.1386,-3.1508,-3.1671,-3.1671,-3.1767,-3.1943,-3.1445,-3.1188,-3.1163,-3.0637,-3.0444,-3.0444,-3.0419,-3.0457,-3.0405,-2.9988,-2.9803,-2.971,-2.8585,-2.8282,-2.835,-2.7631,-2.826,-2.9411,-2.8744,-2.8522,-2.8426,-2.7783,-2.72,-2.6722,-2.6722,-2.6301,-2.5797,-2.5824,-2.5796,-2.5547,-2.4422,-2.4499,-2.4429,-2.2729,-2.2649,-2.2703,-2.1667,-2.1766,-2.1732,-2.0642,-2.0437,-2.0103,-1.8913,-1.836,-1.7922,-1.7298,-1.7214,-1.7031,-1.6507,-1.538,-1.4673,-1.4787,-1.4217,-1.3874,-1.3986,-1.4003,-1.4052,-1.4176,-1.3657,-1.3362,-1.3362,-1.2633,-1.224,-1.2271,-1.2214,-1.2214,-1.2244,-1.2315,-1.2357,-1.2357,-1.2357,-1.2357,-2.3351,-2.3948,-2.4575,-2.6088,-2.659,-2.7017,-2.8122,-2.8097,-2.7971,-2.8512,-2.8072,-2.757,-2.757,-2.772,-2.7946,-2.8323,-2.885,-2.9352,-2.9729,-2.9302,-2.8762,-2.8423,-2.8512,0.0,0.0,0.0,0.0,-2.9754,-3.0131,-3.0407,-3.0608,-3.1286,-3.1763,-3.1938,-3.2315,-3.2357,-3.2021,-3.2021,-3.1886,-3.159,-3.1534,-3.1414,-3.1188,-3.1009,-3.0766,-3.0406,-3.0406,-3.0406,-3.0381,-3.0239,-2.9968,-2.9571,-2.9186,-2.8605,-2.7954,-2.7704,-2.7735,-2.7829,-2.7829,-2.812,-2.8325,-2.7312,-2.7162,-2.7193,-2.6341,-2.5724,-2.5275,-2.5269,-2.5272,-2.5078,-2.4296,-2.4229,-2.4122,-2.3123,-2.2432,-2.1922,-2.1532,-2.1312,-2.1064,-2.0682,-2.0313,-1.9916,-1.9496,-1.8674,-1.7904,-1.7277,-1.7199,-1.7016,-1.6467,-1.6049,-1.5492,-1.4743,-1.4463,-1.4201,-1.3901,-1.3874,-1.3891,-1.3924,-1.3804,-1.3714,-1.3666,-1.3449,-1.3142,-1.2705,-1.2675,-1.2491,-1.2096,-1.2168,-1.2168,-1.2139,-1.2226,-1.2269,-2.4607,-2.5259,-2.5812,-2.7469,-2.7871,-2.8047,-2.8737,-2.8612,-2.8323,-2.8097,-2.7318,-2.6615,-2.644,-2.6239,-2.649,-2.762,-2.8273,-2.8976,-2.9955,-2.9603,-2.9101,-2.875,-2.8825,-2.8737,0.0,0.0,0.0,-2.9754,-3.0306,-3.0683,-3.0884,-3.1738,-3.2315,-3.2516,-3.2893,-3.2893,-3.2516,-3.2516,-3.224,-3.1687,-3.1811,-3.1655,-3.1258,-3.1055,-3.08,-3.0483,-3.0279,-3.0177,-3.0177,-3.0254,-3.005,-2.9692,-2.9488,-2.9014,-2.8334,-2.7915,-2.7531,-2.7267,-2.7299,-2.759,-2.7841,-2.7072,-2.7006,-2.7077,-2.6241,-2.555,-2.5004,-2.4991,-2.4838,-2.4591,-2.4187,-2.4099,-2.3951,-2.3347,-2.2505,-2.1747,-2.1564,-2.1093,-2.0699,-2.0699,-2.0386,-2.0048,-1.9839,-1.8845,-1.7957,-1.7565,-1.7329,-1.7068,-1.6728,-1.6519,-1.6101,-1.5317,-1.4846,-1.4472,-1.4132,-1.3922,-1.3791,-1.3791,-1.3825,-1.3825,-1.3791,-1.3825,-1.3657,-1.3242,-1.3216,-1.3017,-1.2635,-1.2681,-1.2681,-1.2661,-1.2727,-1.2773,-2.5435,-2.6172,-2.7002,-2.8574,-2.8938,-2.8938,-2.8888,-2.8838,-2.8373,-2.6776,-2.5946,-2.531,-2.475,-2.4305,-2.4707,-2.6841,-2.772,-2.8699,-3.0382,-3.0156,-2.9829,0.0,0.0,0.0,0.0,0.0,0.0,-2.988,0.0,-3.0884,-3.1411,-3.1964,-3.2516,-3.3068,-3.3111,-3.3111,-3.3111,-3.3111,-3.2792,-3.2265,-3.2265,-3.1964,-3.1411,-3.0884,-3.0633,-3.0583,-3.003,-2.9804,-2.9804,-3.0011,-3.0088,-3.0037,-2.9453,-2.9325,-2.9321,-2.8094,-2.7707,-2.7694,-2.7208,-2.7003,-2.6977,-2.6977,-2.6753,-2.6446,-2.6394,-2.5771,-2.504,-2.4988,-2.457,-2.4122,-2.4096,-2.4096,-2.3939,-2.3365,-2.2818,-2.227,-2.1668,-2.1119,-2.0751,-2.0725,-2.0699,-2.0491,-1.9891,-1.8898,-1.8166,-1.8114,-1.7617,-1.7225,-1.7199,-1.6754,-1.6415,-1.6388,-1.5388,-1.4663,-1.4655,-1.4158,-1.3844,-1.3844,-1.3817,-1.3791,-1.3791,-1.3791,-1.3791,-1.3791,-1.3791,-1.3791,-1.3791,-1.3791,-1.3791,-1.3791,-1.3791,-1.3775,-2.7042,-2.7871,-2.8499,-2.9352,-2.9578,-2.9453,-2.8988,-2.8298,-2.7344,-2.6088,-2.4732,-2.3572,-2.302,-2.3527,-2.4456,-2.5812,-2.7193,0.0,-3.0382,-3.0482,0.0,-3.0407,0.0,-3.0608,-3.0231,-3.0658,0.0,0.0,-3.111,-3.1436,-3.1964,-3.2541,-3.2918,-3.3111,-3.3111,-3.3111,-3.3111,-3.3111,-3.2993,-3.2867,-3.2867,-3.2541,-3.1989,-3.1436,-3.0984,-3.0583,-3.003,-2.9804,-2.9804,-2.9856,-2.9856,-2.9856,-2.9705,-2.9416,-2.9013,-2.8698,-2.8105,-2.7384,-2.7258,-2.7129,-2.6977,-2.6977,-2.6909,-2.6763,-2.6301,-2.6,-2.5678,-2.4978,-2.4671,-2.4494,-2.4171,-2.4096,-2.4044,-2.3887,-2.342,-2.2844,-2.2296,-2.1721,-2.1172,-2.0804,-2.0699,-2.0491,-1.9891,-1.9551,-1.9081,-1.8218,-1.7957,-1.7695,-1.7251,-1.7068,-1.6833,-1.6441,-1.6101,-1.5761,-1.5291,-1.4716,-1.4393,-1.4393,-1.4027,-1.3791,-1.3791,-1.3791,-1.3791,-1.3791,-1.3791,-1.3791,-1.3791,-1.3791,-1.3791,-1.3791,-1.3791,-1.3691,-2.8147,-2.8875,-2.9377,-2.9704,-2.9603,-2.9126,-2.8072,-2.7168,-2.6088,-2.4481,-2.3226,-2.2246,-2.1694,-2.2121,-2.308,0.0,0.0,0.0,-3.0306,-3.0809,-3.1035,0.0,-3.1562,0.0,-3.1009,-3.1436,-3.1763,0.0,-3.1763,-3.1888,-3.219,-3.2767,-3.3111,-3.3111,-3.3111,-3.3111,-3.3111,-3.3111,-3.3111,-3.3111,-3.3111,-3.2893,-3.2566,-3.2014,-3.1461,-3.0934,0.0,-3.0005,-2.9804,-2.9804,-2.9804,-2.9804,-2.9804,-2.9603,-2.9277,-2.8988,-2.8524,-2.7921,-2.7444,-2.7233,-2.7103,-2.6849,-2.6807,-2.6824,-2.6467,-2.6245,-2.5979,-2.546,-2.4952,-2.4519,-2.4301,-2.4072,-2.3894,-2.4008,-2.354,-2.3048,-2.2792,-2.2086,-2.1328,-2.0779,-2.0699,-2.0594,-2.0255,-1.9969,-1.9577,-1.895,-1.8427,-1.7983,-1.7643,-1.7356,-1.7068,-1.6781,-1.6545,-1.6258,-1.5918,-1.5343,-1.4977,-1.4977,-1.4472,-1.4158,-1.4158,-1.3922,-1.3791,-1.3791,-1.3791,-1.3791,-1.3791,-1.3791,-1.3725,-1.3624,-1.3624,-1.3556,-2.8863,-2.9402,-2.9804,-2.9804,-2.9302,-2.8398,-2.6851,-2.5871,-2.4657,-2.2523,-2.1594,-2.1016,-2.0566,-2.0591,-2.1446,-2.3728,0.0,-2.748,-3.0306,-3.111,-3.1612,-3.2265,-3.2315,-3.2139,-3.1662,-3.2039,-3.2315,-3.2315,-3.2315,-3.2315,-3.2315,-3.2792,-3.3111,-3.3111,-3.3111,-3.3111,-3.3111,-3.3111,-3.3111,-3.3111,-3.3111,-3.3111,-3.3068,-3.2491,-3.1913,-3.1361,0.0,0.0,-2.9804,-2.9804,-2.9804,-2.9804,-2.9804,-2.9804,-2.9729,-2.9189,-2.8963,-2.8762,-2.7846,-2.7394,-2.7228,-2.6675,-2.6602,-2.6679,-2.6679,-2.6451,-2.6143,-2.61,-2.5384,-2.456,-2.4438,-2.4029,-2.3731,-2.3857,-2.3473,-2.3088,-2.3124,-2.232,-2.1433,-2.0909,-2.083,-2.0804,-2.0725,-2.0281,-1.9891,-1.9812,-1.895,-1.827,-1.8114,-1.7565,-1.7199,-1.7199,-1.6781,-1.6493,-1.6493,-1.5944,-1.5604,-1.5604,-1.5055,-1.4733,-1.4733,-1.4289,-1.4001,-1.3922,-1.3922,-1.387,-1.3791,-1.3791,-1.3674,-1.3455,-1.3438,-1.3387,-2.9478,-2.9704,-2.9804,-2.9804,-2.9026,-2.7921,-2.6776,-2.4958,-2.3075,-2.1345,-2.0162,-1.9409,-1.9309,-2.0062,-2.1571,-2.423,-2.572,-2.7605,-3.0809,-3.1336,-3.1763,0.0,-3.2918,-3.2893,-3.2792,-3.2867,0.0,0.0,0.0,0.0,-3.2918,-3.3018,-3.3111,-3.3111,-3.3111,-3.3111,-3.3111,-3.3111,-3.3111,-3.3111,-3.3111,-3.3111,-3.3068,-3.2491,-3.1913,-3.1361,0.0,0.0,-2.9804,-2.9804,-2.9804,-2.9804,-2.9804,-2.9804,-2.9779,-2.9679,-2.9352,-2.8863,-2.8662,-2.8047,-2.7228,-2.6675,-2.6533,-2.6533,-2.6533,-2.6492,-2.635,-2.6029,-2.5782,-2.5459,-2.4612,-2.4336,-2.4162,-2.3731,-2.3581,-2.3376,-2.2971,-2.2409,-2.1873,-2.1459,-2.1355,-2.1224,-2.0804,-2.062,-2.036,-1.9891,-1.963,-1.9159,-1.8218,-1.7565,-1.7199,-1.7199,-1.712,-1.7068,-1.7068,-1.6545,-1.6232,-1.6232,-1.5683,-1.5343,-1.5343,-1.5238,-1.4951,-1.4472,-1.4472,-1.4245,-1.3791,-1.3791,-1.3801,-1.3725,-1.3506,-1.3242,-2.9628,-2.9804,-2.9729,-2.9428,-2.8499,-2.7243,-2.5594,-2.3678,-2.182,-2.0162,-1.9158,-1.8581,-1.8581,-1.9484,-2.0792,-2.2397,-2.3828,-2.5787,-2.8825,-2.9754,-3.0733,-3.2416,-3.2893,-3.3111,0.0,-3.3111,0.0,0.0,0.0,0.0,-3.3111,-3.3111,-3.3111,-3.3111,-3.3111,-3.3111,-3.3111,-3.3111,-3.3111,-3.3111,-3.3111,-3.3111,-3.3111,-3.2792,-3.219,-3.1386,0.0,0.0,-2.9804,-2.9804,-2.9804,-2.9804,-2.9804,-2.9804,-2.9804,-2.9804,-2.9628,-2.9327,-2.8988,-2.8537,-2.7996,-2.7203,-2.6725,-2.6499,-2.6499,-2.6499,-2.6483,-2.6274,-2.5971,-2.5618,-2.5152,-2.4627,-2.412,-2.3959,-2.3743,-2.3445,-2.2911,-2.2634,-2.233,-2.19,-2.1589,-2.1355,-2.1146,-2.0883,-2.062,-2.0308,-1.9995,-1.9603,-1.9054,-1.8453,-1.7852,-1.7251,-1.7199,-1.7199,-1.7199,-1.6963,-1.6807,-1.6807,-1.6284,-1.597,-1.597,-1.5657,-1.5343,-1.5055,-1.5055,-1.4925,-1.4663,-1.4503,-1.4449,-1.4467,-1.4116,-1.3877,-2.9478,-2.9704,-2.9654,-2.9038,-2.8021,-2.66,-2.4481,-2.2498,-2.069,-1.9133,-1.8281,-1.7877,-1.8003,-1.8706,-1.9635,-2.0691,-2.202,-2.3973,-2.7042,-2.8423,-2.988,-3.1964,-3.2717,0.0,-3.3111,-3.3111,0.0,0.0,0.0,0.0,0.0,-3.3111,-3.3111,-3.3111,-3.3111,-3.3111,-3.3111,-3.3111,-3.3111,-3.3111,-3.3111,-3.3111,-3.3111,-3.3111,-3.2516,-3.1562,0.0,0.0,0.0,-2.9854,-2.9804,-2.9804,-2.9804,-2.9804,-2.9804,-2.9804,-2.9804,-2.9729,-2.9277,-2.8988,-2.8737,-2.777,-2.7128,-2.665,-2.6524,-2.6499,-2.6499,-2.6499,-2.6172,-2.5762,-2.5636,-2.4983,-2.4312,-2.421,-2.3827,-2.3382,-2.3007,-2.2933,-2.2808,-2.233,-2.1894,-2.156,-2.1433,-2.1069,-2.0755,-2.0625,-2.0234,-1.9895,-1.9764,-1.9371,-1.8715,-1.7669,-1.746,-1.7329,-1.7199,-1.7199,-1.7199,-1.7199,-1.6807,-1.6571,-1.6571,-1.6101,-1.5813,-1.5683,-1.5683,-1.5611,-1.5406,-1.519,-1.5057,-1.4942,-1.4651,-1.4474,-2.8963,-2.9402,-2.9654,-2.9038,-2.772,-2.6122,-2.4381,-2.1895,-1.9635,-1.8505,-1.7426,-1.6801,-1.735,-1.7549,-1.8454,-2.1018,-2.197,-2.3703,-2.7494,-2.9001,-3.0331,-3.2014,0.0,0.0,-3.3111,0.0,0.0,0.0,0.0,0.0,0.0,-3.3111,-3.3111,-3.3111,-3.3111,-3.3111,-3.3111,-3.3111,-3.3111,-3.3111,-3.3111,-3.3111,-3.3111,-3.3111,-3.2742,-3.2114,0.0,0.0,0.0,-3.0005,-2.9804,-2.9804,-2.9804,-2.9804,-2.9804,-2.9804,-2.9804,-2.9779,-2.9729,-2.9377,-2.8787,-2.8222,-2.7645,-2.7153,-2.665,-2.6499,-2.6499,-2.6499,-2.6449,-2.6298,-2.5737,-2.5511,-2.5209,-2.4262,-2.3552,-2.3185,-2.3339,-2.3344,-2.3221,-2.2808,-2.2709,-2.2349,-2.1297,-2.1092,-2.0887,-2.0348,-2.0346,-2.0239,-1.9697,-1.9688,-1.9473,-1.8819,-1.8323,-1.78,-1.7251,-1.7199,-1.7199,-1.7199,-1.7146,-1.712,-1.712,-1.7068,-1.6807,-1.631,-1.631,-1.5886,-1.5057,-1.5304,-1.5095,-1.4455,-1.4494,-1.4336,-2.8712,-2.9352,-2.9578,-2.8674,-2.7444,-2.5971,-2.3929,-2.1568,-1.951,-1.843,-1.7277,-1.6697,-1.7297,-1.7398,-1.7976,-1.971,-2.0161,-2.1315,-2.4205,-2.5586,-2.7293,-2.9891,-3.1035,0.0,0.0,0.0,0.0,0.0,0.0,0.0,0.0,-3.3111,-3.3111,-3.3111,-3.3111,-3.3111,-3.3111,-3.3111,-3.3111,-3.3111,-3.3111,-3.3111,-3.3111,-3.3111,-3.2767,-3.219,0.0,0.0,0.0,-3.003,-2.9804,-2.9804,-2.9804,-2.9804,-2.9804,-2.9804,-2.9804,-2.9804,-2.9804,-2.9654,-2.9352,-2.8775,-2.8222,-2.762,-2.6776,-2.6499,-2.6499,-2.6499,-2.6499,-2.6449,-2.6197,-2.5862,-2.5335,-2.4255,-2.3828,-2.3552,-2.3286,-2.321,-2.3195,-2.317,-2.2869,-2.2515,-2.2193,-2.1553,-2.1014,-2.0783,-2.0502,-2.0244,-1.9988,-2.0012,-1.9829,-1.9261,-1.8832,-1.8349,-1.78,-1.7748,-1.7591,-1.7225,-1.7199,-1.7199,-1.7199,-1.7199,-1.7094,-1.6885,-1.6885,-1.6693,-1.6338,-1.6054,-1.5869,-1.5761,-1.5344,-1.509,-2.7946,-2.8725,-2.9051,-2.8097,-2.7017,-2.5695,-2.3572,-2.139,-1.951,-1.843,-1.7277,-1.6647,-1.7049,-1.7297,-1.77,-1.8607,-1.9033,-2.0011,-2.2217,-2.3527,-2.5285,-2.8097,0.0,0.0,0.0,0.0,0.0,0.0,0.0,0.0,0.0,0.0,-3.3111,-3.3111,-3.3111,-3.3111,-3.3111,-3.3111,-3.3111,-3.3111,-3.3111,-3.3111,-3.3111,-3.3111,-3.2842,0.0,0.0,0.0,0.0,-3.008,-2.9804,-2.9804,-2.9804,-2.9804,-2.9804,-2.9804,-2.9804,-2.9804,-2.9804,-2.9804,-2.9704,-2.9088,-2.8637,-2.8147,-2.7077,-2.6625,-2.6499,-2.6499,-2.6499,-2.6499,-2.6499,-2.6072,-2.541,-2.4657,-2.423,-2.3879,-2.3446,-2.3221,-2.3125,-2.3271,-2.2972,-2.2673,-2.2665,-2.1977,-2.1366,-2.1035,-2.0654,-2.0322,-2.0144,-2.0169,-2.0067,-1.9682,-1.9416,-1.8993,-1.8267,-1.8237,-1.7978,-1.7444,-1.7418,-1.734,-1.7136,-1.7178,-1.7178,-1.7136,-1.7178,-1.7157,-1.7052,-1.6586,-1.6371,-1.6367,-1.5778,-1.5445,-2.6373,-2.7293,-2.7996,-2.7419,-2.644,-2.5184,-2.3471,-2.139,-1.951,-1.843,-1.7277,-1.65,-1.65,-1.6999,-1.7599,-1.8129,-1.9108,-2.0537,-2.2769,-2.4073,-2.5435,0.0,0.0,0.0,0.0,0.0,0.0,0.0,0.0,0.0,0.0,0.0,-3.3111,-3.3111,-3.3111,-3.3111,-3.3111,-3.3111,-3.3111,-3.3111,-3.3111,-3.3111,-3.3111,-3.3111,0.0,0.0,0.0,0.0,0.0,-3.0231,-2.9804,-2.9804,-2.9804,-2.9804,-2.9804,-2.9804,-2.9804,-2.9804,-2.9804,-2.9804,-2.9704,-2.9088,-2.8888,-2.8687,-2.762,-2.6927,-2.6499,-2.6499,-2.6499,-2.6499,-2.6499,-2.6072,-2.5586,-2.5586,-2.4782,-2.4004,-2.3979,-2.3521,-2.3095,-2.3095,-2.3095,-2.292,-2.2397,-2.2297,-2.192,-2.0867,-2.0799,-2.0675,-2.0092,-2.0118,-2.0195,-2.0195,-2.0195,-1.9734,-1.8584,-1.8508,-1.8321,-1.7911,-1.7908,-1.7627,-1.7015,-1.7136,-1.7136,-1.6989,-1.7136,-1.7052,-1.671,-1.6689,-1.6324,-1.5601,-1.54,-1.5085,-2.4732,-2.5561,-2.6163,-2.5259,-2.4481,-2.3547,-2.2297,-2.0589,-1.9033,-1.8355,-1.7277,-1.65,-1.65,-1.6672,-1.735,-1.9032,-1.9585,-2.0439,-2.2268,-2.3847,0.0,-2.66,-2.9352,0.0,0.0,0.0,0.0,0.0,0.0,0.0,0.0,0.0,-3.3111,-3.3111,-3.3111,-3.3111,-3.3111,-3.3111,-3.3111,-3.3111,-3.3111,-3.3111,-3.3111,-3.3111,0.0,0.0,0.0,0.0,0.0,-3.0231,-2.9804,-2.9804,-2.9804,-2.9804,-2.9804,-2.9804,-2.9804,-2.9804,-2.9804,-2.9804,-2.9754,-2.9578,-2.9252,-2.8762,-2.8072,-2.7469,-2.6977,-2.66,-2.6499,-2.6499,-2.6499,-2.6348,-2.6122,-2.5686,-2.5059,-2.4456,-2.4079,-2.3552,-2.3095,-2.3095,-2.3095,-2.3045,-2.2869,-2.2518,-2.2196,-2.1845,-2.1524,-2.1123,-2.0543,-2.0521,-2.0369,-1.9965,-1.9939,-1.9712,-1.9171,-1.912,-1.8887,-1.8346,-1.8321,-1.7903,-1.7055,-1.7027,-1.6851,-1.6386,-1.6105,-1.6083,-1.6299,-1.5732,-1.5243,-1.4789,-1.472,-1.4628,-2.3125,-2.4004,-2.4506,-2.3828,-2.3221,-2.2518,-2.1418,-2.0062,-1.8782,-1.8053,-1.7149,-1.65,-1.65,-1.6697,-1.735,-1.8932,-1.9384,-2.0162,-2.2046,-2.3577,0.0,-2.7168,0.0,0.0,0.0,0.0,0.0,0.0,0.0,0.0,0.0,0.0,-3.3111,-3.3111,-3.3111,-3.3111,-3.3111,-3.3111,-3.3111,-3.3111,-3.3111,-3.3111,-3.3111,0.0,0.0,0.0,0.0,0.0,0.0,-3.0457,-2.998,-2.9804,-2.9804,-2.9804,-2.9804,-2.9804,-2.9804,-2.9804,-2.9804,-2.9804,-2.9804,-2.9804,-2.9402,-2.8787,-2.8273,-2.757,-2.6927,-2.66,-2.6499,-2.6499,-2.6499,-2.6499,-2.6399,-2.6047,-2.5511,-2.4958,-2.4431,-2.3853,-2.3371,-2.3145,-2.3095,-2.3095,-2.3095,-2.2819,-2.2518,-2.2347,-2.202,-2.1594,-2.1069,-2.0817,-2.0566,-2.0189,-1.9936,-1.9737,-1.9559,-1.9559,-1.933,-1.8794,-1.8768,-1.8371,-1.7561,-1.735,-1.7039,-1.6628,-1.6171,-1.6055,-1.6353,-1.5568,-1.503,-1.4774,-1.4651,-1.4649,0.0,-2.2393,-2.2794,-2.2769,-2.2368,-2.1744,-2.0742,-1.966,0.0,-1.7624,-1.6923,-1.6525,-1.66,-1.7049,-1.7649,-1.8329,-1.8832,-1.9936,-2.2121,-2.3502,0.0,0.0,0.0,0.0,0.0,0.0,0.0,0.0,0.0,0.0,0.0,0.0,0.0,-3.3111,-3.3111,-3.3111,-3.3111,-3.3111,-3.3111,-3.3111,-3.3111,-3.3111,-3.3111,0.0,0.0,0.0,0.0,0.0,0.0,-3.0834,-3.0281,-2.9804,-2.9804,-2.9804,-2.9804,-2.9804,-2.9804,-2.9804,-2.9804,-2.9804,-2.9804,-2.9804,-2.9402,-2.8787,-2.8323,-2.7394,-2.6549,-2.6499,-2.6499,-2.6499,-2.6499,-2.6499,-2.6499,-2.6499,-2.6047,-2.546,-2.4951,-2.4456,-2.3879,-2.3271,-2.317,-2.3145,-2.312,-2.3095,-2.292,-2.2447,-2.2372,-2.2171,-2.1619,-2.1119,-2.0792,-2.0767,-2.0239,-1.9861,-1.9809,-1.981,-1.9636,-1.9281,-1.923,-1.9002,-1.8421,-1.7991,-1.7654,-1.746,-1.6973,-1.6703,-1.6678,-1.5924,-1.548,-1.5356,-1.5057,-1.5078,-1.8907,0.0,-1.986,-1.9434,-1.9258,-1.9108,0.0,-1.8254,-1.7702,-1.7448,-1.6923,-1.6751,-1.7652,-1.7576,-1.8127,-2.0363,-2.084,-2.1543,-2.3351,-2.5636,0.0,0.0,0.0,0.0,0.0,0.0,0.0,0.0,0.0,0.0,0.0,0.0,0.0,-3.3111,-3.3111,-3.3111,-3.3111,-3.3111,-3.3111,-3.3111,-3.3111,-3.3111,-3.3111,0.0,0.0,0.0,0.0,0.0,0.0,-3.0834,-3.0281,-2.9804,-2.9804,-2.9804,-2.9804,-2.9804,-2.9804,-2.9804,-2.9804,-2.9804,-2.9804,-2.9804,-2.9402,-2.8863,-2.8737,-2.7971,-2.7027,-2.6625,-2.6499,-2.6499,-2.6499,-2.6499,-2.6499,-2.6499,-2.6047,-2.5561,-2.5435,-2.5008,-2.4456,-2.3904,-2.3803,-2.3653,-2.317,-2.3095,-2.307,-2.292,-2.292,-2.2719,-2.2196,-2.1995,-2.1769,-2.137,-2.0817,-2.0304,-1.9821,-1.9775,-1.9761,-1.9661,-1.9661,-1.9283,-1.8362,-1.8238,-1.7722,-1.6849,-1.6252,-1.5793,-1.5408,-1.5245,-1.5116,-1.5091,-1.5013,-1.5013,-1.7305,-1.8332,-1.9284,-1.9007,-1.8932,-1.8882,-1.8607,-1.7953,-1.7322,-1.7024,-1.6748,-1.6776,-1.7677,-1.7802,-1.8405,-2.0388,-2.1142,-2.2523,0.0,0.0,0.0,0.0,0.0,0.0,0.0,0.0,0.0,0.0,0.0,0.0,0.0,0.0,0.0,0.0,-3.3111,-3.3111,-3.3111,-3.3111,-3.3111,-3.3111,-3.3111,-3.3111,-3.3111,0.0,0.0,0.0,0.0,0.0,-3.1361,-3.1085,-3.0507,-2.9804,-2.9804,-2.9804,-2.9804,-2.9804,-2.9804,-2.9804,-2.9804,-2.9804,-2.9804,-2.9804,-2.9578,-2.9277,-2.8963,-2.8323,-2.7544,-2.7027,-2.67,-2.6499,-2.6499,-2.6499,-2.6499,-2.6499,-2.6248,-2.5946,-2.5661,-2.5385,-2.5008,-2.4481,-2.418,-2.3904,-2.3577,-2.3271,-2.3095,-2.3095,-2.3095,-2.2875,-2.2283,-2.2007,-2.1619,-2.1005,-2.0726,-2.035,-1.9705,-1.9758,-1.9693,-1.9447,-1.9422,-1.9195,-1.8644,-1.8099,-1.7406,-1.655,-1.6176,-1.59,-1.5628,-1.5421,-1.5421,-1.5628,-1.5421,-1.5421,-1.657,-1.8159,-1.9658,-1.9434,-1.9534,-1.9535,-1.8958,-1.8155,-1.7328,-1.6851,-1.6751,-1.6977,-1.7775,-1.8303,-1.8982,-2.0238,-2.1468,0.0,-2.7795,0.0,0.0,0.0,0.0,0.0,0.0,0.0,0.0,0.0,0.0,0.0,0.0,0.0,0.0,0.0,-3.3111,-3.3111,-3.3111,-3.3111,-3.3111,-3.3111,-3.3111,-3.3111,-3.3111,-3.3111,0.0,0.0,0.0,0.0,-3.1512,-3.1411,-3.0809,-2.9905,-2.9829,-2.9804,-2.9804,-2.9804,-2.9804,-2.9779,-2.9663,-2.9663,-2.9804,-2.9624,-2.9663,-2.9704,-2.9202,-2.8674,-2.8122,-2.767,-2.7052,-2.6499,-2.6499,-2.6499,-2.6499,-2.6499,-2.6499,-2.6348,-2.5837,-2.5737,-2.5561,-2.5034,-2.4556,-2.423,-2.413,-2.3697,-2.3321,-2.3246,-2.3246,-2.2953,-2.2218,-2.1716,-2.1181,-2.0481,-2.0434,-2.0188,-1.9538,-1.9661,-1.9503,-1.897,-1.8884,-1.8842,-1.8842,-1.7793,-1.6989,-1.6545,-1.6431,-1.6402,-1.6402,-1.6008,-1.6029,-1.6402,-1.598,-1.6029,-1.7492,-1.8586,-1.9128,-1.7771,-1.8287,-1.8958,-1.8286,-1.8037,-1.7911,-1.7929,-1.7834,-1.8284,-1.9886,-2.0264,-2.0993,-2.3025,-2.4714,-2.6625,0.0,0.0,0.0,0.0,0.0,0.0,0.0,0.0,0.0,0.0,0.0,0.0,0.0,0.0,0.0,0.0,0.0,-3.3111,-3.3111,-3.3111,-3.3111,-3.3111,-3.3111,-3.3111,-3.3111,-3.3111,-3.3111,0.0,0.0,0.0,-3.2039,-3.1587,-3.1035,-3.0432,-2.998,-2.9804,-2.9804,-2.9804,-2.9804,-2.9702,-2.8949,-2.917,-2.9663,-2.891,-2.9209,-2.9779,-2.9679,-2.9252,-2.8737,-2.8662,-2.7595,-2.6499,-2.6499,-2.6499,-2.6499,-2.6499,-2.6499,-2.6474,-2.6373,-2.6373,-2.6197,-2.5586,-2.541,-2.5209,-2.4782,-2.46,-2.4374,-2.3929,-2.3879,-2.343,-2.2266,-2.2029,-2.1704,-2.104,-2.0603,-2.0068,-1.9483,-1.9493,-1.9295,-1.8703,-1.8407,-1.8228,-1.8228,-1.755,-1.7163,-1.7073,-1.6637,-1.6402,-1.6402,-1.634,-1.634,-1.6402,-1.634,-1.634,-1.679,-1.7921,-1.8755,-1.7873,-1.8879,-1.9996,-1.9672,-1.9178,-1.8783,-1.8834,-1.8808,-1.908,-2.0223,-2.1001,-2.241,-2.531,0.0,0.0,0.0,0.0,0.0,0.0,0.0,0.0,0.0,0.0,0.0,0.0,0.0,0.0,0.0,0.0,0.0,0.0,0.0,0.0,-3.3111,-3.3111,-3.3111,-3.3111,-3.3111,-3.3111,-3.3111,-3.3111,-3.3111,0.0,0.0,-3.2742,-3.2164,-3.1612,-3.1085,-3.0557,-3.0005,-2.9804,-2.9804,-2.9804,-2.9804,-2.9663,-2.8791,-2.8752,-2.8949,-2.8051,-2.8355,-2.8988,-2.8514,-2.8207,-2.7926,-2.7463,-2.7152,-2.6927,-2.6927,-2.6725,-2.6396,-2.5955,-2.6164,-2.6396,-2.5955,-2.6198,-2.6424,-2.6147,-2.5812,-2.5378,-2.4755,-2.4361,-2.4067,-2.3822,-2.3773,-2.3481,-2.2693,-2.225,-2.1623,-2.0667,-2.0348,-1.9928,-1.9286,-1.9363,-1.9213,-1.8646,-1.8475,-1.8231,-1.7904,-1.7355,-1.7111,-1.7111,-1.6642,-1.6402,-1.6402,-1.6402,-1.6402,-1.6402,-1.6402,-1.6402,-1.6487,-1.7531,-1.8532,-1.8597,-1.9724,-2.0864,-2.108,-2.0493,-1.9954,-2.0131,-2.0226,-2.0447,-2.0948,-2.2248,0.0,-2.7147,-2.8375,0.0,0.0,0.0,0.0,0.0,0.0,0.0,0.0,0.0,0.0,0.0,0.0,0.0,0.0,0.0,0.0,0.0,0.0,0.0,-3.2939,-3.2939,-3.2982,-3.3111,-3.3111,-3.3111,-3.3111,-3.3111,-3.3111,-3.3111,-3.3111,-3.2742,-3.219,-3.1763,-3.126,-3.0693,-2.9984,-2.9489,-2.917,-2.9131,-2.9209,-2.9248,-2.8091,-2.7988,-2.8131,-2.7017,-2.7261,-2.7891,-2.718,-2.7025,-2.6979,-2.6325,-2.6502,-2.6944,-2.7099,-2.6891,-2.6536,-2.5917,-2.6019,-2.606,-2.5406,-2.5641,-2.5955,-2.5955,-2.5551,-2.5052,-2.4502,-2.4031,-2.3665,-2.357,-2.3546,-2.3323,-2.2728,-2.2174,-2.1341,-2.015,-2.0041,-1.9767,-1.9152,-1.9254,-1.9145,-1.8748,-1.8511,-1.8159,-1.774,-1.7358,-1.7172,-1.7172,-1.687,-1.6705,-1.6705,-1.6705,-1.6705,-1.6705,-1.6705,-1.6705,-1.7995,-1.8285,-1.8473,-1.9597,-2.0074,-2.0496,-2.1355,-2.1496,-2.1623,-2.2261,-2.2659,-2.3025,-2.3387,-2.5186,-2.7083,-2.84,-2.9287,0.0,0.0,0.0,0.0,0.0,0.0,0.0,0.0,0.0,0.0,0.0,0.0,0.0,0.0,0.0,0.0,0.0,0.0,0.0,-3.2444,-3.2444,-3.2661,-3.3111,-3.3111,-3.3111,-3.3111,-3.3111,-3.3111,-3.3111,-3.3111,-3.2742,-3.2215,-3.2164,-3.1838,-3.1204,-2.9862,-2.8519,-2.7261,-2.7098,-2.7504,-2.7931,-2.6005,-2.6461,-2.7545,-2.5797,-2.588,-2.6648,-2.6565,-2.6543,-2.6539,-2.6457,-2.6116,-2.5876,-2.6406,-2.6895,-2.7218,-2.7183,-2.6254,-2.537,-2.53,-2.4743,-2.4253,-2.4253,-2.423,-2.4207,-2.4135,-2.4112,-2.3892,-2.3409,-2.3305,-2.29,-2.1768,-2.1563,-2.1077,-1.992,-1.9809,-1.9643,-1.9139,-1.911,-1.9102,-1.9081,-1.8259,-1.775,-1.7709,-1.7668,-1.7647,-1.7647,-1.7626,-1.7606,-1.7606,-1.7606,-1.7606,-1.7606,-1.7606,-1.7606,-1.7195,-1.7991,-1.8809,-1.9272,-2.0169,-2.1214,-2.2218,-2.2725,-2.324,-2.412,-2.4425,-2.458,-2.4841,-2.5735,-2.6981,-2.8667,0.0,0.0,0.0,0.0,0.0,0.0,0.0,0.0,0.0,0.0,0.0,0.0,0.0,0.0,0.0,0.0,0.0,0.0,0.0,0.0,0.0,-3.24,-3.2487,-3.2661,-3.2766,-3.2939,-3.3068,-3.2939,-3.2853,-3.2853,-3.2853,-3.2728,-3.2504,-3.2281,-3.1645,-3.0592,-2.8785,-2.7617,-2.6894,-2.6812,-2.7017,-2.7098,-2.563,-2.5546,-2.5922,-2.4701,-2.4893,-2.5504,-2.4999,-2.5105,-2.5336,-2.4787,-2.4851,-2.5239,-2.5763,-2.6253,-2.629,-2.5249,-2.5294,-2.531,-2.428,-2.4081,-2.4108,-2.4108,-2.4108,-2.3927,-2.3497,-2.3423,-2.3356,-2.3142,-2.3097,-2.2992,-2.2677,-2.228,-2.1716,-2.096,-2.0246,-1.972,-1.9554,-1.9264,-1.9098,-1.9098,-1.8787,-1.8568,-1.8568,-1.8299,-1.8133,-1.8133,-1.7833,-1.7709,-1.7709,-1.7709,-1.7709,-1.7709,-1.7709,-1.7709,-1.6907,-1.7796,-1.8831,-1.9167,-2.0322,-2.1813,-2.3376,-2.4001,-2.4602,-2.5829,-2.5961,-2.5961,-2.6227,-2.6505,-2.7268,0.0,0.0,0.0,0.0,0.0,0.0,0.0,0.0,0.0,0.0,0.0,0.0,0.0,0.0,0.0,0.0,0.0,0.0,0.0,0.0,0.0,0.0,-3.2157,-3.2225,-3.2269,-3.2419,-3.2636,-3.2853,-3.2766,-3.268,-3.2593,-3.2593,-3.2339,-3.184,-3.1816,-3.0865,-2.9297,-2.7738,-2.6797,-2.6256,-2.6018,-2.6122,-2.6206,-2.5061,-2.4806,-2.4766,-2.3864,-2.3973,-2.4339,-2.3777,-2.3806,-2.3963,-2.3361,-2.3519,-2.4012,-2.4466,-2.5276,-2.5659,-2.4476,-2.4676,-2.4771,-2.3491,-2.3302,-2.3356,-2.3202,-2.3158,-2.3032,-2.259,-2.2515,-2.2515,-2.2515,-2.259,-2.2648,-2.2717,-2.2368,-2.1962,-2.1453,-2.0562,-2.001,-2.001,-1.972,-1.9471,-1.9326,-1.9326,-1.9264,-1.9119,-1.8808,-1.8621,-1.8621,-1.8299,-1.8154,-1.8154,-1.8154,-1.8154,-1.8154,-1.8154,-1.8154,-1.7556,-1.7796,-1.847,-1.9555,-2.061,-2.2125,-2.4723,-2.5324,-2.5781,-2.7378,-2.7448,-2.7306,-2.7671,-2.7859,0.0,0.0,0.0,0.0,0.0,0.0,0.0,0.0,0.0,0.0,0.0,0.0,0.0,0.0,0.0,0.0,0.0,0.0,0.0,0.0,0.0,0.0,0.0,-3.1717,-3.1805,-3.1981,-3.1981,-3.2113,-3.24,-3.2593,-3.2593,-3.24,-3.24,-3.1535,-3.0118,-3.0634,-2.9444,-2.7235,-2.6766,-2.5969,-2.5017,-2.4351,-2.4706,-2.5303,-2.4173,-2.4115,-2.4317,-2.3387,-2.3101,-2.3101,-2.3101,-2.2808,-2.2519,-2.2519,-2.2207,-2.1992,-2.2402,-2.4033,-2.5579,-2.5561,-2.4567,-2.3477,-2.3069,-2.2381,-2.1689,-2.1286,-2.1205,-2.1244,-2.1474,-2.1512,-2.1512,-2.1512,-2.1665,-2.1721,-2.1512,-2.1665,-2.1631,-2.1139,-2.0664,-2.0395,-2.0395,-2.0395,-2.0245,-1.9824,-1.9803,-1.9596,-1.9119,-1.9098,-1.9098,-1.9098,-1.9098,-1.9098,-1.9098,-1.9098,-1.9098,-1.9098,-1.9098,-1.9098,-1.7556,-1.835,-1.948,-2.0177,-2.1981,-2.4064,-2.5985,-2.6417,-2.697,-2.8979,-2.8996,-2.8602,-2.8306,-2.861,0.0,0.0,0.0,0.0,0.0,0.0,0.0,0.0,0.0,0.0,0.0,0.0,0.0,0.0,0.0,0.0,0.0,0.0,0.0,0.0,0.0,0.0,0.0,0.0,-3.1717,-3.1805,-3.1937,-3.2113,-3.24,-3.2245,-3.2157,-3.2069,-3.1383,-3.0819,-3.0277,-2.9098,-2.7957,-2.6911,-2.6095,-2.541,-2.4834,-2.4306,-2.4262,-2.44,-2.3614,-2.3418,-2.3474,-2.3188,-2.3101,-2.3101,-2.3101,-2.3003,-2.2847,-2.2598,-2.2422,-2.2285,-2.2109,-2.2549,-2.3124,-2.3713,-2.3929,-2.3824,-2.3042,-2.2574,-2.2151,-2.1709,-2.1628,-2.1567,-2.1343,-2.1282,-2.1282,-2.1282,-2.1359,-2.1359,-2.1282,-2.1359,-2.1375,-2.1384,-2.0974,-2.0724,-2.087,-2.0581,-2.0333,-2.0245,-2.0224,-1.9872,-1.9139,-1.9098,-1.9098,-1.9098,-1.9098,-1.9098,-1.9098,-1.9098,-1.9098,-1.9098,-1.9098,-1.9098,-1.8013,-1.9047,-2.0394,-2.1572,-2.3207,-2.5072,-2.733,-2.8186,-2.8931,-3.0422,-3.0134,-2.9581,-2.946,-2.9532,0.0,0.0,0.0,0.0,0.0,0.0,0.0,0.0,0.0,0.0,0.0,0.0,0.0,0.0,0.0,0.0,0.0,0.0,0.0,0.0,0.0,0.0,0.0,0.0,0.0,-3.1717,-3.1805,-3.1761,-3.156,-3.1849,-3.1937,-3.1805,-3.0396,-2.9555,-2.905,-2.7484,-2.6676,-2.6337,-2.559,-2.5137,-2.4861,-2.4382,-2.4106,-2.3929,-2.3521,-2.3237,-2.3101,-2.3101,-2.3101,-2.3101,-2.3101,-2.2984,-2.2789,-2.2578,-2.2383,-2.2207,-2.1953,-2.1894,-2.2012,-2.2519,-2.2948,-2.3062,-2.2322,-2.2084,-2.1849,-2.1392,-2.1312,-2.1272,-2.1091,-2.1089,-2.1089,-2.1089,-2.1089,-2.1089,-2.1167,-2.1205,-2.1244,-2.1359,-2.1116,-2.1029,-2.1142,-2.0876,-2.0651,-2.0467,-2.0519,-2.0226,-1.9541,-1.9569,-1.9603,-1.9603,-1.9603,-1.9603,-1.9603,-1.9471,-1.9388,-1.9388,-1.9388,-1.9388,-1.8638,-1.9744,-2.1115,-2.3264,-2.4362,-2.5733,-2.8691,-3.0182,-3.1115,-3.1597,-3.0946,-3.0374,-3.085,-3.0518,0.0,0.0,0.0,0.0,0.0,0.0,0.0,0.0,0.0,0.0,0.0,0.0,0.0,0.0,0.0,0.0,0.0,0.0,0.0,0.0,0.0,0.0,0.0,0.0,0.0,0.0,-3.1717,-3.1181,-3.0215,-3.1339,-3.1649,-3.1205,-2.9372,-2.7981,-2.701,-2.6091,-2.5693,-2.5654,-2.5293,-2.5137,-2.5078,-2.4629,-2.4238,-2.3887,-2.3828,-2.3535,-2.314,-2.3101,-2.3101,-2.3101,-2.3101,-2.2828,-2.2559,-2.2519,-2.2246,-2.1934,-2.1894,-2.1855,-2.1836,-2.1836,-2.1855,-2.1777,-2.1387,-2.1249,-2.1152,-2.0742,-2.0664,-2.0703,-2.0839,-2.0858,-2.0858,-2.0858,-2.0858,-2.0935,-2.1128,-2.1167,-2.1167,-2.1167,-2.1167,-2.1167,-2.1205,-2.1205,-2.1024,-2.0584,-2.0751,-2.0659,-2.0215,-2.0329,-2.0359,-2.0359,-2.0359,-2.0359,-2.0359,-1.9982,-1.9831,-1.9831,-1.9831,-1.9865,-1.8205,-1.9456,-2.1121,-2.3264,-2.6045,-2.857,-2.9653,-3.0778,-3.1573,-3.1693,-3.1524,-3.1284,-3.097,0.0,0.0,0.0,0.0,0.0,0.0,0.0,0.0,0.0,0.0,0.0,0.0,0.0,0.0,0.0,0.0,0.0,0.0,0.0,0.0,0.0,0.0,0.0,-3.1717,-3.1717,-3.1717,0.0,-3.1717,-3.1181,-3.0215,-3.0441,-2.9692,-2.8121,-2.7699,-2.6962,-2.6014,-2.5771,-2.5693,-2.5674,-2.5577,-2.5586,-2.5547,-2.5098,-2.4863,-2.4734,-2.4023,-2.373,-2.3594,-2.3198,-2.3101,-2.3101,-2.3101,-2.3042,-2.2886,-2.2598,-2.2441,-2.2305,-2.1973,-2.1641,-2.1327,-2.1327,-2.1641,-2.1855,-2.1758,-2.1738,-2.1621,-2.1172,-2.1094,-2.0977,-2.0703,-2.0644,-2.0644,-2.0644,-2.0644,-2.0683,-2.0722,-2.0722,-2.078,-2.0935,-2.0955,-2.1012,-2.1167,-2.1205,-2.1165,-2.1064,-2.1102,-2.1062,-2.0961,-2.0459,-2.0145,-2.0145,-2.0001,-1.9929,-1.9929,-2.0007,-2.0037,-2.0037,-2.0037,-2.0109,-1.8542,-2.0129,-2.2012,-2.4626,-2.7296,-2.9364,-2.9653,-3.0518,-3.1201,-3.0693,-3.1216,-3.1621,0.0,0.0,0.0,0.0,0.0,0.0,0.0,0.0,0.0,0.0,0.0,0.0,0.0,0.0,0.0,0.0,0.0,0.0,0.0,0.0,0.0,0.0,0.0,0.0,-3.1717,-3.1717,-3.1717,-3.1693,-3.1205,-3.0215,-2.8773,-2.9235,-2.8634,-2.7179,-2.7179,-2.6648,-2.5693,-2.5693,-2.5693,-2.5693,-2.5693,-2.5605,-2.5391,-2.5204,-2.4941,-2.4668,-2.4023,-2.3789,-2.3711,-2.3237,-2.3101,-2.3101,-2.3101,-2.3101,-2.3042,-2.2828,-2.2769,-2.2672,-2.2305,-2.2012,-2.1756,-2.1602,-2.1406,-2.129,-2.129,-2.129,-2.1231,-2.0957,-2.0918,-2.084,-2.0644,-2.0605,-2.0605,-2.0605,-2.0605,-2.0605,-2.0605,-2.0605,-2.0644,-2.0741,-2.078,-2.0819,-2.0876,-2.0915,-2.0915,-2.0915,-2.1012,-2.1051,-2.1051,-2.0687,-2.0538,-2.0612,-2.0501,-2.0464,-2.0464,-2.0353,-2.0289,-2.0289,-2.0086,-2.0057,-1.847,-2.061,-2.2919,-2.5985,-2.7993,-2.9196,-2.9268,-3.0037,-3.052,-2.9692,-3.0534,0.0,0.0,0.0,0.0,0.0,0.0,0.0,0.0,0.0,0.0,0.0,0.0,0.0,0.0,0.0,0.0,0.0,0.0,0.0,0.0,0.0,0.0,0.0,0.0,-3.0995,-3.1428,-3.1428,-3.1428,-3.1384,-3.0324,-2.8826,-2.7123,-2.7866,-2.772,-2.6962,-2.6962,-2.6456,-2.5693,-2.5693,-2.5693,-2.5674,-2.5596,-2.5391,-2.5106,-2.5028,-2.4727,-2.4355,-2.3945,-2.3828,-2.3828,-2.3354,-2.3257,-2.3296,-2.3237,-2.3198,-2.3198,-2.312,-2.3101,-2.3023,-2.2672,-2.2559,-2.2422,-2.207,-2.1387,-2.0801,-2.0742,-2.0664,-2.0605,-2.0605,-2.0605,-2.0605,-2.0605,-2.0605,-2.0605,-2.0605,-2.0605,-2.0605,-2.0605,-2.0605,-2.0605,-2.0605,-2.0605,-2.0605,-2.0605,-2.0605,-2.0605,-2.0605,-2.082,-2.0937,-2.0937,-2.0937,-2.1015,-2.1209,-2.1129,-2.1089,-2.1089,-2.0767,-2.0587,-2.0567,-2.0126,-2.0002,-1.6092,-1.9215,-2.2847,-2.554,-2.7416,-2.8739,-2.9196,-2.9773,-3.014,0.0,-3.0188,0.0,0.0,0.0,0.0,0.0,0.0,0.0,0.0,0.0,0.0,0.0,0.0,0.0,0.0,0.0,0.0,0.0,0.0,0.0,0.0,0.0,-3.023,-3.0302,-3.023,0.0,-3.0302,-3.0302,-3.0302,-3.0302,-2.89,-2.7659,-2.6667,-2.6295,-2.6014,-2.5917,-2.5917,-2.582,-2.5693,-2.5693,-2.5693,-2.5654,-2.5312,-2.5165,-2.5067,-2.4648,-2.4473,-2.4355,-2.3945,-2.4023,-2.4258,-2.3848,-2.3945,-2.418,-2.3809,-2.3711,-2.3633,-2.3198,-2.3101,-2.3081,-2.3023,-2.275,-2.25,-2.2441,-2.2051,-2.1602,-2.123,-2.084,-2.0605,-2.0605,-2.0605,-2.0605,-2.0605,-2.0605,-2.0605,-2.0605,-2.0605,-2.0605,-2.0605,-2.0605,-2.0605,-2.0605,-2.0605,-2.0605,-2.0605,-2.0605,-2.0605,-2.0605,-2.0937,-2.1152,-2.1152,-2.1152,-2.1192,-2.1192,-2.084,-2.0683,-2.0683,-2.0798,-2.0855,-2.0855,-2.0379,-2.0454,-1.7412,-2.0081,-2.2751,-2.5083,-2.6647,-2.7714,-2.8306,-2.8661,-2.8897,-2.8813,0.0,0.0,0.0,0.0,0.0,0.0,0.0,0.0,0.0,0.0,0.0,0.0,0.0,0.0,0.0,0.0,0.0,0.0,0.0,0.0,0.0,-2.9797,-2.9773,-3.0086,-2.9797,0.0,-3.0086,-3.0086,-2.9555,-2.8505,-2.7878,-2.6952,-2.5765,-2.5492,-2.5508,-2.5693,-2.5693,-2.5693,-2.5693,-2.5693,-2.5693,-2.5635,-2.5234,-2.5106,-2.5067,-2.457,-2.4414,-2.4355,-2.3945,-2.3906,-2.3984,-2.3555,-2.3555,-2.3627,-2.3477,-2.3418,-2.3335,-2.314,-2.3101,-2.3101,-2.3101,-2.2964,-2.2828,-2.2828,-2.2539,-2.2187,-2.1992,-2.1602,-2.1349,-2.1349,-2.1349,-2.1349,-2.1349,-2.1349,-2.1349,-2.1349,-2.1094,-2.0937,-2.0937,-2.0723,-2.0605,-2.0605,-2.0605,-2.0605,-2.0605,-2.0605,-2.0605,-2.0605,-2.0996,-2.119,-2.119,-2.1424,-2.1602,-2.1602,-2.0957,-2.0605,-2.0605,-2.0683,-2.0741,-2.0722,-2.0231,-2.0208,-1.8062,-1.9961,-2.1548,-2.3929,-2.5385,-2.6489,-2.7306,-2.7535,-2.7575,0.0,0.0,0.0,0.0,0.0,0.0,0.0,0.0,0.0,0.0,0.0,0.0,0.0,0.0,0.0,0.0,0.0,0.0,0.0,0.0,0.0,-2.9677,-2.9087,-2.9063,-2.9677,-2.9316,-2.9292,-2.9677,-2.9469,-2.8541,-2.6911,-2.6931,-2.6201,-2.4902,-2.5137,-2.543,-2.5693,-2.5693,-2.5693,-2.5693,-2.5693,-2.5693,-2.5635,-2.5117,-2.4902,-2.4844,-2.4297,-2.4082,-2.4043,-2.373,-2.3691,-2.373,-2.3418,-2.3335,-2.3393,-2.3296,-2.3257,-2.3237,-2.312,-2.3101,-2.3101,-2.3101,-2.3101,-2.3101,-2.3101,-2.2847,-2.2617,-2.2402,-2.2109,-2.1894,-2.1894,-2.1894,-2.1894,-2.1894,-2.1894,-2.1894,-2.1894,-2.1602,-2.1366,-2.1366,-2.1113,-2.0938,-2.0938,-2.0801,-2.0742,-2.0742,-2.0664,-2.0605,-2.0605,-2.1094,-2.1366,-2.1366,-2.1816,-2.2051,-2.2051,-2.1289,-2.0879,-2.0742,-2.0742,-2.0723,-2.0586,-2.0117,-1.998,-1.6042,-1.7195,-1.8422,-2.1572,-2.352,-2.5024,-2.6585,-2.6675,0.0,0.0,0.0,0.0,0.0,0.0,0.0,0.0,0.0,0.0,0.0,0.0,0.0,0.0,0.0,0.0,0.0,0.0,0.0,0.0,0.0,0.0,-2.8555,-2.7783,-2.7702,-2.8555,-2.857,-2.857,-2.8595,-2.7766,-2.6884,-2.5864,-2.5862,-2.5376,-2.4473,-2.5265,-2.5674,-2.5693,-2.5693,-2.5693,-2.5693,-2.5693,-2.5693,-2.5596,-2.4785,-2.4453,-2.4355,-2.3471,-2.3159,-2.3159,-2.314,-2.3437,-2.3789,-2.3769,-2.4023,-2.4277,-2.3867,-2.375,-2.3672,-2.3218,-2.3101,-2.3101,-2.3101,-2.3101,-2.3101,-2.3101,-2.3081,-2.2847,-2.209,-2.1894,-2.1894,-2.1894,-2.1894,-2.1894,-2.1894,-2.1894,-2.1894,-2.1894,-2.1875,-2.1855,-2.1855,-2.1836,-2.1816,-2.1816,-2.1445,-2.1171,-2.1171,-2.082,-2.0605,-2.0605,-2.1407,-2.1855,-2.1855,-2.2246,-2.248,-2.248,-2.2051,-2.1621,-2.1171,-2.1171,-2.0977,-2.0586,-2.0117,-2.0137,-1.4998,-1.6527,-1.8298,-1.9894,-2.1549,-2.3094,-2.4377,-2.4697,-2.496,0.0,0.0,0.0,0.0,0.0,0.0,0.0,0.0,0.0,0.0,0.0,0.0,0.0,0.0,0.0,0.0,0.0,0.0,0.0,0.0,0.0,-2.6753,-2.6464,-2.6464,-2.6753,-2.7348,-2.7938,-2.8498,-2.8179,-2.7284,-2.5777,-2.6109,-2.5609,-2.4434,-2.5039,-2.5469,-2.5693,-2.5693,-2.5693,-2.5693,-2.5693,-2.5693,-2.5596,-2.4766,-2.4414,-2.4316,-2.3413,-2.3101,-2.3101,-2.3101,-2.3198,-2.3379,-2.3379,-2.3432,-2.353,-2.3374,-2.3379,-2.334,-2.314,-2.3101,-2.3101,-2.3101,-2.3101,-2.3101,-2.3101,-2.3101,-2.3023,-2.2711,-2.2695,-2.2695,-2.2695,-2.2695,-2.2695,-2.2695,-2.2695,-2.2695,-2.2695,-2.2461,-2.2285,-2.2285,-2.2051,-2.1894,-2.1894,-2.1738,-2.166,-2.166,-2.1504,-2.1406,-2.1406,-2.176,-2.1894,-2.1894,-2.2031,-2.2246,-2.25,-2.2363,-2.207,-2.166,-2.1327,-2.1112,-2.0977,-2.0547,-2.0449,-1.399,-1.5476,-1.738,-1.8478,-1.9681,-2.1018,-2.2659,-2.2956,0.0,0.0,0.0,0.0,0.0,0.0,0.0,0.0,0.0,0.0,0.0,0.0,0.0,0.0,0.0,0.0,0.0,0.0,0.0,0.0,0.0,0.0,-2.5777,-2.5526,-2.5484,-2.5777,-2.6423,-2.6999,-2.7592,-2.7307,-2.6547,-2.5379,-2.5655,-2.5341,-2.4434,-2.5019,-2.5449,-2.5693,-2.5693,-2.5693,-2.5693,-2.5693,-2.5596,-2.5449,-2.4707,-2.4336,-2.4121,-2.3354,-2.3101,-2.3101,-2.3101,-2.3101,-2.3101,-2.3101,-2.3101,-2.3101,-2.3101,-2.3101,-2.3101,-2.3101,-2.3198,-2.3315,-2.3315,-2.3315,-2.3276,-2.314,-2.3101,-2.3101,-2.3101,-2.3101,-2.3101,-2.3101,-2.3101,-2.3101,-2.3101,-2.3101,-2.3101,-2.3101,-2.2847,-2.2672,-2.2672,-2.248,-2.2305,-2.2305,-2.2187,-2.209,-2.209,-2.1973,-2.1894,-2.1894,-2.2012,-2.209,-2.209,-2.2227,-2.2363,-2.2519,-2.2519,-2.2305,-2.1894,-2.1602,-2.1327,-2.119,-2.0781,-2.0605,0.0,0.0,0.0,-1.7331,-1.7955,0.0,-2.152,0.0,0.0,0.0,0.0,0.0,0.0,0.0,0.0,0.0,0.0,0.0,0.0,0.0,0.0,0.0,0.0,0.0,0.0,0.0,0.0,0.0,0.0,-2.4829,-2.5694,-2.4914,-2.4872,-2.5735,-2.5735,-2.5777,-2.5777,-2.4956,-2.4531,-2.4509,-2.4456,-2.4414,-2.4453,-2.5284,-2.5693,-2.5693,-2.5693,-2.5693,-2.5693,-2.5693,-2.5469,-2.5067,-2.459,-2.416,-2.373,-2.3276,-2.312,-2.312,-2.312,-2.314,-2.314,-2.314,-2.314,-2.314,-2.314,-2.314,-2.314,-2.314,-2.3477,-2.3809,-2.3809,-2.3809,-2.3691,-2.3237,-2.314,-2.314,-2.314,-2.314,-2.312,-2.3101,-2.3101,-2.3101,-2.3101,-2.3101,-2.3101,-2.3101,-2.3101,-2.3101,-2.3101,-2.3101,-2.3101,-2.3101,-2.273,-2.2539,-2.2539,-2.2168,-2.1914,-2.1914,-2.2305,-2.2519,-2.2519,-2.2847,-2.2867,-2.2519,-2.25,-2.2305,-2.1894,-2.1875,-2.166,-2.119,-2.0781,-2.0605,-1.3141,0.0,0.0,0.0,0.0,0.0,0.0,0.0,0.0,0.0,0.0,0.0,0.0,0.0,0.0,0.0,0.0,0.0,0.0,0.0,0.0,0.0,0.0,0.0,0.0,0.0,0.0,0.0,0.0,-2.3604,-2.3844,-2.3604,-2.3907,-2.4829,-2.4872,-2.5168,-2.5777,-2.5568,-2.5126,-2.4509,-2.5108,-2.5037,-2.4453,-2.5284,-2.5693,-2.5693,-2.5693,-2.5693,-2.5693,-2.5693,-2.5469,-2.5067,-2.459,-2.416,-2.3769,-2.3652,-2.3613,-2.3652,-2.3965,-2.4062,-2.4062,-2.4062,-2.4062,-2.4062,-2.4062,-2.4062,-2.4062,-2.4062,-2.4141,-2.4238,-2.4238,-2.4238,-2.4219,-2.4082,-2.4062,-2.4062,-2.4062,-2.4062,-2.3842,-2.3218,-2.3101,-2.3101,-2.3101,-2.3101,-2.3101,-2.3101,-2.3101,-2.3101,-2.3101,-2.3101,-2.3101,-2.3101,-2.2984,-2.2925,-2.2925,-2.2808,-2.275,-2.275,-2.2617,-2.2519,-2.2519,-2.2324,-2.2324,-2.25,-2.2207,-2.2148,-2.2344,-2.1719,-2.1307,-2.119,-2.0781,-2.0605,-1.3476,-1.4215,-1.533,0.0,0.0,0.0,0.0,-1.7002,0.0,0.0,0.0,0.0,0.0,0.0,0.0,0.0,0.0,0.0,0.0,0.0,0.0,0.0,0.0,0.0,0.0,0.0,0.0,0.0,-2.3101,-2.3101,-2.3101,-2.3101,-2.3343,-2.3907,-2.3907,-2.4145,-2.4681,-2.4681,-2.4402,-2.3907,-2.4614,-2.4786,-2.4434,-2.5137,-2.5566,-2.5693,-2.5693,-2.5693,-2.5674,-2.5527,-2.5195,-2.4746,-2.4316,-2.4004,-2.3789,-2.3789,-2.3906,-2.4082,-2.4336,-2.4414,-2.4414,-2.4414,-2.4414,-2.4414,-2.4414,-2.4414,-2.4414,-2.4414,-2.4551,-2.4687,-2.4687,-2.4687,-2.4648,-2.4453,-2.4414,-2.4414,-2.4414,-2.4414,-2.4277,-2.3725,-2.3535,-2.3418,-2.3418,-2.3218,-2.3101,-2.3101,-2.3101,-2.3101,-2.3101,-2.3101,-2.3101,-2.3101,-2.3101,-2.3101,-2.3101,-2.3101,-2.3101,-2.3101,-2.2867,-2.273,-2.273,-2.2539,-2.2441,-2.2519,-2.2266,-2.2187,-2.2246,-2.1522,-2.1093,-2.0957,-2.0723,-2.0605,-1.4057,-1.4301,-1.5069,0.0,0.0,0.0,-1.6621,-1.6515,0.0,0.0,0.0,0.0,0.0,0.0,0.0,0.0,0.0,0.0,0.0,0.0,0.0,0.0,0.0,0.0,0.0,0.0,0.0,-2.3101,-2.3101,-2.3101,-2.3101,-2.3101,-2.3101,-2.3101,-2.3101,-2.3101,-2.3101,-2.3101,-2.3101,-2.3101,-2.3633,-2.4062,-2.4434,-2.4922,-2.5352,-2.5693,-2.5693,-2.5654,-2.5625,-2.5234,-2.4844,-2.4453,-2.4023,-2.3867,-2.3867,-2.3906,-2.416,-2.4492,-2.4551,-2.4524,-2.4524,-2.4524,-2.4524,-2.4524,-2.4524,-2.4524,-2.4524,-2.4524,-2.4844,-2.5184,-2.5184,-2.5184,-2.5039,-2.4648,-2.4524,-2.4524,-2.4524,-2.4524,-2.4524,-2.4524,-2.418,-2.3867,-2.3867,-2.3535,-2.3218,-2.3179,-2.3159,-2.314,-2.3101,-2.3101,-2.3101,-2.3101,-2.3101,-2.3101,-2.3101,-2.3101,-2.3101,-2.3101,-2.3101,-2.3101,-2.3101,-2.3101,-2.2925,-2.2578,-2.2539,-2.2305,-2.1894,-2.1504,-2.1074,-2.0683,-2.0683,-2.0644,-1.521,-1.5226,-1.5381,-1.5369,0.0,0.0,-1.4846,-1.5176,0.0,0.0,0.0,0.0,0.0,0.0,0.0,0.0,0.0,0.0,0.0,0.0,0.0,0.0,0.0,0.0,0.0,0.0,-2.3101,-2.3101,-2.3101,-2.3101,-2.3101,-2.3101,-2.3101,-2.3101,-2.3101,-2.3101,-2.3101,-2.3101,-2.3101,-2.3101,-2.3881,-2.4336,-2.4453,-2.5234,-2.5615,-2.5693,-2.5693,-2.5527,-2.5195,-2.5145,-2.5067,-2.4902,-2.4453,-2.4297,-2.4336,-2.4687,-2.491,-2.5,-2.5304,-2.544,-2.544,-2.544,-2.544,-2.544,-2.544,-2.544,-2.544,-2.544,-2.5499,-2.5557,-2.5557,-2.5557,-2.5538,-2.546,-2.544,-2.544,-2.544,-2.544,-2.544,-2.544,-2.4844,-2.4297,-2.4297,-2.4219,-2.4062,-2.3711,-2.3672,-2.3535,-2.314,-2.3101,-2.3101,-2.3101,-2.3101,-2.3101,-2.3101,-2.3101,-2.3101,-2.3101,-2.3101,-2.3101,-2.3101,-2.3101,-2.3062,-2.2984,-2.2633,-2.2305,-2.1894,-2.1797,-2.1543,-2.1073,-2.1073,-2.0918,-1.6047,-1.5845,-1.5876,-1.597,0.0,0.0,0.0,0.0,-1.5119,0.0,0.0,0.0,0.0,0.0,0.0,0.0,0.0,0.0,0.0,0.0,0.0,0.0,0.0,0.0,0.0,0.0,-2.2867,-2.3081,-2.3101,-2.3101,-2.3101,-2.3101,-2.3101,-2.3101,-2.3101,-2.3101,-2.3101,-2.3101,-2.3198,-2.3477,-2.3906,-2.4336,-2.4746,-2.5195,-2.5527,-2.5693,-2.5693,-2.5605,-2.5391,-2.5156,-2.5195,-2.5332,-2.4668,-2.4551,-2.4766,-2.5028,-2.5215,-2.543,-2.5615,-2.5693,-2.5693,-2.5693,-2.5693,-2.5693,-2.5693,-2.5693,-2.5693,-2.5693,-2.5693,-2.5693,-2.5693,-2.5693,-2.5693,-2.5693,-2.5693,-2.5693,-2.5693,-2.5693,-2.5693,-2.5693,-2.5343,-2.5,-2.4785,-2.4551,-2.4336,-2.4141,-2.4102,-2.3945,-2.3516,-2.3457,-2.3379,-2.312,-2.3101,-2.3101,-2.3101,-2.3101,-2.3101,-2.3101,-2.3101,-2.3101,-2.3101,-2.3101,-2.3101,-2.3101,-2.2886,-2.2672,-2.2519,-2.2519,-2.2187,-2.1562,-2.1562,-2.1445,0.0,0.0,0.0,0.0,0.0,-1.5607,0.0,0.0,0.0,-1.5884,0.0,0.0,0.0,0.0,0.0,0.0,0.0,0.0,0.0,0.0,0.0,0.0,0.0,0.0,0.0,0.0,-2.2344,-2.2808,-2.2769,-2.2808,-2.2964,-2.3042,-2.3101,-2.3101,-2.3101,-2.3101,-2.3101,-2.3101,-2.3359,-2.3789,-2.3867,-2.4316,-2.5125,-2.5156,-2.5391,-2.5693,-2.5693,-2.5635,-2.5586,-2.5312,-2.5352,-2.5499,-2.4824,-2.4805,-2.5195,-2.5195,-2.543,-2.5693,-2.5693,-2.5693,-2.5693,-2.5693,-2.5693,-2.5693,-2.5693,-2.5693,-2.5693,-2.5693,-2.5693,-2.5693,-2.5693,-2.5693,-2.5693,-2.5693,-2.5693,-2.5693,-2.5693,-2.5693,-2.5693,-2.5693,-2.5693,-2.5625,-2.5254,-2.4902,-2.4648,-2.4551,-2.4531,-2.4394,-2.3965,-2.3906,-2.3769,-2.3374,-2.3276,-2.3218,-2.3218,-2.314,-2.3101,-2.3101,-2.3101,-2.3101,-2.3101,-2.3101,-2.3101,-2.3101,-2.3101,-2.3101,-2.3101,-2.3101,-2.2754,-2.2012,-2.2012,-2.1973,0.0,0.0,0.0,0.0,-1.7278,0.0,0.0,0.0,-1.5718,-1.4753,0.0,0.0,0.0,0.0,0.0,0.0,0.0,0.0,0.0,0.0,0.0,0.0,0.0,0.0,0.0,0.0,0.0,-2.1973,-2.166,-2.1736,-2.2539,-2.2886,-2.3101,-2.3101,-2.3101,-2.3101,-2.3101,-2.3101,-2.3359,-2.3789,-2.416,-2.4609,-2.5125,-2.5488,-2.5635,-2.5693,-2.5693,-2.5508,-2.5176,-2.5527,-2.5449,-2.5184,-2.5086,-2.5273,-2.5615,-2.5615,-2.5635,-2.5693,-2.5693,-2.5693,-2.5693,-2.5693,-2.5693,-2.5693,-2.5693,-2.5693,-2.5693,-2.5693,-2.5693,-2.5693,-2.5693,-2.5693,-2.5693,-2.5693,-2.5693,-2.5693,-2.5693,-2.5693,-2.5693,-2.5693,-2.5693,-2.5674,-2.5615,-2.5577,-2.5449,-2.5059,-2.5047,-2.4844,-2.4394,-2.4355,-2.4316,-2.4277,-2.3945,-2.3711,-2.3711,-2.3315,-2.3101,-2.3101,-2.3101,-2.3101,-2.3101,-2.3101,-2.3101,-2.3101,-2.3101,-2.3101,-2.3101,-2.3101,-2.2847,-2.2441,-2.2441,-2.2246,0.0,0.0,0.0,0.0,0.0,0.0,0.0,0.0,-1.5172,0.0,0.0,0.0,0.0,0.0,0.0,0.0,0.0,0.0,0.0,0.0,0.0,0.0,0.0,0.0,0.0,0.0,0.0,0.0,0.0,-2.0957,-2.209,-2.2539,-2.2847,-2.3081,-2.3101,-2.3101,-2.3101,-2.3101,-2.3432,-2.416,-2.4336,-2.4785,-2.5469,-2.5596,-2.5693,-2.5693,-2.5693,-2.5577,-2.5469,-2.5615,-2.5577,-2.5449,-2.5449,-2.5566,-2.5693,-2.5693,-2.5693,-2.5693,-2.5693,-2.5693,-2.5693,-2.5693,-2.5693,-2.5693,-2.5693,-2.5693,-2.5693,-2.5693,-2.5693,-2.5693,-2.5693,-2.5693,-2.5693,-2.5693,-2.5693,-2.5693,-2.5693,-2.5693,-2.5693,-2.5693,-2.5693,-2.5693,-2.5693,-2.5693,-2.5635,-2.5488,-2.5449,-2.5293,-2.4844,-2.4805,-2.4687,-2.4453,-2.4258,-2.416,-2.416,-2.3984,-2.3842,-2.3842,-2.3652,-2.3354,-2.3101,-2.3101,-2.3101,-2.3101,-2.3101,-2.3101,-2.3101,-2.3101,-2.3003,-2.2828,-2.2828,-2.2773,-1.885,0.0,0.0,0.0,0.0,0.0,0.0,0.0,0.0,0.0,0.0,0.0,0.0,0.0,0.0,0.0,0.0,0.0,0.0,0.0,0.0,0.0,0.0,0.0,0.0,0.0,0.0,0.0,0.0,0.0,-2.1486,-2.2051,-2.2539,-2.2906,-2.3042,-2.3101,-2.3101,-2.3218,-2.3647,-2.4414,-2.4531,-2.5,-2.5693,-2.5693,-2.5693,-2.5693,-2.5693,-2.5693,-2.5693,-2.5693,-2.5693,-2.5693,-2.5693,-2.5693,-2.5693,-2.5693,-2.5693,-2.5693,-2.5693,-2.5693,-2.5693,-2.5693,-2.5693,-2.5693,-2.5693,-2.5693,-2.5693,-2.5693,-2.5693,-2.5693,-2.5693,-2.5693,-2.5693,-2.5693,-2.5693,-2.5693,-2.5693,-2.5693,-2.5693,-2.5693,-2.5693,-2.5693,-2.5693,-2.5693,-2.5693,-2.5693,-2.5693,-2.5577,-2.5293,-2.5254,-2.5137,-2.4805,-2.4668,-2.459,-2.459,-2.4492,-2.4414,-2.4414,-2.4141,-2.3828,-2.3452,-2.3452,-2.3393,-2.3276,-2.3276,-2.3218,-2.3101,-2.3101,-2.3101,-2.3101,-2.3101,-2.3101,0.0,0.0,0.0,-1.7605,0.0,0.0,0.0,0.0,-1.6046,0.0,0.0,0.0,0.0,0.0,0.0,0.0,0.0,0.0,0.0,0.0,0.0,0.0,0.0,0.0,0.0,0.0,0.0,0.0,0.0,0.0,-2.0566,-2.1426,-2.209,-2.2519,-2.2886,-2.3101,-2.3101,-2.3555,-2.3984,-2.4414,-2.4844,-2.5293,-2.5693,-2.5693,-2.5693,-2.5693,-2.5693,-2.5693,-2.5693,-2.5693,-2.5693,-2.5693,-2.5693,-2.5693,-2.5693,-2.5693,-2.5693,-2.5693,-2.5693,-2.5693,-2.5693,-2.5693,-2.5693,-2.5693,-2.5693,-2.5693,-2.5693,-2.5693,-2.5693,-2.5693,-2.5693,-2.5693,-2.5693,-2.5693,-2.5693,-2.5693,-2.5693,-2.5693,-2.5693,-2.5693,-2.5693,-2.5693,-2.5693,-2.5693,-2.5693,-2.5693,-2.5693,-2.5693,-2.5674,-2.5674,-2.5654,-2.5654,-2.5312,-2.5086,-2.5086,-2.4668,-2.4414,-2.4414,-2.4414,-2.4394,-2.4375,-2.4375,-2.418,-2.3769,-2.3769,-2.3555,-2.3101,-2.3101,-2.3101,-2.3101,-2.3101,-2.3101,0.0,0.0,-2.1668,-1.9127,0.0,0.0,0.0,0.0,0.0,0.0,0.0,0.0,0.0,0.0,0.0,0.0,0.0,0.0,0.0,0.0,0.0,0.0,0.0,0.0,0.0,0.0,0.0,0.0,0.0,0.0,0.0,-2.0977,-2.1777,-2.248,-2.2886,-2.3237,-2.3574,-2.3711,-2.4141,-2.4844,-2.5047,-2.5293,-2.5693,-2.5693,-2.5693,-2.5693,-2.5693,-2.5693,-2.5693,-2.5693,-2.5693,-2.5693,-2.5693,-2.5693,-2.5693,-2.5693,-2.5693,-2.5693,-2.5693,-2.5693,-2.5693,-2.5693,-2.5693,-2.5693,-2.5693,-2.5693,-2.5693,-2.5693,-2.5693,-2.5693,-2.5693,-2.5693,-2.5693,-2.5693,-2.5693,-2.5693,-2.5693,-2.5693,-2.5693,-2.5693,-2.5547,-2.543,-2.543,-2.5284,-2.5284,-2.5645,-2.5693,-2.5693,-2.5693,-2.5693,-2.5693,-2.5693,-2.5412,-2.5218,-2.5218,-2.5083,-2.487,-2.46,-2.4769,-2.4727,-2.4434,-2.4414,-2.4355,-2.4199,-2.4199,-2.4141,-2.3984,-2.3711,-2.3574,-2.3574,-2.3237,-2.3101,-2.2272,-2.2602,0.0,0.0,-1.9732,0.0,-1.6853,0.0,0.0,0.0,0.0,0.0,0.0,0.0,0.0,0.0,0.0,0.0,0.0,0.0,0.0,0.0,0.0,0.0,0.0,0.0,-1.5449,-1.6824,0.0,0.0,0.0,0.0,-2.1387,-2.2266,-2.2808,-2.334,-2.3789,-2.3945,-2.4375,-2.5106,-2.5234,-2.5449,-2.5693,-2.5693,-2.5693,-2.5693,-2.5693,-2.5693,-2.5693,-2.5693,-2.5693,-2.5693,-2.5693,-2.5693,-2.5693,-2.5693,-2.5693,-2.5693,-2.5693,-2.5693,-2.5693,-2.5693,-2.5693,-2.5693,-2.5693,-2.5791,-2.5977,-2.5977,-2.6025,-2.6142,-2.6043,-2.6043,-2.5993,-2.5894,-2.5844,-2.5844,-2.5844,-2.5944,-2.5993,-2.5894,-2.5794,-2.5726,-2.5595,-2.5294,-2.521,-2.5499,-2.5547,-2.5577,-2.5693,-2.5693,-2.5693,-2.5693,-2.543,-2.5235,-2.5186,-2.5137,-2.5071,-2.4804,-2.4929,-2.489,-2.46,-2.4694,-2.4664,-2.4528,-2.4602,-2.457,-2.4414,-2.4141,-2.3958,-2.3868,-2.353,-2.3227]},{"header":{"parameterUnit":"m.s-1","parameterCategory":1,"la1":30.6,"la2":29.2853,"lo1":-89.7004,"lo2":-87.6739,"dy":0.0162,"dx":0.0183,"nx":112,"ny":82,"refTime":"2026-04-19T12:00:00:Z","depth":0,"parameterNumber":3,"parameterNumberName":"V-component_of_WINDS"},"data":[0.0,0.0,0.0,0.0,0.0,0.0,0.0,0.0,0.0,0.0,0.0,0.0,0.0,0.0,0.0,0.0,0.0,0.0,0.0,0.0,0.0,0.0,0.0,0.0,0.0,0.0,0.0,0.0,0.0,0.0,0.0,0.0,0.0,0.0,0.0,0.0,0.0,0.0,0.0,0.0,0.0,0.0,0.0,0.0,0.0,0.0,0.0,0.0,0.0,0.0,0.0,0.0,0.0,0.0,0.0,0.0,0.0,0.0,0.0,0.0,0.0,0.0,0.0,0.0,0.0,0.0,0.0,0.0,0.0,0.0,0.0,0.0,0.0,0.0,0.0,0.0,0.0,0.0,0.0,0.0,0.0,0.0,0.0,0.0,0.0,0.0,0.0,0.0,0.0,0.0,0.0,0.6358,0.7244,0.7855,0.807,0.8347,0.8053,0.6995,0.0,0.0,0.0,0.0,0.0,0.0,0.0,0.0,0.0,0.0,0.0,0.0,0.0,0.0,0.0,0.0,0.0,0.0,0.0,0.0,0.0,0.0,0.0,0.0,0.0,0.0,0.0,0.0,0.0,0.0,0.0,0.0,0.0,0.0,0.0,0.0,0.0,0.0,0.0,0.0,0.0,0.0,0.0,0.0,0.0,0.0,0.0,0.0,0.0,0.0,0.0,0.0,0.0,0.0,0.0,0.0,0.0,0.0,0.0,0.0,0.0,0.0,0.0,0.0,0.0,0.0,0.0,0.0,0.0,0.0,0.0,0.0,0.0,0.0,0.0,0.0,0.0,0.0,0.0,0.0,0.0,0.0,0.0,0.0,0.0,0.0,0.0,0.0,0.0,0.0,0.0,0.0,0.0,0.0,0.0,0.0,0.0,0.0,0.0,0.0,0.0,0.0,0.0,0.0,0.5569,0.6542,0.7281,0.7811,0.7993,0.8319,0.808,0.7146,0.0,0.0,0.0,0.0,0.0,0.0,0.0,0.0,0.0,0.0,0.0,0.0,0.0,0.0,0.0,0.0,0.0,0.0,0.0,0.0,0.0,0.0,0.0,0.0,0.0,0.0,0.0,0.0,0.0,0.0,0.0,0.0,0.0,0.0,0.0,0.0,0.0,0.0,0.0,0.0,0.0,0.0,0.0,0.0,0.0,0.0,0.0,0.0,0.0,0.0,0.0,0.0,0.0,0.0,0.0,0.0,0.0,0.0,0.0,0.0,0.0,0.0,0.0,0.0,0.0,0.0,0.0,0.0,0.0,0.0,0.0,0.0,0.0,0.0,0.0,0.0,0.0,0.0,0.0,0.0,0.0,0.0,0.0,0.0,0.0,0.0,0.0,0.0,0.0,0.0,0.0,0.0,0.0,0.0,0.0,0.0,0.0,0.0,0.0,0.0,0.0,0.0,0.0,0.5825,0.6321,0.7241,0.7635,0.7956,0.8298,0.8474,0.8133,0.717,0.6867,0.0,0.0,0.0,0.0,0.0,0.0,0.0,0.0,0.0,0.0,0.0,0.0,0.0,0.0,0.0,0.0,0.0,0.0,0.0,0.0,0.0,0.0,0.0,0.0,0.0,0.0,0.0,0.0,0.0,0.0,0.0,0.0,0.0,0.0,0.0,0.0,0.0,0.0,0.0,0.0,0.0,0.0,0.0,0.0,0.0,0.0,0.0,0.0,0.0,0.0,0.0,0.0,0.0,0.0,0.0,0.0,0.0,0.0,0.0,0.0,0.0,0.0,0.0,0.0,0.0,0.0,0.0,0.0,0.0,0.0,0.0,0.0,0.0,0.0,0.0,0.0,0.0,0.0,0.0,0.0,0.0,0.0,0.0,0.0,0.0,0.0,0.0,0.0,0.0,0.0,0.0,0.0,0.0,0.0,0.0,0.0,0.0,0.0,0.0,0.0,0.0,0.0,0.663,0.7036,0.7743,0.7869,0.807,0.8502,0.8478,0.8056,0.7193,0.663,0.0,0.0,0.0,0.0,0.0,0.0,0.0,0.0,0.0,0.0,0.0,0.0,0.0,0.0,0.0,0.0,0.0,0.0,0.0,0.0,0.0,0.0,0.0,0.0,0.0,0.0,0.0,0.0,0.0,0.0,0.0,0.0,0.0,0.0,0.0,0.0,0.0,0.0,0.0,0.0,0.0,0.0,0.0,0.0,0.0,0.0,0.0,0.0,0.0,0.0,0.0,0.0,0.0,0.0,0.0,0.0,0.0,0.0,0.0,0.0,0.0,0.0,0.0,0.0,0.0,0.0,0.0,0.0,0.0,0.0,0.0,0.0,0.0,0.0,0.0,0.0,0.0,0.0,0.0,0.0,0.0,0.0,0.0,0.0,0.0,0.0,0.0,0.0,0.0,0.0,0.0,0.0,0.0,0.0,0.0,0.0,0.0,0.0,0.0,0.0,0.0,0.0,0.6703,0.7277,0.7579,0.7797,0.8013,0.8305,0.8107,0.7733,0.7229,0.6355,0.0,0.0,0.0,0.0,0.0,0.0,0.0,0.0,0.0,0.0,0.0,0.0,0.0,0.0,0.0,0.0,0.0,0.0,0.0,0.0,0.0,0.0,0.0,0.0,0.0,0.0,0.0,0.0,0.0,0.0,0.0,0.0,0.0,0.0,0.0,0.0,0.0,0.0,0.0,0.0,0.0,0.0,0.0,0.0,0.0,0.0,0.0,0.0,0.0,0.0,0.0,0.0,0.0,0.0,0.0,0.0,0.0,0.0,0.0,0.0,0.0,0.0,0.0,0.0,0.0,0.0,0.0,0.0,0.0,0.0,0.0,0.0,0.0,0.0,0.0,0.0,0.0,0.0,0.0,0.0,0.0,0.0,0.0,0.0,0.0,0.0,0.0,0.0,0.0,0.0,0.0,0.0,0.0,0.0,0.0,0.0,0.0,0.0,0.0,0.0,0.0,0.0,0.6488,0.7064,0.0,0.7855,0.8056,0.846,0.8399,0.8004,0.724,0.0,0.0,0.0,0.0,0.0,0.0,0.0,0.0,0.0,0.0,0.0,0.0,0.0,0.0,0.0,0.0,0.0,0.0,0.0,0.0,0.0,0.0,0.0,0.0,0.0,0.0,0.0,0.0,0.0,0.0,0.0,0.0,0.0,0.0,0.0,0.0,0.0,0.0,0.0,0.0,0.0,0.0,0.0,0.0,0.0,0.0,0.0,0.0,0.0,0.0,0.0,0.0,0.0,0.0,0.0,0.0,0.0,0.0,0.0,0.0,0.0,0.0,0.0,0.0,0.0,0.0,0.0,0.0,0.0,0.0,0.0,0.0,0.0,0.0,0.0,0.0,0.0,0.0,0.0,0.0,0.0,0.0,0.0,0.0,0.0,0.0,0.0,0.0,0.0,0.0,0.0,0.0,0.0,0.0,0.0,0.0,0.0,0.0,0.0,0.0,0.0,0.0,0.6083,0.6585,0.7173,0.0,0.7984,0.8156,0.8488,0.829,0.7895,0.724,0.0,0.0,0.0,0.0,0.0,0.0,0.0,0.0,0.0,0.0,0.0,0.0,0.0,0.0,0.0,0.0,0.0,0.0,0.0,0.0,0.0,0.0,0.0,0.0,0.0,0.0,0.0,0.0,0.0,0.0,0.0,0.0,0.0,0.0,0.0,0.0,0.0,0.0,0.0,0.0,0.0,0.0,0.0,0.0,0.0,0.0,0.0,0.0,0.0,0.0,0.0,0.0,0.0,0.0,0.0,0.0,0.0,0.0,0.0,0.0,0.0,0.0,0.0,0.0,0.0,0.0,0.0,0.0,0.0,0.0,0.0,0.0,0.0,0.0,0.0,0.0,0.0,0.0,0.0,0.0,0.0,0.0,0.0,0.0,0.0,0.0,0.0,0.0,0.0,0.0,0.0,0.0,0.0,0.0,0.0,0.0,0.0,0.0,0.0,0.0,0.0,0.0,0.637,0.7081,0.7666,0.7864,0.8127,0.8305,0.8284,0.7629,0.7197,0.0,0.0,0.0,0.0,0.0,0.0,0.0,0.0,0.0,0.0,0.0,0.0,0.0,0.0,0.0,0.0,0.0,0.0,0.0,0.0,0.0,0.0,0.0,0.0,0.0,0.0,0.0,0.0,0.0,0.0,0.0,0.0,0.0,0.0,0.0,0.0,0.0,0.0,0.0,0.0,0.0,0.0,0.0,0.0,0.0,0.0,0.0,0.0,0.0,0.0,0.0,0.0,0.0,0.0,0.0,0.0,0.0,0.0,0.0,0.0,0.0,0.0,0.0,0.0,0.0,0.0,0.0,0.0,0.0,0.0,0.0,0.0,0.0,0.0,0.0,0.0,0.0,0.0,0.0,0.0,0.0,0.0,0.0,0.0,0.0,0.0,0.0,0.0,0.0,0.0,0.0,0.0,0.0,0.0,0.0,0.0,0.0,0.0,0.0,0.0,0.0,0.0,0.0,0.6343,0.6653,0.7044,0.7625,0.776,0.7893,0.8152,0.7902,0.7631,0.7359,0.0,0.0,0.0,0.0,0.0,0.0,0.0,0.0,0.0,0.0,0.0,0.0,0.0,0.0,0.0,0.0,0.0,0.0,0.0,0.0,0.0,0.0,0.0,0.0,0.0,0.0,0.0,0.0,0.0,0.0,0.0,0.0,0.0,0.0,0.0,0.0,0.0,0.0,0.0,0.0,0.0,0.0,0.0,0.0,0.0,0.0,0.0,0.0,0.0,0.0,0.0,0.0,0.0,0.0,0.0,0.0,0.0,0.0,0.0,0.0,0.0,0.0,0.0,0.0,0.0,0.0,0.0,0.0,0.0,0.0,0.0,0.0,0.0,0.0,0.0,0.0,0.0,0.0,0.0,0.0,0.0,0.0,0.0,0.0,0.0,0.0,0.0,0.0,0.0,0.0,0.0,0.0,0.0,0.0,0.0,0.0,0.0,0.0,0.0,0.0,0.0,0.0,0.6443,0.6583,0.6935,0.7702,0.7805,0.7907,0.8149,0.7979,0.7743,0.7497,0.0,0.0,0.0,0.0,0.0,0.0,0.0,0.0,0.0,0.0,0.0,0.0,0.0,0.0,0.0,0.0,0.0,0.0,0.0,0.0,0.0,0.0,0.0,0.0,0.0,0.0,0.0,0.0,0.0,0.0,0.0,0.0,0.0,0.0,0.0,0.0,0.0,0.0,0.0,0.0,0.0,0.0,0.0,0.0,0.0,0.0,0.0,0.0,0.0,0.0,0.0,0.0,0.0,0.0,0.0,0.0,0.0,0.0,0.0,0.0,0.0,0.0,0.0,0.0,0.0,0.0,0.0,0.0,0.0,0.0,0.0,0.0,0.0,0.0,0.0,0.0,0.0,0.0,0.0,0.0,0.0,0.0,0.0,0.0,0.0,0.0,0.0,0.0,0.0,0.0,0.0,0.0,0.0,0.0,0.0,0.0,0.0,0.0,0.0,0.0,0.0,0.0,0.6633,0.6801,0.7194,0.8041,0.8123,0.8174,0.831,0.7876,0.7611,0.7622,0.0,0.0,0.0,0.0,0.0,0.0,0.0,0.0,0.0,0.0,0.0,0.0,0.0,0.0,0.0,0.0,0.0,0.0,0.0,0.0,0.0,0.0,0.0,0.0,0.0,0.0,0.0,0.0,0.0,0.0,0.0,0.0,0.0,0.0,0.0,0.0,0.0,0.0,0.0,0.0,0.0,0.0,0.0,0.0,0.0,0.0,0.0,0.0,0.0,0.0,0.0,0.0,0.0,0.0,0.0,0.0,0.0,0.0,0.0,0.0,1.0181,0.0,0.0,0.0,0.0,0.0,0.0,0.0,0.0,0.0,0.0,0.0,0.0,0.0,0.0,0.0,0.0,0.0,0.0,0.0,0.0,0.0,0.0,0.0,0.0,0.0,0.0,0.0,0.0,0.0,0.0,0.0,0.0,0.0,0.0,0.0,0.0,0.0,0.0,0.0,0.0,0.0,0.6809,0.7199,0.7633,0.8206,0.8251,0.8337,0.8509,0.797,0.7632,0.7757,0.0,0.0,0.0,0.0,0.0,0.0,0.0,0.0,0.0,0.0,0.0,0.0,0.0,0.0,0.0,0.0,0.0,0.0,0.0,0.0,0.0,0.0,0.0,0.0,0.0,0.0,0.0,0.0,0.0,0.0,0.0,0.0,0.0,0.0,0.0,0.0,0.0,0.0,0.0,0.0,0.0,0.0,0.0,0.0,0.0,0.0,0.0,0.0,0.0,0.0,0.0,0.0,0.0,0.0,0.0,0.0,0.0,0.0,0.0,0.0,0.0,1.1163,0.0,0.0,0.0,0.0,0.0,0.0,0.0,0.0,0.0,0.0,0.0,0.0,0.0,0.0,0.0,0.0,0.0,0.0,0.0,0.0,0.0,0.0,0.0,0.0,0.0,0.0,0.0,0.0,0.0,0.0,0.0,0.0,0.0,0.0,0.0,0.0,0.0,0.0,0.0,0.0,0.7173,0.7437,0.7796,0.8341,0.8203,0.8216,0.8609,0.8086,0.7766,0.7833,0.6591,0.0,0.0,0.0,0.0,0.0,0.0,0.0,0.0,0.0,0.0,0.0,0.0,0.0,0.0,0.0,0.0,0.0,0.0,0.0,0.0,0.0,0.0,0.0,0.0,0.0,0.0,0.0,0.0,0.0,0.0,0.0,0.0,0.0,0.0,0.0,0.0,0.0,0.0,0.0,0.0,0.0,0.0,0.0,0.0,0.0,0.0,0.0,0.0,0.0,0.0,0.0,0.0,0.0,0.0,0.0,1.5638,1.607,1.6271,1.6145,1.3785,1.3375,1.4249,0.0,0.0,0.0,0.0,0.0,0.0,0.0,0.0,0.0,0.0,0.0,0.0,0.0,0.0,0.0,0.0,0.0,0.0,0.0,0.0,0.0,0.0,0.0,0.0,0.0,0.9805,0.9521,0.0,0.0,0.0,0.0,0.0,0.0,0.0,0.0,0.0,0.0,0.0,0.0,0.7659,0.7833,0.8122,0.8629,0.8323,0.8263,0.867,0.8284,0.7995,0.7912,0.7315,0.6684,0.0,0.0,0.0,0.0,0.0,0.0,0.0,0.0,0.0,0.0,0.0,0.0,0.0,0.0,0.0,0.0,0.0,0.0,0.0,0.0,0.0,0.0,0.0,0.0,0.0,0.0,0.0,0.0,0.0,0.0,0.0,0.0,1.2589,1.3718,0.0,0.0,0.0,0.0,0.0,0.0,0.0,0.0,0.0,0.0,0.0,0.0,0.0,0.0,1.6724,1.7332,1.7418,1.697,1.8404,1.8832,1.8456,1.8531,1.8556,1.8531,1.7702,0.0,1.5437,1.4733,0.0,0.0,0.0,0.0,0.0,0.0,0.0,0.0,0.0,0.0,0.0,0.0,0.0,0.0,0.0,0.0,0.0,0.0,0.0,0.0,0.0,0.0,1.1367,1.0982,1.091,1.0846,0.0,0.9545,0.8526,0.8442,0.0,0.0,0.0,0.0,0.0,0.0,0.0,0.0,0.8216,0.8814,0.9279,0.9364,0.9316,0.9126,0.8742,0.8622,0.8405,0.7936,0.7023,0.672,0.7253,0.5916,0.0,0.0,0.0,0.0,0.0,0.0,0.0,0.0,0.0,0.0,0.0,0.0,0.0,0.0,0.0,0.0,0.0,0.0,0.0,0.0,0.0,0.0,0.0,0.0,0.0,0.0,0.0,0.0,0.0,1.2957,1.45,1.4992,1.5374,1.5272,0.0,0.0,0.0,0.0,0.0,0.0,0.0,0.0,0.0,1.7628,1.8125,1.8419,1.8546,1.9188,1.9405,1.9258,1.9987,2.0338,2.0413,2.0413,2.0413,2.0388,2.0162,1.9459,1.8404,1.692,1.5492,1.4212,0.0,0.0,0.0,0.0,0.0,0.0,1.335,0.0,0.0,0.0,0.0,0.0,0.0,0.0,0.0,0.0,0.0,0.0,0.0,0.0,0.0,1.2672,1.2572,1.2406,1.2065,1.1198,1.0332,0.0,0.9337,0.889,0.818,0.0,0.0,0.0,0.0,0.0,0.863,0.9145,0.951,0.951,0.9222,0.9067,0.9139,0.8887,0.861,0.8357,0.7921,0.7604,0.7403,0.6782,0.6498,0.0,0.0,0.0,0.0,0.0,0.0,0.0,0.0,0.0,0.0,0.0,0.0,0.0,0.0,0.0,0.0,0.0,0.0,0.0,0.0,0.0,0.0,0.0,0.0,0.0,0.0,0.0,0.0,1.5161,1.6247,1.648,1.7066,1.7089,0.0,0.0,0.0,0.0,0.0,0.0,1.7617,1.8747,1.9593,2.0035,2.0974,2.1226,2.0674,2.1329,2.1635,2.1546,2.1697,2.1974,2.2347,2.2196,2.2046,2.1895,2.1769,2.1393,2.0742,1.8831,1.735,1.6296,1.5739,1.4915,0.0,1.4708,1.4928,1.5004,1.5407,1.5537,1.5462,1.5079,0.0,1.3699,1.2939,0.0,0.0,0.0,0.0,1.3544,1.4181,0.0,1.4019,1.4006,1.3888,1.3672,1.3228,1.2806,1.2162,0.0,1.0606,1.0202,0.9255,0.0,0.0,0.0,0.0,0.9097,0.9054,0.9326,0.951,0.951,0.9259,0.9176,0.927,0.9187,0.8983,0.8718,0.8573,0.8219,0.7588,0.7386,0.7194,0.6967,0.0,0.0,0.0,0.0,0.0,0.0,0.0,0.0,0.0,0.0,0.0,0.0,0.0,0.0,0.0,0.0,0.0,0.0,0.0,0.0,0.0,0.0,0.0,0.0,0.0,0.0,0.0,0.0,0.0,1.9074,1.9905,0.0,0.0,0.0,0.0,1.8465,1.9852,2.0901,2.121,2.2138,2.2952,2.3641,2.3818,2.3856,2.3771,2.4416,2.4456,2.3828,2.4356,2.46,2.46,2.4104,2.3577,2.2995,2.2468,2.197,2.1368,2.0162,1.9058,1.8028,1.7476,1.6873,1.64,1.6999,1.7247,1.7247,1.7272,1.7272,1.7272,1.7247,1.6471,1.5347,1.4169,1.3815,0.0,0.0,1.4615,1.4666,1.5326,1.5042,1.4573,1.4573,1.445,1.4347,1.4323,1.4239,1.3698,0.0,1.1399,1.1039,1.0975,0.0,0.0,1.025,1.0192,1.0039,0.9531,0.9497,0.951,0.951,0.9942,0.9812,0.8814,0.9644,0.9788,0.8766,0.8212,0.8033,0.8243,0.7281,0.6859,0.7074,0.6544,0.0,0.0,0.0,0.0,0.0,0.0,0.0,0.0,0.0,0.0,0.0,0.0,0.0,0.0,0.0,0.0,0.0,0.0,0.0,0.0,0.0,0.0,0.0,0.0,0.0,0.0,0.0,0.0,2.1901,2.2277,0.0,2.1445,2.1591,2.1624,2.1398,2.2692,2.3554,2.3616,2.5127,2.5917,2.5777,2.5772,2.5561,2.5157,2.4968,2.476,2.4531,2.47,2.48,2.4775,2.4575,2.4406,2.4173,2.3973,2.3797,2.3552,2.2393,2.1091,1.9786,1.9585,1.9133,1.8606,1.848,1.8431,1.8381,1.8028,1.7903,1.7903,1.7903,1.7626,1.725,1.6779,1.6679,1.6654,1.6525,1.6454,1.6361,1.6207,1.6011,1.572,1.533,1.5215,1.5056,1.4632,1.4459,1.4186,1.3629,1.2751,1.2017,1.168,1.1327,1.1039,1.0846,1.0822,1.075,1.0543,1.0231,1.0015,1.0015,0.987,0.963,0.9246,0.9558,0.9475,0.8742,0.8525,0.8195,0.7673,0.736,0.7151,0.6984,0.6541,0.6194,0.0,0.0,0.0,0.0,0.0,0.0,0.0,0.0,0.0,0.0,0.0,0.0,0.0,0.0,0.0,0.0,0.0,0.0,0.0,0.0,0.0,0.0,0.0,0.0,0.0,0.0,2.2572,2.4015,2.4395,2.4446,2.4217,2.4347,2.4511,2.4602,2.5396,2.5923,2.61,2.7345,2.7847,2.7456,2.759,2.727,2.6405,2.6173,2.5825,2.5385,2.5385,2.5385,2.536,2.5184,2.5084,2.5084,2.4876,2.48,2.4725,2.3973,2.305,2.2024,2.127,2.0742,2.0338,1.9961,1.9835,1.9786,1.9233,1.9032,1.8982,1.8581,1.8456,1.8455,1.8254,1.8204,1.8129,1.7752,1.7652,1.7576,1.72,1.6948,1.6701,1.6282,1.6036,1.577,1.5294,1.4931,1.4663,1.4663,1.3755,1.2878,1.2499,1.1993,1.1632,1.1632,1.1487,1.1375,1.1375,1.0894,1.051,1.0317,1.0135,0.9894,0.9534,0.9678,0.9534,0.8994,0.8876,0.8543,0.7953,0.7904,0.7699,0.7274,0.6811,0.6567,0.6567,0.0,0.0,0.0,0.0,0.0,0.0,0.0,0.0,0.0,0.0,0.0,0.0,0.0,0.0,0.0,0.0,0.0,0.0,0.0,0.0,0.0,0.0,0.0,2.1784,2.2403,2.3528,2.5408,2.6255,2.6618,2.6426,2.6937,2.7479,2.7993,2.7862,2.8071,2.8709,2.8767,2.8796,2.8796,2.9349,2.9047,2.7732,2.8275,2.7888,2.6584,2.6584,2.6584,2.6499,2.5912,2.5636,2.5586,2.5084,2.485,2.485,2.4825,2.48,2.46,2.2422,2.1568,2.1568,2.1518,2.1493,2.1446,2.0918,2.0717,2.0541,1.9459,1.9083,1.8958,1.8455,1.8279,1.8254,1.8229,1.8229,1.8229,1.8204,1.7802,1.7423,1.7398,1.6904,1.6439,1.6392,1.5779,1.5222,1.5243,1.4312,1.3529,1.3505,1.3071,1.2733,1.2709,1.2258,0.0,1.1921,1.1463,1.0918,1.0437,1.0822,1.0678,0.9654,1.0015,1.0063,0.9534,0.9182,0.9041,0.9156,0.8861,0.8491,0.805,0.7445,0.7139,0.7166,0.0,0.0,0.0,0.0,0.0,0.0,0.0,0.0,0.0,0.0,0.0,0.0,0.0,0.0,0.0,0.0,0.0,0.0,0.0,0.0,0.0,0.0,2.3251,2.3738,2.5196,2.6806,2.8282,2.8667,2.8704,2.8571,2.8693,2.8764,2.8668,2.9052,2.9289,2.9348,3.0248,3.0742,3.0742,3.0885,3.0813,3.0429,3.0041,2.9415,2.8507,2.8507,2.802,2.7077,2.6927,2.6625,2.6248,2.6097,2.6047,2.6021,2.5561,2.5385,2.5234,2.3853,2.3301,2.3201,2.2372,2.182,2.1496,2.1345,2.1295,2.1245,2.0916,2.0539,2.0214,2.0063,1.9711,1.9284,1.8882,1.8782,1.8682,1.8304,1.8078,1.7877,1.7498,1.725,1.7002,1.6579,1.616,1.5933,1.604,1.5288,1.4381,1.3626,1.3385,1.3143,1.2758,0.0,0.0,1.2475,1.2017,1.1776,1.2017,1.1487,1.1135,1.1231,1.0654,1.0063,0.0,0.9182,0.8877,0.8629,0.8662,0.8678,0.8644,0.8068,0.796,0.0,0.0,0.0,0.0,0.0,0.0,0.0,0.0,0.0,0.0,0.0,0.0,0.0,0.0,0.0,0.0,0.0,0.0,0.0,0.0,0.0,0.0,2.3759,2.5285,2.6542,2.744,2.8513,2.9804,3.0223,3.0464,3.0677,3.0918,3.0952,3.0778,3.0954,3.1069,3.0949,3.1556,3.1901,3.1901,3.1926,3.1772,3.1509,3.1082,3.0337,2.9293,2.9293,2.8711,2.762,2.762,2.7318,0.0,2.6851,2.67,2.6474,2.6122,2.5996,0.0,0.0,0.0,0.0,0.0,2.2447,2.2146,2.192,2.1845,2.1794,2.1568,2.1295,2.1043,2.1043,2.0641,2.0112,1.9786,1.9535,1.9259,1.8957,1.8706,1.848,1.8154,1.7727,1.7297,1.6948,1.6567,1.6306,1.6371,0.0,0.0,1.4444,1.4046,1.3722,1.3409,1.3192,1.3047,0.0,1.2565,1.2258,1.2354,1.1801,1.1375,1.1231,1.0967,0.0,0.0,0.0,0.9774,0.9376,0.9233,0.0,0.0,0.0,0.0,0.0,0.0,0.0,0.0,0.7226,0.7055,0.0,0.0,0.0,0.0,0.0,0.0,0.0,0.0,0.0,0.0,0.0,0.0,0.0,0.0,0.0,0.0,2.6123,2.7679,2.9535,2.9415,2.9535,3.0612,3.1301,3.1959,3.2557,3.3034,3.3299,3.3299,3.3018,3.2859,3.2798,0.0,0.0,0.0,0.0,3.2425,3.1839,3.1806,3.1108,2.9724,2.9724,2.9236,2.8344,2.8344,2.7968,2.7369,2.7354,2.7027,2.6575,2.6524,2.6499,2.6399,2.531,2.4582,2.4029,2.3421,2.3195,0.0,0.0,0.0,0.0,2.1845,2.1619,2.1568,2.1568,2.1219,2.0767,2.0717,2.0314,1.9886,1.9811,1.9459,1.9083,1.9008,1.8279,1.7549,1.7423,1.6907,1.6467,1.6439,1.6197,1.592,1.5561,1.4878,1.4349,1.4321,1.3862,0.0,1.3505,1.3023,1.2523,1.2114,0.0,0.0,1.0771,1.1206,1.1065,1.0103,1.0768,1.1069,1.0815,1.0153,1.0071,1.0679,1.0098,0.9828,0.9909,0.9909,0.96,0.8995,0.8941,0.8627,0.0,0.0,0.0,0.0,0.0,0.0,0.0,0.0,0.0,0.0,0.0,0.0,0.0,0.0,0.0,2.6716,2.8547,3.0073,3.1002,3.1958,3.2437,3.2168,3.2706,3.3155,3.3305,3.3394,3.3422,3.3299,3.3237,3.3143,3.2989,3.3299,0.0,3.3495,3.3827,3.3984,3.3821,3.3821,3.3351,3.2458,0.0,0.0,2.971,2.971,2.9072,2.7921,2.7469,2.7218,2.7128,2.6675,2.6499,2.6424,2.5711,2.5134,2.4575,2.4029,2.3828,2.3753,2.3145,2.2945,2.292,2.2819,2.2493,2.2146,2.2146,2.1769,0.0,2.0817,2.0616,2.0415,1.9936,1.9736,1.9535,1.9108,1.8832,1.8431,1.7599,1.7207,1.6916,1.6554,1.6306,1.6173,1.6203,1.5459,1.4742,1.4429,1.3881,1.3505,1.3505,1.3023,1.283,1.3168,1.2788,1.2707,1.318,1.2118,1.143,1.142,1.0899,1.083,1.1384,1.0381,1.0071,1.0679,1.0098,1.0044,1.0544,1.0544,1.0207,0.9611,0.913,0.8833,0.0,0.0,0.0,0.0,0.0,0.0,0.0,0.0,0.0,0.0,0.0,2.314,2.4829,0.0,2.7649,2.9295,3.0642,3.1749,3.2407,3.3365,3.3754,3.3095,3.3574,3.3993,3.3993,3.4292,3.447,3.4407,3.4312,3.4216,3.4122,3.4224,3.4299,3.42,3.4422,3.4496,3.4399,3.4399,3.3997,3.3178,3.3178,3.2447,3.1099,3.1099,3.0372,2.9061,2.8841,2.8344,2.778,2.7216,2.6816,2.6483,2.6552,2.5993,2.5134,2.4607,2.4406,2.433,2.3753,2.3547,2.3496,2.3195,2.292,2.2694,2.2694,2.2347,2.1845,2.1568,2.1119,2.0616,2.0339,2.0012,1.9736,1.9459,1.9183,1.8857,1.8329,1.7754,1.723,1.6999,1.6592,1.6328,1.6436,1.5976,1.5441,1.4963,1.4347,1.3871,1.3685,1.3101,1.2877,1.3299,1.3067,1.3007,1.3284,1.2106,1.1593,1.2111,1.1136,1.0743,1.1113,1.0571,1.0381,1.0679,1.0408,1.0408,1.0706,1.0706,1.0544,1.0234,0.9936,0.9627,0.0,0.0,0.0,0.0,0.0,0.0,0.0,0.0,2.2243,2.4328,2.5196,2.6129,2.8008,2.9352,3.0522,3.169,3.2437,3.3095,3.3604,3.4262,3.4472,3.3933,3.4352,3.4713,3.4713,3.519,3.5519,3.5519,3.5359,3.5261,3.5261,3.5067,3.4902,3.4798,3.4765,3.4664,3.4462,3.4462,3.4099,3.3451,3.3451,3.3038,3.229,3.229,3.1649,3.0497,3.0365,2.9733,2.867,2.8125,2.7553,2.7139,2.7523,2.7051,2.6059,2.542,2.5055,2.4883,2.4488,2.4204,2.396,2.3604,2.3316,2.3095,2.3095,2.2794,2.2418,2.2347,2.1669,2.0995,2.0876,2.0418,1.9962,1.9965,1.956,1.9158,1.9156,1.8401,1.7672,1.7558,1.7087,1.669,1.6654,1.6565,1.6328,1.5799,1.515,1.4562,1.4212,1.3573,1.3194,1.3344,1.3293,1.3141,1.2812,1.2166,1.2018,1.2658,1.156,1.0935,1.1031,1.0839,1.0743,1.073,1.0743,1.0743,1.073,1.0718,1.0706,1.0706,1.0706,1.0435,2.2134,2.1754,2.1724,2.2802,2.2742,2.3392,0.0,0.0,2.5794,2.8368,2.8992,2.9445,3.0793,3.166,3.2437,3.3155,3.3814,3.4324,3.4384,3.4951,3.537,3.528,3.534,3.54,3.54,3.5459,3.5519,3.5519,3.5457,3.5457,3.5457,3.5294,3.5162,3.5162,3.4968,3.4802,3.4664,3.4664,3.453,3.4264,3.4264,3.3859,3.3073,3.3073,3.2656,3.1857,3.1387,3.0791,3.014,2.9544,2.9233,2.9113,2.8579,2.8303,2.804,2.6901,2.6077,2.5534,2.5561,2.4915,2.4072,2.4615,2.4043,2.3095,2.3095,2.307,2.292,2.2418,2.2221,2.2009,2.1455,2.0962,2.0571,2.05,2.0118,1.9712,1.9696,1.9249,1.865,1.813,1.7917,1.767,1.7193,1.738,1.7435,1.6881,1.6248,1.5723,1.5515,1.5007,1.447,1.3957,1.3838,1.3644,1.316,1.3314,1.342,1.3386,1.2184,1.1749,1.2264,1.139,1.0863,1.0803,1.0863,1.0863,1.0803,1.0743,1.0706,1.0706,1.0706,1.0652,2.4388,2.4178,2.4118,2.4627,2.5136,2.6087,2.8128,2.8248,2.8577,3.0821,3.13,3.1569,3.2497,3.3215,3.3754,0.0,3.4622,3.507,3.507,3.4981,3.4921,3.4921,3.4921,3.507,3.5459,3.5519,3.5519,3.5519,3.5519,3.5519,3.5519,3.5783,3.5892,3.5792,3.6081,3.5946,3.5394,3.5394,3.515,3.4702,3.4631,3.4399,3.4065,3.3962,3.3485,3.2727,3.2118,3.1495,3.091,3.0742,3.0207,2.9514,2.9633,2.9206,2.8432,2.7932,2.7561,2.7255,2.6992,2.6332,2.5573,2.5542,2.4902,2.4099,2.3794,2.393,2.4082,2.3525,2.3074,2.2855,2.2936,2.2062,2.1172,2.1502,2.1158,2.0716,2.0721,2.0308,1.9866,1.9615,1.8972,1.8387,1.8168,1.7949,1.7828,1.7888,1.7096,1.6505,1.6448,1.556,1.4711,1.4268,1.4353,1.4339,1.4139,1.3929,1.3778,1.3734,1.2872,1.2484,1.2775,1.2316,1.1912,1.1562,1.1587,1.1392,1.0982,1.0922,1.0899,1.0946,1.0863,1.0827,2.5644,2.5884,2.6243,2.6602,2.756,2.8607,2.9475,3.0043,3.0851,3.2467,3.2796,3.2916,3.3395,3.4023,3.4503,3.4503,3.507,3.5519,3.5519,3.4921,3.4503,3.4503,3.4354,3.4472,3.516,3.54,3.5519,3.5519,3.5519,3.5579,3.5759,3.6237,3.6533,3.6514,3.6994,3.6921,3.6276,3.6276,3.6005,3.5465,3.5154,3.5028,3.5028,3.4689,3.4201,3.3665,3.3209,3.2738,3.227,3.2155,3.1547,3.0675,3.0793,3.021,2.9315,2.918,2.8876,2.847,2.8287,2.7696,2.6955,2.6739,2.5986,2.5101,2.4707,2.4786,2.4908,2.4452,2.4019,2.3789,2.4205,2.3232,2.2219,2.2485,2.2073,2.1645,2.1626,2.1199,2.0825,2.0795,2.0075,1.936,1.903,1.8679,1.8508,1.8625,1.8019,1.7448,1.7347,1.6133,1.5164,1.4902,1.4908,1.4917,1.4842,1.4447,1.4193,1.4164,1.3558,1.3193,1.3234,1.3079,1.2797,1.2385,1.2382,1.2171,1.1666,1.1593,1.158,1.1629,1.1531,1.1494,2.5794,2.6542,2.7854,2.9142,2.9953,3.0761,3.2078,3.2407,3.2617,3.3335,3.3455,3.3484,3.3484,3.4023,3.4503,3.4503,3.507,3.5519,3.5519,3.4921,3.4503,3.4503,3.3903,3.3784,0.0,3.513,3.5519,3.5519,3.5519,3.5789,3.6417,3.6477,3.6776,3.7375,3.7404,3.7302,3.7164,3.7164,3.703,3.6827,3.6173,3.5878,3.5849,3.5167,3.4868,3.4868,3.4839,3.4806,3.4747,3.397,3.3612,3.3433,3.2238,3.1618,3.1348,3.089,2.978,2.8588,2.9314,2.8709,2.7752,2.8396,2.7379,2.5862,2.5862,2.5454,2.5021,2.4992,2.4965,2.4941,2.4907,2.4446,2.385,2.323,2.2649,2.2262,2.2193,2.1766,2.1356,2.1282,2.1209,2.0771,1.9585,1.9732,1.9817,1.9169,1.9035,1.8832,1.8252,1.7007,1.6118,1.6067,1.5583,1.5208,1.4998,1.4983,1.4937,1.4873,1.4235,1.3867,1.3867,1.3429,1.3155,1.3073,1.3126,1.3126,1.3044,1.2977,1.2937,1.2937,1.2937,1.2937,2.7829,2.8603,2.9352,3.1091,3.1689,3.2198,3.3514,3.3484,3.3335,3.4054,3.3455,3.2856,3.2856,3.3036,3.3305,3.3754,3.4382,3.4981,3.5429,3.4921,3.4354,3.3873,3.4054,0.0,0.0,0.0,0.0,3.5459,3.5908,3.6237,3.6477,3.7285,3.7853,3.8063,3.8512,3.8476,3.7993,3.7993,3.7749,3.7233,3.6921,3.6458,3.5878,3.5672,3.5314,3.4902,3.4902,3.4902,3.4872,3.4633,3.4247,3.3868,3.3427,3.2689,3.1805,3.166,3.1007,3.0237,3.0237,2.9697,2.9013,2.9224,2.856,2.7551,2.6746,2.6638,2.6635,2.5827,2.5605,2.5687,2.6054,2.542,2.4654,2.4851,2.4108,2.3355,2.3344,2.2855,2.2392,2.2374,2.2023,2.1592,2.1183,2.0558,1.9885,1.9188,1.9101,1.8898,1.8288,1.7824,1.7168,1.6266,1.5993,1.5703,1.5237,1.5208,1.5193,1.5162,1.4901,1.4771,1.4816,1.4644,1.4342,1.3895,1.3923,1.3721,1.3288,1.3221,1.3221,1.3248,1.3168,1.3128,2.9325,3.0103,3.0761,3.2736,3.3215,3.3425,3.4324,3.4174,3.3754,3.3484,3.2557,3.1719,3.1509,3.127,3.1569,3.2916,3.3694,3.4532,3.5699,3.528,3.4681,3.4262,3.4352,3.4324,0.0,0.0,0.0,3.5459,3.6118,3.6567,3.6806,3.7823,3.8512,3.8751,3.92,3.92,3.8751,3.8751,3.8422,3.7764,3.766,3.7228,3.6437,3.62,3.5904,3.5455,3.5218,3.51,3.51,3.5034,3.4797,3.4383,3.4147,3.3524,3.2666,3.2254,3.1811,3.1368,3.0924,3.0507,3.0119,3.0133,2.9666,2.8909,2.814,2.7822,2.7527,2.6741,2.6403,2.6313,2.6686,2.6184,2.5628,2.576,2.4994,2.4152,2.3949,2.3374,2.2888,2.2888,2.2591,2.2265,2.2033,2.093,1.9943,1.9508,1.9246,1.8956,1.8579,1.8346,1.7882,1.7011,1.6488,1.6037,1.566,1.5428,1.5283,1.5283,1.5253,1.5253,1.5283,1.5253,1.5036,1.4674,1.4645,1.4456,1.4064,1.4022,1.4022,1.4093,1.3981,1.3939,3.0313,3.1122,3.2108,3.4053,3.4563,3.4563,3.4503,3.4444,3.3814,3.1839,3.0853,3.0163,2.9562,2.8966,2.9445,3.1988,3.3036,3.4203,3.6207,3.5938,3.5549,0.0,0.0,0.0,0.0,0.0,0.0,3.5609,0.0,3.6806,3.7434,3.8093,3.8751,3.9409,3.9373,3.9373,3.9373,3.9373,3.908,3.8452,3.8452,3.8093,3.7434,3.6806,3.6507,3.6447,3.5789,3.5519,3.5519,3.5294,3.5228,3.5169,3.4486,3.4184,3.3878,3.2821,3.2227,3.1928,3.1368,3.1132,3.1102,3.1102,3.0573,2.9958,2.9899,2.8938,2.781,2.7752,2.7287,2.6849,2.682,2.682,2.6646,2.6006,2.5342,2.4679,2.4065,2.3403,2.2946,2.2917,2.2888,2.2707,2.2091,2.0988,2.0175,2.0117,1.9566,1.913,1.9101,1.8608,1.823,1.8201,1.7052,1.6285,1.624,1.5689,1.5341,1.5341,1.5312,1.5283,1.5283,1.5283,1.5283,1.5283,1.5283,1.5283,1.5283,1.5283,1.5283,1.5283,1.5283,1.5298,3.2228,3.3215,3.3963,3.4981,3.525,3.51,3.4623,3.3724,3.2587,3.1091,2.9475,2.8154,2.7495,2.8038,2.9146,3.0761,3.2407,0.0,3.6207,3.6327,0.0,3.6237,0.0,3.6477,3.6028,3.6537,0.0,0.0,3.7075,3.7464,3.8093,3.8781,3.923,3.9373,3.9373,3.9373,3.9373,3.9373,3.932,3.917,3.917,3.8781,3.8123,3.7464,3.6926,3.6447,3.5789,3.5519,3.5519,3.5424,3.5424,3.5424,3.5245,3.4825,3.4347,3.405,3.3273,3.2348,3.2199,3.1694,3.1102,3.1102,3.0955,3.0719,3.0189,2.9778,2.9281,2.8232,2.7825,2.7564,2.6963,2.682,2.6762,2.6588,2.601,2.5371,2.4708,2.407,2.3514,2.3004,2.2888,2.2707,2.2091,2.1714,2.1191,2.0233,1.9943,1.9653,1.9159,1.8956,1.8695,1.8259,1.7882,1.7505,1.6982,1.6343,1.595,1.595,1.5544,1.5283,1.5283,1.5283,1.5283,1.5283,1.5283,1.5283,1.5283,1.5283,1.5283,1.5283,1.5283,1.5373,3.3544,3.4412,3.5011,3.54,3.528,3.4711,3.3455,3.2377,3.1091,2.9175,2.7679,2.6512,2.5854,2.6363,2.7445,0.0,0.0,0.0,3.6118,3.6716,3.6985,0.0,3.7614,0.0,3.6956,3.7464,3.7853,0.0,3.7853,3.8003,3.8362,3.905,3.9373,3.9373,3.9373,3.9373,3.9373,3.9373,3.9373,3.9373,3.9373,3.92,3.8811,3.8153,3.7494,3.6866,0.0,3.5759,3.5519,3.5519,3.5519,3.5519,3.5519,3.528,3.4891,3.4623,3.3993,3.3275,3.2706,3.2169,3.1664,3.1367,3.1249,3.1131,3.0717,3.0392,2.9951,2.916,2.8515,2.7959,2.7527,2.7208,2.6948,2.6899,2.6374,2.5766,2.5313,2.453,2.3688,2.3026,2.2888,2.2772,2.2446,2.2178,2.1743,2.1046,2.0465,1.9972,1.9595,1.9275,1.8956,1.8637,1.8375,1.8056,1.7679,1.704,1.6634,1.6634,1.6037,1.5689,1.5689,1.5428,1.5283,1.5283,1.5283,1.5283,1.5283,1.5283,1.5343,1.5433,1.5433,1.5492,3.4474,3.504,3.5519,3.5519,3.4921,3.3844,3.1929,3.0763,2.9385,2.6841,2.5734,2.5046,2.4455,2.4485,2.5501,2.8278,0.0,3.2676,3.6118,3.7075,3.7674,3.8452,3.8512,3.8302,3.7734,3.8182,3.8512,3.8512,3.8512,3.8512,3.8512,3.908,3.9373,3.9373,3.9373,3.9373,3.9373,3.9373,3.9373,3.9373,3.9373,3.9373,3.9409,3.8721,3.8033,3.7375,0.0,0.0,3.5519,3.5519,3.5519,3.5519,3.5519,3.5519,3.5429,3.4863,3.4593,3.4354,3.3185,3.2647,3.2378,3.172,3.1424,3.1307,3.1307,3.0834,3.0274,3.0157,2.933,2.8441,2.8237,2.7764,2.7299,2.7085,2.659,2.6096,2.5908,2.4898,2.3856,2.3171,2.3033,2.3004,2.2917,2.2475,2.2091,2.2004,2.1046,2.0291,2.0117,1.9508,1.9101,1.9101,1.8637,1.8317,1.8317,1.7708,1.733,1.733,1.6721,1.6327,1.6327,1.5834,1.5515,1.5428,1.5428,1.537,1.5283,1.5283,1.5388,1.558,1.5595,1.5639,3.513,3.54,3.5519,3.5519,3.4592,3.3275,3.1839,2.9744,2.75,2.5382,2.4029,2.3182,2.3062,2.3909,2.5651,2.8876,3.0584,3.2826,3.6716,3.7345,3.7853,0.0,3.923,3.92,3.908,3.917,0.0,0.0,0.0,0.0,3.923,3.9349,3.9373,3.9373,3.9373,3.9373,3.9373,3.9373,3.9373,3.9373,3.9373,3.9373,3.9409,3.8721,3.8033,3.7375,0.0,0.0,3.5519,3.5519,3.5519,3.5519,3.5519,3.5519,3.5489,3.537,3.4981,3.4474,3.4234,3.3425,3.2378,3.172,3.1482,3.1482,3.1482,3.1363,3.1126,3.0476,3.0121,2.9678,2.85,2.8119,2.7856,2.7299,2.7067,2.6832,2.6251,2.5497,2.4668,2.3885,2.3717,2.3572,2.3004,2.2801,2.2562,2.2091,2.1801,2.1278,2.0233,1.9508,1.9101,1.9101,1.9014,1.8956,1.8956,1.8375,1.8027,1.8027,1.7417,1.704,1.704,1.6924,1.6605,1.6037,1.6037,1.5821,1.5283,1.5283,1.5327,1.5343,1.5536,1.5711,3.531,3.5519,3.5429,3.507,3.3963,3.2467,3.0434,2.8218,2.6004,2.4029,2.2832,2.2194,2.2194,2.3221,2.4724,2.6692,2.8397,3.0731,3.4352,3.5459,3.6626,3.8631,3.92,3.9373,0.0,3.9373,0.0,0.0,0.0,0.0,3.9373,3.9373,3.9373,3.9373,3.9373,3.9373,3.9373,3.9373,3.9373,3.9373,3.9373,3.9373,3.9373,3.908,3.8362,3.7404,0.0,0.0,3.5519,3.5519,3.5519,3.5519,3.5519,3.5519,3.5519,3.5519,3.531,3.4951,3.4623,3.4084,3.3365,3.2348,3.178,3.1511,3.1511,3.1511,3.1422,3.1036,3.0678,3.0261,2.958,2.8898,2.8304,2.7928,2.7495,2.703,2.6356,2.5923,2.5463,2.4644,2.4241,2.3874,2.3484,2.3142,2.2801,2.2504,2.2207,2.1772,2.1162,2.0494,1.9827,1.9159,1.9101,1.9101,1.9101,1.884,1.8666,1.8666,1.8085,1.7737,1.7737,1.7388,1.704,1.6721,1.6721,1.6576,1.6285,1.6428,1.6476,1.646,1.6711,1.691,3.513,3.54,3.534,3.4683,3.3395,3.163,2.9175,2.6811,2.4657,2.2853,2.1834,2.1306,2.1455,2.2293,2.34,2.4605,2.6243,2.8633,3.2228,3.3873,3.5609,3.8093,3.899,0.0,3.9373,3.9373,0.0,0.0,0.0,0.0,0.0,3.9373,3.9373,3.9373,3.9373,3.9373,3.9373,3.9373,3.9373,3.9373,3.9373,3.9373,3.9373,3.9373,3.8751,3.7614,0.0,0.0,0.0,3.5579,3.5519,3.5519,3.5519,3.5519,3.5519,3.5519,3.5519,3.5429,3.4891,3.4623,3.4324,3.3095,3.2258,3.169,3.154,3.1511,3.1511,3.1511,3.1122,3.0702,3.0552,2.9774,2.891,2.8535,2.7836,2.7136,2.6583,2.644,2.6238,2.5463,2.491,2.4423,2.4066,2.3554,2.3152,2.3007,2.2571,2.2193,2.2047,2.1561,2.0785,1.9624,1.9391,1.9246,1.9101,1.9101,1.9101,1.9101,1.8666,1.8404,1.8404,1.7882,1.7563,1.7417,1.7417,1.7376,1.7298,1.7436,1.7552,1.765,1.7892,1.8035,3.4593,3.504,3.534,3.4683,3.3036,3.1062,2.9056,2.6093,2.34,2.2054,2.0767,2.0067,2.0677,2.0868,2.1944,2.4993,2.6183,2.8248,3.2766,3.4562,3.6148,3.8153,0.0,0.0,3.9373,0.0,0.0,0.0,0.0,0.0,0.0,3.9373,3.9373,3.9373,3.9373,3.9373,3.9373,3.9373,3.9373,3.9373,3.9373,3.9373,3.9373,3.9373,3.902,3.8272,0.0,0.0,0.0,3.5759,3.5519,3.5519,3.5519,3.5519,3.5519,3.5519,3.5519,3.5489,3.5429,3.5011,3.4384,3.3634,3.2946,3.2288,3.169,3.1511,3.1511,3.1511,3.1451,3.1271,3.0672,3.0402,3.0043,2.885,2.8068,2.7509,2.7327,2.7272,2.7069,2.6238,2.6066,2.5653,2.4446,2.421,2.3975,2.3356,2.3098,2.2776,2.2264,2.201,2.1627,2.0901,2.0349,1.9769,1.9159,1.9101,1.9101,1.9101,1.9043,1.9014,1.9014,1.8956,1.8666,1.8114,1.8114,1.7917,1.7552,1.7336,1.7519,1.8051,1.8019,1.8145,3.4294,3.4981,3.525,3.4173,3.2706,3.0883,2.8517,2.5704,2.3251,2.1964,2.0636,1.9899,2.0569,2.0688,2.1376,2.349,2.4081,2.5458,2.8846,3.0492,3.2527,3.5701,3.6985,0.0,0.0,0.0,0.0,0.0,0.0,0.0,0.0,3.9373,3.9373,3.9373,3.9373,3.9373,3.9373,3.9373,3.9373,3.9373,3.9373,3.9373,3.9373,3.9373,3.905,3.8362,0.0,0.0,0.0,3.5789,3.5519,3.5519,3.5519,3.5519,3.5519,3.5519,3.5519,3.5519,3.5519,3.534,3.4981,3.4292,3.3634,3.2916,3.1839,3.1511,3.1511,3.1511,3.1511,3.1451,3.1152,3.0821,3.0193,2.8906,2.8397,2.8068,2.7629,2.7539,2.7399,2.7009,2.6599,2.613,2.553,2.4793,2.4227,2.3961,2.3533,2.3135,2.2892,2.2819,2.2512,2.1867,2.1099,2.0378,1.9769,1.9711,1.9537,1.913,1.9101,1.9101,1.9101,1.9101,1.8985,1.8753,1.8753,1.8662,1.8508,1.8755,1.8912,1.8951,1.929,1.9489,3.3305,3.4233,3.4622,3.3484,3.2198,3.0554,2.8154,2.5548,2.3251,2.1964,2.0636,1.9839,2.0318,2.0569,2.1047,2.2224,2.2733,2.3901,2.6537,2.8038,3.0133,3.3484,0.0,0.0,0.0,0.0,0.0,0.0,0.0,0.0,0.0,0.0,3.9373,3.9373,3.9373,3.9373,3.9373,3.9373,3.9373,3.9373,3.9373,3.9373,3.9373,3.9373,3.914,0.0,0.0,0.0,0.0,3.5848,3.5519,3.5519,3.5519,3.5519,3.5519,3.5519,3.5519,3.5519,3.5519,3.5519,3.54,3.4743,3.4204,3.3544,3.2198,3.166,3.1511,3.1511,3.1511,3.1511,3.1511,3.1002,3.0283,2.9385,2.8876,2.8457,2.8004,2.7735,2.756,2.7488,2.7076,2.6664,2.6362,2.5562,2.4851,2.4466,2.397,2.3585,2.3378,2.3304,2.3135,2.2641,2.2043,2.1374,2.0556,2.0478,2.0186,1.9459,1.9429,1.9342,1.9157,1.912,1.912,1.9157,1.912,1.9139,1.9232,1.9636,1.9815,1.9767,2.0241,2.0496,3.1361,3.2527,3.3365,3.2677,3.1509,3.0013,2.8034,2.5548,2.3251,2.1964,2.0636,1.9708,1.9708,2.0258,2.0927,2.1605,2.2772,2.453,2.7195,2.8753,3.0313,0.0,0.0,0.0,0.0,0.0,0.0,0.0,0.0,0.0,0.0,0.0,3.9373,3.9373,3.9373,3.9373,3.9373,3.9373,3.9373,3.9373,3.9373,3.9373,3.9373,3.9373,0.0,0.0,0.0,0.0,0.0,3.6028,3.5519,3.5519,3.5519,3.5519,3.5519,3.5519,3.5519,3.5519,3.5519,3.5519,3.54,3.4743,3.4503,3.4264,3.2916,3.2019,3.1511,3.1511,3.1511,3.1511,3.1511,3.1002,3.0492,3.0492,2.9535,2.8607,2.8577,2.8094,2.7585,2.7585,2.7585,2.7375,2.6692,2.6572,2.6123,2.4814,2.4514,2.426,2.3577,2.34,2.3282,2.3282,2.3282,2.2751,2.1473,2.1385,2.1029,2.0245,2.0196,1.9923,1.9317,1.9157,1.9157,1.9288,1.9157,1.9232,1.9479,1.9497,1.9803,2.0378,2.053,2.0763,2.9475,3.0462,3.118,3.0103,2.9175,2.8124,2.6572,2.4537,2.2733,2.1874,2.0636,1.9708,1.9708,1.9869,2.0677,2.2682,2.334,2.4358,2.6596,2.8483,0.0,3.163,3.4981,0.0,0.0,0.0,0.0,0.0,0.0,0.0,0.0,0.0,3.9373,3.9373,3.9373,3.9373,3.9373,3.9373,3.9373,3.9373,3.9373,3.9373,3.9373,3.9373,0.0,0.0,0.0,0.0,0.0,3.6028,3.5519,3.5519,3.5519,3.5519,3.5519,3.5519,3.5519,3.5519,3.5519,3.5519,3.5459,3.525,3.4861,3.4354,3.3455,3.2736,3.2079,3.163,3.1511,3.1511,3.1511,3.1331,3.1062,3.0612,2.9864,2.9146,2.8697,2.8068,2.7585,2.7585,2.7585,2.7525,2.7315,2.6896,2.6452,2.6033,2.5538,2.5007,2.4321,2.4186,2.4008,2.3531,2.3501,2.3079,2.2102,2.2043,2.1727,2.1059,2.1029,2.0823,2.0415,2.0337,2.0127,1.9702,1.9932,1.9949,1.9773,2.0227,2.0647,2.1023,2.1071,2.1135,2.756,2.8607,2.9205,2.8397,2.7735,2.6896,2.5525,2.3909,2.2433,2.1515,2.0438,1.9708,1.9708,1.9899,2.0677,2.2562,2.3101,2.4029,2.6273,2.8098,0.0,3.2377,0.0,0.0,0.0,0.0,0.0,0.0,0.0,0.0,0.0,0.0,3.9373,3.9373,3.9373,3.9373,3.9373,3.9373,3.9373,3.9373,3.9373,3.9373,3.9373,0.0,0.0,0.0,0.0,0.0,0.0,3.6297,3.5729,3.5519,3.5519,3.5519,3.5519,3.5519,3.5519,3.5519,3.5519,3.5519,3.5519,3.5519,3.504,3.4384,3.3694,3.2856,3.2019,3.163,3.1511,3.1511,3.1511,3.1511,3.1391,3.0972,3.0402,2.9744,2.9116,2.8427,2.7914,2.7645,2.7585,2.7585,2.7585,2.7255,2.6896,2.6632,2.6243,2.5734,2.5053,2.4754,2.4455,2.4007,2.3759,2.3366,2.285,2.2799,2.2532,2.186,2.183,2.1605,2.1162,2.1235,2.1135,2.0764,2.1122,2.1161,2.0931,2.1184,2.1616,2.2216,2.1875,2.1923,0.0,2.6746,2.7225,2.7195,2.6716,2.5914,2.4664,2.343,0.0,2.0957,2.0168,1.9738,1.9828,2.0318,2.0987,2.1844,2.2493,2.3811,2.6363,2.8008,0.0,0.0,0.0,0.0,0.0,0.0,0.0,0.0,0.0,0.0,0.0,0.0,0.0,3.9373,3.9373,3.9373,3.9373,3.9373,3.9373,3.9373,3.9373,3.9373,3.9373,0.0,0.0,0.0,0.0,0.0,0.0,3.6746,3.6088,3.5519,3.5519,3.5519,3.5519,3.5519,3.5519,3.5519,3.5519,3.5519,3.5519,3.5519,3.504,3.4384,3.3754,3.2647,3.157,3.1511,3.1511,3.1511,3.1511,3.1511,3.1511,3.1511,3.0972,3.0342,2.9801,2.9146,2.8457,2.7794,2.7675,2.7645,2.7615,2.7585,2.7375,2.6752,2.6662,2.6422,2.5764,2.5113,2.4724,2.4694,2.4066,2.367,2.3713,2.3661,2.3298,2.2625,2.2566,2.2298,2.1664,2.1922,2.2144,2.2248,2.2524,2.2676,2.2695,2.2325,2.2682,2.3703,2.2965,2.2998,2.2532,0.0,2.3721,2.3212,2.2951,2.2772,0.0,2.1754,2.1096,2.0748,2.0168,2.0007,2.1036,2.0946,2.1555,2.4268,2.4837,2.5674,2.7829,3.0552,0.0,0.0,0.0,0.0,0.0,0.0,0.0,0.0,0.0,0.0,0.0,0.0,0.0,3.9373,3.9373,3.9373,3.9373,3.9373,3.9373,3.9373,3.9373,3.9373,3.9373,0.0,0.0,0.0,0.0,0.0,0.0,3.6746,3.6088,3.5519,3.5519,3.5519,3.5519,3.5519,3.5519,3.5519,3.5519,3.5519,3.5519,3.5519,3.504,3.4474,3.4324,3.3335,3.2138,3.166,3.1511,3.1511,3.1511,3.1511,3.1511,3.1511,3.0972,3.0462,3.0313,2.9804,2.9146,2.8487,2.8368,2.8188,2.7675,2.7585,2.7555,2.7375,2.7375,2.7136,2.6452,2.6213,2.5944,2.5412,2.4754,2.4521,2.4863,2.4096,2.355,2.3327,2.3327,2.3185,2.2828,2.2877,2.2837,2.2666,2.305,2.3414,2.3669,2.3588,2.3671,2.3918,2.3737,2.3737,2.0715,2.1944,2.3032,2.2652,2.2562,2.2503,2.2224,2.1395,2.0598,2.0288,1.9959,2.0037,2.1066,2.1216,2.1934,2.4298,2.5196,2.6841,0.0,0.0,0.0,0.0,0.0,0.0,0.0,0.0,0.0,0.0,0.0,0.0,0.0,0.0,0.0,0.0,3.9373,3.9373,3.9373,3.9373,3.9373,3.9373,3.9373,3.9373,3.9373,0.0,0.0,0.0,0.0,0.0,3.7375,3.7045,3.6357,3.5519,3.5519,3.5519,3.5519,3.5519,3.5519,3.5519,3.5519,3.5519,3.5519,3.5519,3.525,3.4891,3.4593,3.3754,3.2826,3.2138,3.175,3.1511,3.1511,3.1511,3.1511,3.1511,3.1212,3.0853,3.0582,3.0253,2.9804,2.9175,2.8816,2.8487,2.8098,2.7794,2.7585,2.7585,2.7585,2.7565,2.7394,2.7115,2.6876,2.6765,2.594,2.564,2.609,2.5063,2.4264,2.3961,2.3931,2.3863,2.3703,2.4072,2.429,2.4364,2.4614,2.4839,2.5011,2.4679,2.4679,2.5011,2.4679,2.4679,2.0056,2.1834,2.3584,2.3263,2.3332,2.3281,2.2694,2.1684,2.0696,2.0127,2.0007,2.0277,2.1137,2.1764,2.2622,2.4118,2.5585,0.0,3.3125,0.0,0.0,0.0,0.0,0.0,0.0,0.0,0.0,0.0,0.0,0.0,0.0,0.0,0.0,0.0,3.9373,3.9373,3.9373,3.9373,3.9373,3.9373,3.9373,3.9373,3.9373,3.9373,0.0,0.0,0.0,0.0,3.7554,3.7434,3.6716,3.5639,3.5549,3.5519,3.5519,3.5519,3.5519,3.5489,3.5587,3.5587,3.5519,3.5619,3.5587,3.54,3.4801,3.4173,3.3514,3.2976,3.2168,3.1511,3.1511,3.1511,3.1511,3.1511,3.1511,3.1331,3.0791,3.0672,3.0462,2.9834,2.9265,2.8876,2.8757,2.8304,2.7854,2.7764,2.7764,2.7906,2.8247,2.7796,2.7666,2.8189,2.7302,2.6851,2.7328,2.627,2.536,2.4834,2.4555,2.439,2.439,2.5118,2.5668,2.6096,2.6168,2.6185,2.6185,2.5556,2.559,2.6185,2.5574,2.559,2.122,2.2697,2.3516,2.1799,2.2134,2.2694,2.2084,2.1783,2.1583,2.1415,2.1443,2.1984,2.3699,2.4096,2.4963,2.744,2.9388,3.166,0.0,0.0,0.0,0.0,0.0,0.0,0.0,0.0,0.0,0.0,0.0,0.0,0.0,0.0,0.0,0.0,0.0,3.9373,3.9373,3.9373,3.9373,3.9373,3.9373,3.9373,3.9373,3.9373,3.9373,0.0,0.0,0.0,3.8182,3.7644,3.6985,3.6267,3.5729,3.5519,3.5519,3.5519,3.5519,3.5554,3.607,3.5941,3.5587,3.6101,3.591,3.5489,3.537,3.4861,3.4324,3.4234,3.2886,3.1511,3.1511,3.1511,3.1511,3.1511,3.1511,3.1481,3.1361,3.1361,3.1152,3.0492,3.0283,3.0043,2.9535,2.9382,2.9112,2.8517,2.8457,2.8423,2.8308,2.8196,2.8349,2.8893,2.8293,2.8005,2.8415,2.7455,2.6925,2.715,2.5687,2.4803,2.4803,2.524,2.5505,2.5612,2.599,2.6185,2.6185,2.6086,2.6086,2.6185,2.6086,2.6086,2.0734,2.213,2.3264,2.2469,2.3365,2.442,2.413,2.3525,2.299,2.2949,2.2969,2.3353,2.4587,2.5364,2.6885,3.0163,0.0,0.0,0.0,0.0,0.0,0.0,0.0,0.0,0.0,0.0,0.0,0.0,0.0,0.0,0.0,0.0,0.0,0.0,0.0,0.0,3.9373,3.9373,3.9373,3.9373,3.9373,3.9373,3.9373,3.9373,3.9373,0.0,0.0,3.902,3.8332,3.7674,3.7045,3.6417,3.5759,3.5519,3.5519,3.5519,3.5519,3.5587,3.6196,3.6227,3.607,3.6723,3.6538,3.6038,3.6414,3.5861,3.5187,3.5549,3.3906,3.2019,3.2019,3.178,3.1597,3.191,3.1739,3.1597,3.191,3.171,3.1421,3.1092,3.0761,3.0513,3.057,3.0285,2.992,2.9616,2.9555,2.9388,2.8916,2.9062,2.9289,2.9448,2.9195,2.9199,2.9627,2.8639,2.789,2.7709,2.6881,2.6527,2.6795,2.6596,2.6475,2.6475,2.6312,2.6185,2.6185,2.6185,2.6185,2.6185,2.6185,2.6185,2.0727,2.1892,2.3193,2.359,2.4741,2.588,2.6207,2.5476,2.4807,2.4915,2.5089,2.5363,2.5811,2.717,0.0,3.2496,3.4269,0.0,0.0,0.0,0.0,0.0,0.0,0.0,0.0,0.0,0.0,0.0,0.0,0.0,0.0,0.0,0.0,0.0,0.0,0.0,3.9517,3.9517,3.9481,3.9373,3.9373,3.9373,3.9373,3.9373,3.9373,3.9373,3.9373,3.902,3.8362,3.7853,3.7255,3.666,3.6132,3.5933,3.5941,3.5973,3.591,3.5878,3.6692,3.6722,3.6662,3.7442,3.7265,3.6845,3.7324,3.6857,3.6211,3.6737,3.525,3.3421,3.3094,3.2405,3.1836,3.2292,3.2059,3.1824,3.2299,3.2163,3.191,3.191,3.1483,3.1284,3.1716,3.1388,3.098,3.0856,3.0825,3.0602,3.0024,3.0242,3.0407,3.0228,3.0206,3.0293,3.0501,2.9648,2.8925,2.8392,2.8033,2.803,2.839,2.7845,2.7547,2.7547,2.6998,2.6733,2.6733,2.6733,2.6733,2.6733,2.6733,2.6733,2.2572,2.309,2.3538,2.4692,2.5011,2.5423,2.6787,2.7024,2.7123,2.7613,2.8295,2.8753,2.856,3.0621,3.2854,3.4299,3.5846,0.0,0.0,0.0,0.0,0.0,0.0,0.0,0.0,0.0,0.0,0.0,0.0,0.0,0.0,0.0,0.0,0.0,0.0,0.0,3.9975,3.9975,3.9798,3.9373,3.9373,3.9373,3.9373,3.9373,3.9373,3.9373,3.9373,3.902,3.8392,3.8332,3.7943,3.7353,3.729,3.725,3.7265,3.7383,3.7086,3.6814,3.8104,3.779,3.7055,3.8246,3.8189,3.7706,3.7764,3.7732,3.7639,3.7697,3.7125,3.6193,3.4883,3.3511,3.2437,3.2467,3.2421,3.2327,3.2382,3.2761,3.3077,3.3077,3.3045,3.3014,3.3066,3.3035,3.2809,3.2145,3.2076,3.2031,3.1821,3.1819,3.1769,3.1495,3.1472,3.1208,3.0555,3.0435,3.0348,3.0315,2.9079,2.8337,2.8409,2.8343,2.831,2.831,2.8276,2.8243,2.8243,2.8243,2.8243,2.8243,2.8243,2.8243,2.186,2.2924,2.402,2.4501,2.5584,2.6849,2.8247,2.8891,2.948,3.0527,3.0983,3.111,3.0952,3.2137,3.3692,3.5243,0.0,0.0,0.0,0.0,0.0,0.0,0.0,0.0,0.0,0.0,0.0,0.0,0.0,0.0,0.0,0.0,0.0,0.0,0.0,0.0,0.0,4.0011,3.994,3.9798,3.9661,3.9517,3.9409,3.9517,3.9589,3.9589,3.9589,3.9439,3.9168,3.8642,3.856,3.8806,3.8372,3.7924,3.7531,3.7589,3.7442,3.7383,3.8358,3.8414,3.8161,3.9055,3.8887,3.8442,3.8865,3.875,3.8553,3.9001,3.8635,3.7773,3.637,3.4998,3.4185,3.4912,3.4105,3.336,3.4118,3.3683,3.3182,3.3182,3.3182,3.3313,3.3713,3.3764,3.3668,3.3437,3.3372,3.3065,3.2237,3.2418,3.2423,3.1893,3.1704,3.1482,3.1217,3.0754,3.0489,3.0489,2.9992,2.9715,2.9715,2.9284,2.9019,2.9019,2.8608,2.8409,2.8409,2.8409,2.8409,2.8409,2.8409,2.8409,2.1689,2.2778,2.4102,2.4533,2.601,2.7919,2.992,3.072,3.149,3.3059,3.3154,3.3005,3.3194,3.3621,3.4512,0.0,0.0,0.0,0.0,0.0,0.0,0.0,0.0,0.0,0.0,0.0,0.0,0.0,0.0,0.0,0.0,0.0,0.0,0.0,0.0,0.0,0.0,4.0156,4.0152,4.0117,3.9945,3.9768,3.9589,3.9661,3.9732,3.9803,3.9803,3.9758,3.976,3.9378,3.9683,4.0324,3.9614,3.9172,3.8926,3.8756,3.8545,3.8488,3.9243,3.922,3.8968,3.9618,3.9506,3.9236,3.967,3.9425,3.9009,3.9463,3.9142,3.8427,3.7675,3.652,3.5725,3.6545,3.5653,3.4727,3.5324,3.4792,3.4143,3.3917,3.3853,3.3986,3.4374,3.4423,3.4423,3.4423,3.4374,3.4055,3.3208,3.3397,3.3338,3.2644,3.2198,3.1946,3.1946,3.1482,3.1085,3.0853,3.0853,3.0754,3.0522,3.0026,2.9728,2.9728,2.9284,2.9052,2.9052,2.9052,2.9052,2.9052,2.9052,2.9052,2.2471,2.2778,2.364,2.4973,2.638,2.8319,3.1643,3.2413,3.2998,3.5121,3.4818,3.4482,3.5338,3.5339,0.0,0.0,0.0,0.0,0.0,0.0,0.0,0.0,0.0,0.0,0.0,0.0,0.0,0.0,0.0,0.0,0.0,0.0,0.0,0.0,0.0,0.0,0.0,4.0505,4.0436,4.0296,4.0296,4.0191,4.0011,3.9803,3.9803,4.0011,4.0011,4.0002,4.0058,4.0745,4.1374,4.1838,4.1118,4.1257,4.1841,4.1237,4.0615,4.02,4.0935,4.0333,3.9295,3.9901,4.0113,4.0113,4.0113,3.9605,3.9005,3.9005,3.8464,3.8091,3.8802,3.7906,3.6786,3.6846,3.6766,3.65,3.5694,3.5991,3.6185,3.5425,3.5291,3.5268,3.5128,3.5105,3.5105,3.5105,3.5011,3.493,3.5105,3.5011,3.4618,3.3912,3.3149,3.2718,3.2718,3.2718,3.2398,3.1648,3.1615,3.1283,3.0522,3.0489,3.0489,3.0489,3.0489,3.0489,3.0489,3.0489,3.0489,3.0489,3.0489,3.0489,2.2471,2.3486,2.4933,2.5826,2.8134,3.0869,3.3334,3.3889,3.4597,3.7092,3.7029,3.6445,3.623,3.6537,0.0,0.0,0.0,0.0,0.0,0.0,0.0,0.0,0.0,0.0,0.0,0.0,0.0,0.0,0.0,0.0,0.0,0.0,0.0,0.0,0.0,0.0,0.0,0.0,4.0505,4.0436,4.0331,4.0191,4.0011,4.0086,4.0156,4.0226,4.0715,4.0899,4.1011,4.2141,4.2439,4.214,4.2375,4.2289,4.195,4.1264,4.0882,4.0709,4.0492,4.0155,3.985,4.0062,4.0113,4.0113,4.0113,3.9943,3.9673,3.914,3.8836,3.8599,3.8294,3.7901,3.7828,3.8887,3.8295,3.7576,3.7786,3.7476,3.6956,3.6219,3.6085,3.5894,3.5345,3.5245,3.5245,3.5245,3.5198,3.5198,3.5245,3.5198,3.5052,3.4725,3.406,3.3572,3.3481,3.3017,3.2619,3.2398,3.2365,3.1802,3.0555,3.0489,3.0489,3.0489,3.0489,3.0489,3.0489,3.0489,3.0489,3.0489,3.0489,3.0489,2.3055,2.4379,2.6103,2.7611,2.9704,3.2163,3.5059,3.6076,3.703,3.8939,3.8569,3.7861,3.7707,3.78,0.0,0.0,0.0,0.0,0.0,0.0,0.0,0.0,0.0,0.0,0.0,0.0,0.0,0.0,0.0,0.0,0.0,0.0,0.0,0.0,0.0,0.0,0.0,0.0,0.0,4.0505,4.0436,4.047,4.0578,4.0401,4.0331,4.0436,4.136,4.1917,4.2269,4.335,4.3531,4.3189,4.3228,4.2996,4.2523,4.1808,4.1336,4.1032,4.0637,4.035,4.0113,4.0113,4.0113,4.0113,4.0113,3.991,3.9571,3.9106,3.8768,3.8464,3.8024,3.7922,3.8125,3.9005,3.8572,3.7911,3.799,3.7586,3.6999,3.6226,3.6091,3.5933,3.545,3.536,3.536,3.536,3.536,3.536,3.5314,3.5291,3.5268,3.5198,3.4798,3.4485,3.4416,3.3983,3.3617,3.3317,3.3239,3.2685,3.1501,3.1392,3.1371,3.1371,3.1371,3.1371,3.1371,3.1085,3.0952,3.0952,3.0952,3.0952,2.3856,2.5272,2.7026,2.971,3.1182,3.2936,3.6722,3.8631,3.9736,4.0351,3.9521,3.8877,3.9398,3.9062,0.0,0.0,0.0,0.0,0.0,0.0,0.0,0.0,0.0,0.0,0.0,0.0,0.0,0.0,0.0,0.0,0.0,0.0,0.0,0.0,0.0,0.0,0.0,0.0,0.0,0.0,4.0505,4.082,4.1492,4.0749,4.0509,4.0851,4.2046,4.2984,4.3647,4.4293,4.4615,4.4547,4.3809,4.3538,4.3436,4.2658,4.1982,4.1373,4.1271,4.0764,4.018,4.0113,4.0113,4.0113,4.0113,3.9639,3.9073,3.9005,3.8531,3.799,3.7922,3.7855,3.7821,3.7821,3.7855,3.7719,3.7043,3.6897,3.6637,3.5836,3.5701,3.5678,3.5554,3.5498,3.5498,3.5498,3.5498,3.5452,3.5337,3.5314,3.5314,3.5314,3.5314,3.5314,3.5291,3.5291,3.499,3.4343,3.4196,3.3795,3.3151,3.2851,3.2741,3.2741,3.2741,3.2741,3.2741,3.2055,3.1735,3.1735,3.1735,3.1714,2.3302,2.4902,2.6972,2.971,3.3336,3.6569,3.7954,3.9305,4.032,4.0474,4.0259,3.9951,3.9551,0.0,0.0,0.0,0.0,0.0,0.0,0.0,0.0,0.0,0.0,0.0,0.0,0.0,0.0,0.0,0.0,0.0,0.0,0.0,0.0,0.0,0.0,0.0,4.0505,4.0505,4.0505,0.0,4.0505,4.082,4.1492,4.1327,4.182,4.2892,4.3166,4.3676,4.4384,4.4525,4.4615,4.4581,4.4412,4.4316,4.4248,4.347,4.3064,4.2733,4.161,4.1102,4.0865,4.0282,4.0113,4.0113,4.0113,4.0011,3.974,3.914,3.887,3.8633,3.8058,3.7483,3.7032,3.7032,3.7483,3.7855,3.7686,3.7652,3.7449,3.6671,3.6535,3.6332,3.5678,3.5577,3.5577,3.5577,3.5577,3.5554,3.5532,3.5532,3.5543,3.5452,3.5486,3.5406,3.5314,3.5291,3.5224,3.5057,3.5034,3.4967,3.4799,3.3551,3.2873,3.2873,3.2961,3.3004,3.3004,3.2729,3.2618,3.2618,3.2618,3.2574,2.3733,2.5764,2.811,3.152,3.4937,3.7584,3.7954,3.9062,4.0115,4.0455,4.0498,4.0382,0.0,0.0,0.0,0.0,0.0,0.0,0.0,0.0,0.0,0.0,0.0,0.0,0.0,0.0,0.0,0.0,0.0,0.0,0.0,0.0,0.0,0.0,0.0,0.0,4.0505,4.0505,4.0505,4.0474,4.0851,4.1492,4.2458,4.2141,4.2552,4.3495,4.3495,4.3914,4.4615,4.4615,4.4615,4.4615,4.4615,4.435,4.3978,4.3544,4.32,4.2726,4.161,4.1204,4.1068,4.035,4.0113,4.0113,4.0113,4.0113,4.0011,3.9639,3.9537,3.9368,3.8633,3.8125,3.7777,3.7415,3.7077,3.6783,3.6783,3.6783,3.6681,3.6299,3.6231,3.6096,3.5667,3.56,3.56,3.56,3.56,3.56,3.56,3.56,3.5577,3.5566,3.5543,3.552,3.5441,3.5418,3.5418,3.5418,3.5406,3.5383,3.5383,3.46,3.4097,3.4052,3.4119,3.4142,3.4142,3.3707,3.3517,3.3517,3.3183,3.2972,2.364,2.638,2.9335,3.3334,3.583,3.7369,3.7461,3.8446,3.9506,4.0035,4.0429,0.0,0.0,0.0,0.0,0.0,0.0,0.0,0.0,0.0,0.0,0.0,0.0,0.0,0.0,0.0,0.0,0.0,0.0,0.0,0.0,0.0,0.0,0.0,0.0,3.9582,4.0136,4.0136,4.0136,4.017,4.1074,4.2138,4.33,4.3012,4.3199,4.3676,4.3676,4.403,4.4615,4.4615,4.4615,4.4581,4.4445,4.3978,4.3375,4.324,4.2828,4.2185,4.1474,4.1271,4.1271,4.0553,4.0383,4.0451,4.035,4.0282,4.0282,4.0146,4.0113,3.9977,3.9368,3.9073,3.8836,3.8227,3.7043,3.5938,3.5836,3.5701,3.56,3.56,3.56,3.56,3.56,3.56,3.56,3.56,3.56,3.56,3.56,3.56,3.56,3.56,3.56,3.56,3.56,3.56,3.56,3.56,3.5701,3.5723,3.5723,3.5723,3.5677,3.5562,3.5427,3.536,3.536,3.4734,3.4432,3.4399,3.3661,3.3371,2.069,2.4594,2.9243,3.269,3.5091,3.6784,3.7369,3.8108,3.8664,0.0,4.0152,0.0,0.0,0.0,0.0,0.0,0.0,0.0,0.0,0.0,0.0,0.0,0.0,0.0,0.0,0.0,0.0,0.0,0.0,0.0,0.0,0.0,3.8692,3.8785,3.8692,0.0,3.8785,3.8785,3.8785,3.8785,4.061,4.1887,4.2572,4.3762,4.4384,4.444,4.444,4.4497,4.4615,4.4615,4.4615,4.4547,4.3842,4.3477,4.3308,4.2692,4.2388,4.2185,4.1474,4.161,4.2016,4.1305,4.1474,4.188,4.1238,4.1068,4.0933,4.0282,4.0113,4.0079,3.9977,3.9503,3.8971,3.887,3.8193,3.7415,3.6772,3.6096,3.56,3.56,3.56,3.56,3.56,3.56,3.56,3.56,3.56,3.56,3.56,3.56,3.56,3.56,3.56,3.56,3.56,3.56,3.56,3.56,3.6265,3.6637,3.6637,3.6637,3.6614,3.6614,3.5915,3.5554,3.5554,3.5397,3.5317,3.5317,3.451,3.4466,2.2286,2.5703,2.9119,3.2105,3.4106,3.5552,3.623,3.7437,3.8435,3.8498,0.0,0.0,0.0,0.0,0.0,0.0,0.0,0.0,0.0,0.0,0.0,0.0,0.0,0.0,0.0,0.0,0.0,0.0,0.0,0.0,0.0,3.8138,3.8108,3.8508,3.8138,0.0,3.8508,3.8508,3.8867,3.9596,4.0468,4.1602,4.2987,4.3603,4.4181,4.4615,4.4615,4.4615,4.4615,4.4615,4.4615,4.4513,4.3707,4.3375,4.3308,4.2557,4.2286,4.2185,4.1474,4.1407,4.1542,4.0798,4.0798,4.1027,4.0663,4.0561,4.0519,4.018,4.0113,4.0113,4.0113,3.9876,3.9639,3.9639,3.9039,3.843,3.8091,3.7415,3.6884,3.6884,3.6884,3.6884,3.6884,3.6884,3.6884,3.6884,3.6535,3.6265,3.6265,3.5893,3.56,3.56,3.56,3.56,3.56,3.56,3.56,3.56,3.6366,3.6795,3.6795,3.7202,3.7415,3.7415,3.6208,3.56,3.56,3.5554,3.5566,3.5532,3.4778,3.4565,2.3067,2.5549,2.758,3.0628,3.2564,3.3981,3.5028,3.6624,3.7954,0.0,0.0,0.0,0.0,0.0,0.0,0.0,0.0,0.0,0.0,0.0,0.0,0.0,0.0,0.0,0.0,0.0,0.0,0.0,0.0,0.0,3.7984,3.7651,3.762,3.7984,3.7523,3.7492,3.7984,3.8146,3.8748,3.9897,4.0401,4.1526,4.3132,4.3538,4.4045,4.4615,4.4615,4.4615,4.4615,4.4615,4.4615,4.4513,4.3504,4.3132,4.3031,4.2083,4.1711,4.1644,4.1102,4.1035,4.1102,4.0561,4.0519,4.062,4.0451,4.0383,4.035,4.0146,4.0113,4.0113,4.0113,4.0113,4.0113,4.0113,3.9673,3.9174,3.8802,3.8294,3.7922,3.7922,3.7922,3.7922,3.7922,3.7922,3.7922,3.7922,3.7415,3.71,3.71,3.6569,3.6174,3.6174,3.6028,3.5926,3.5926,3.5701,3.56,3.56,3.6535,3.71,3.71,3.7787,3.8193,3.8193,3.6874,3.6073,3.5926,3.5926,3.5802,3.5566,3.4844,3.4607,2.058,2.2058,2.3579,2.7611,3.0104,3.2102,3.4104,3.556,0.0,0.0,0.0,0.0,0.0,0.0,0.0,0.0,0.0,0.0,0.0,0.0,0.0,0.0,0.0,0.0,0.0,0.0,0.0,0.0,0.0,0.0,3.663,3.7122,3.7182,3.663,3.6569,3.6569,3.6599,3.7183,3.7778,3.8436,4.04,4.1716,4.2388,4.387,4.4581,4.4615,4.4615,4.4615,4.4615,4.4615,4.4615,4.4445,4.2929,4.2354,4.2185,4.0756,4.0214,4.0214,4.018,4.0595,4.1204,4.117,4.161,4.2049,4.1339,4.1136,4.1001,4.0316,4.0113,4.0113,4.0113,4.0113,4.0113,4.0113,4.0079,3.9673,3.8261,3.7922,3.7922,3.7922,3.7922,3.7922,3.7922,3.7922,3.7922,3.7922,3.7889,3.7855,3.7855,3.7821,3.7787,3.7787,3.7144,3.6761,3.6761,3.6062,3.56,3.56,3.6986,3.7855,3.7855,3.8531,3.8937,3.8937,3.8193,3.7449,3.6761,3.6761,3.6332,3.5566,3.4844,3.4878,1.9903,2.1587,2.3526,2.6044,2.8662,3.1068,3.2645,3.5353,3.7443,0.0,0.0,0.0,0.0,0.0,0.0,0.0,0.0,0.0,0.0,0.0,0.0,0.0,0.0,0.0,0.0,0.0,0.0,0.0,0.0,0.0,3.7679,3.7883,3.7883,3.7679,3.7298,3.6907,3.6476,3.6723,3.7296,3.8306,3.954,4.0884,4.232,4.3369,4.4113,4.4615,4.4615,4.4615,4.4615,4.4615,4.4615,4.4445,4.2895,4.2286,4.2117,4.0654,4.0113,4.0113,4.0113,4.0282,4.0493,4.0493,4.0688,4.0857,4.0587,4.0493,4.0426,4.018,4.0113,4.0113,4.0113,4.0113,4.0113,4.0113,4.0113,3.9977,3.9436,3.9309,3.9309,3.9309,3.9309,3.9309,3.9309,3.9309,3.9309,3.9309,3.8903,3.8599,3.8599,3.8193,3.7922,3.7922,3.7652,3.7516,3.7516,3.7246,3.7077,3.7077,3.7594,3.7922,3.7922,3.8159,3.8531,3.8971,3.8734,3.8227,3.7516,3.7032,3.666,3.6332,3.5588,3.5329,1.9433,2.1203,2.3488,2.5492,2.7465,2.9535,3.1914,3.4601,0.0,0.0,0.0,0.0,0.0,0.0,0.0,0.0,0.0,0.0,0.0,0.0,0.0,0.0,0.0,0.0,0.0,0.0,0.0,0.0,0.0,0.0,3.8306,3.8474,3.8502,3.8306,3.7911,3.7504,3.7118,3.7328,3.7825,3.8618,3.979,4.105,4.232,4.3335,4.4079,4.4615,4.4615,4.4615,4.4615,4.4615,4.4445,4.4079,4.2794,4.2151,4.1779,4.0553,4.0113,4.0113,4.0113,4.0113,4.0113,4.0113,4.0113,4.0113,4.0113,4.0113,4.0113,4.0113,4.0282,4.0485,4.0485,4.0485,4.0417,4.018,4.0113,4.0113,4.0113,4.0113,4.0113,4.0113,4.0113,4.0113,4.0113,4.0113,4.0113,4.0113,3.9673,3.9368,3.9368,3.8937,3.8633,3.8633,3.843,3.8261,3.8261,3.8058,3.7922,3.7922,3.8125,3.8261,3.8261,3.8497,3.8734,3.9005,3.9005,3.8633,3.7922,3.7415,3.7032,3.6795,3.5994,3.56,0.0,0.0,0.0,2.5816,2.6432,0.0,3.1754,0.0,0.0,0.0,0.0,0.0,0.0,0.0,0.0,0.0,0.0,0.0,0.0,0.0,0.0,0.0,0.0,0.0,0.0,0.0,0.0,0.0,0.0,3.8974,3.8362,3.892,3.8947,3.8334,3.8334,3.8306,3.8306,3.8892,3.9162,3.9222,4.1312,4.2286,4.2354,4.3904,4.4615,4.4615,4.4615,4.4615,4.4615,4.4615,4.4113,4.3308,4.2591,4.1847,4.1102,4.0417,4.0146,4.0146,4.0146,4.018,4.018,4.018,4.018,4.018,4.018,4.018,4.018,4.018,4.0663,4.1238,4.1238,4.1238,4.1035,4.035,4.018,4.018,4.018,4.018,4.0146,4.0113,4.0113,4.0113,4.0113,4.0113,4.0113,4.0113,4.0113,4.0113,4.0113,4.0113,4.0113,4.0113,3.9469,3.9039,3.9039,3.8396,3.7956,3.7956,3.8633,3.9005,3.9005,3.9673,3.9706,3.9005,3.8971,3.8633,3.7922,3.7889,3.7516,3.6795,3.5994,3.56,2.0529,0.0,0.0,0.0,0.0,0.0,0.0,0.0,0.0,0.0,0.0,0.0,0.0,0.0,0.0,0.0,0.0,0.0,0.0,0.0,0.0,0.0,0.0,0.0,0.0,0.0,0.0,0.0,0.0,3.9773,3.9584,3.9773,3.9592,3.8974,3.8947,3.8756,3.8306,3.8446,3.8783,3.9222,4.0873,4.1875,4.2354,4.3904,4.4615,4.4615,4.4615,4.4615,4.4615,4.4615,4.4113,4.3308,4.2591,4.1847,4.117,4.0967,4.0899,4.0967,4.1508,4.1677,4.1677,4.1677,4.1677,4.1677,4.1677,4.1677,4.1677,4.1677,4.1813,4.1982,4.1982,4.1982,4.1948,4.1711,4.1677,4.1677,4.1677,4.1677,4.1399,4.0316,4.0113,4.0113,4.0113,4.0113,4.0113,4.0113,4.0113,4.0113,4.0113,4.0113,4.0113,4.0113,3.991,3.9808,3.9808,3.9605,3.9503,3.9503,3.9174,3.9005,3.9005,3.8667,3.8667,3.8971,3.8464,3.8362,3.87,3.7618,3.6998,3.6795,3.5994,3.56,2.2208,2.3084,2.4414,0.0,0.0,0.0,0.0,2.8792,0.0,0.0,0.0,0.0,0.0,0.0,0.0,0.0,0.0,0.0,0.0,0.0,0.0,0.0,0.0,0.0,0.0,0.0,0.0,0.0,4.0113,4.0113,4.0113,4.0113,3.9927,3.9592,3.9592,3.9401,3.9022,3.9022,3.9242,3.9592,4.0762,4.1661,4.232,4.3538,4.4282,4.4615,4.4615,4.4615,4.4581,4.4215,4.3639,4.2861,4.2117,4.1576,4.1204,4.1204,4.1407,4.1711,4.2151,4.2286,4.2286,4.2286,4.2286,4.2286,4.2286,4.2286,4.2286,4.2286,4.2523,4.276,4.276,4.276,4.2692,4.2354,4.2286,4.2286,4.2286,4.2286,4.2049,4.1196,4.0764,4.0561,4.0561,4.0316,4.0113,4.0113,4.0113,4.0113,4.0113,4.0113,4.0113,4.0113,4.0113,4.0113,4.0113,4.0113,4.0113,4.0113,3.9706,3.9469,3.9469,3.9039,3.887,3.9005,3.8565,3.843,3.8531,3.7371,3.6626,3.6299,3.5802,3.56,2.4225,2.4896,2.6166,0.0,0.0,0.0,2.8789,2.8534,0.0,0.0,0.0,0.0,0.0,0.0,0.0,0.0,0.0,0.0,0.0,0.0,0.0,0.0,0.0,0.0,0.0,0.0,0.0,4.0113,4.0113,4.0113,4.0113,4.0113,4.0113,4.0113,4.0113,4.0113,4.0113,4.0113,4.0113,4.0113,4.0933,4.1677,4.232,4.3166,4.391,4.4615,4.4615,4.4547,4.4384,4.3707,4.3031,4.2354,4.161,4.1339,4.1339,4.1407,4.1847,4.2422,4.2523,4.2584,4.2584,4.2584,4.2584,4.2584,4.2584,4.2584,4.2584,4.2584,4.3031,4.3511,4.3511,4.3511,4.3369,4.2692,4.2584,4.2584,4.2584,4.2584,4.2584,4.2584,4.188,4.1339,4.1339,4.0764,4.0316,4.0248,4.0214,4.018,4.0113,4.0113,4.0113,4.0113,4.0113,4.0113,4.0113,4.0113,4.0113,4.0113,4.0113,4.0113,4.0113,4.0113,3.9808,3.9106,3.9039,3.8633,3.7922,3.7246,3.6502,3.5735,3.5735,3.5667,2.7299,2.7468,2.7606,2.7165,0.0,0.0,2.5844,2.6285,0.0,0.0,0.0,0.0,0.0,0.0,0.0,0.0,0.0,0.0,0.0,0.0,0.0,0.0,0.0,0.0,0.0,0.0,4.0113,4.0113,4.0113,4.0113,4.0113,4.0113,4.0113,4.0113,4.0113,4.0113,4.0113,4.0113,4.0113,4.0113,4.1467,4.2151,4.2354,4.3707,4.4479,4.4615,4.4615,4.4215,4.3639,4.3443,4.3308,4.3132,4.2354,4.2083,4.2151,4.276,4.3037,4.3301,4.3938,4.4175,4.4175,4.4175,4.4175,4.4175,4.4175,4.4175,4.4175,4.4175,4.4276,4.4378,4.4378,4.4378,4.4344,4.4209,4.4175,4.4175,4.4175,4.4175,4.4175,4.4175,4.3031,4.2083,4.2083,4.1948,4.1677,4.1068,4.1001,4.0764,4.018,4.0113,4.0113,4.0113,4.0113,4.0113,4.0113,4.0113,4.0113,4.0113,4.0113,4.0113,4.0113,4.0113,4.0045,3.991,3.93,3.8633,3.7922,3.7753,3.7313,3.6592,3.6592,3.6231,2.9023,2.8733,2.8716,2.8664,0.0,0.0,0.0,0.0,2.6723,0.0,0.0,0.0,0.0,0.0,0.0,0.0,0.0,0.0,0.0,0.0,0.0,0.0,0.0,0.0,0.0,0.0,3.9706,4.0079,4.0113,4.0113,4.0113,4.0113,4.0113,4.0113,4.0113,4.0113,4.0113,4.0113,4.0282,4.0663,4.1407,4.2151,4.2861,4.3639,4.4215,4.4615,4.4615,4.435,4.3978,4.3572,4.3639,4.3876,4.2726,4.2523,4.2895,4.324,4.3673,4.4045,4.4479,4.4615,4.4615,4.4615,4.4615,4.4615,4.4615,4.4615,4.4615,4.4615,4.4615,4.4615,4.4615,4.4615,4.4615,4.4615,4.4615,4.4615,4.4615,4.4615,4.4615,4.4615,4.4005,4.3301,4.2929,4.2523,4.2151,4.1813,4.1745,4.1474,4.073,4.0629,4.0493,4.0146,4.0113,4.0113,4.0113,4.0113,4.0113,4.0113,4.0113,4.0113,4.0113,4.0113,4.0113,4.0113,3.974,3.9368,3.9005,3.9005,3.843,3.7347,3.7347,3.7144,0.0,0.0,0.0,0.0,0.0,2.8374,0.0,0.0,0.0,2.8219,0.0,0.0,0.0,0.0,0.0,0.0,0.0,0.0,0.0,0.0,0.0,0.0,0.0,0.0,0.0,0.0,3.87,3.9605,3.9537,3.9605,3.9876,4.0011,4.0113,4.0113,4.0113,4.0113,4.0113,4.0113,4.046,4.1204,4.1339,4.2117,4.3409,4.3572,4.3978,4.4615,4.4615,4.4513,4.4316,4.3842,4.391,4.4276,4.2997,4.2963,4.3639,4.3639,4.4045,4.4615,4.4615,4.4615,4.4615,4.4615,4.4615,4.4615,4.4615,4.4615,4.4615,4.4615,4.4615,4.4615,4.4615,4.4615,4.4615,4.4615,4.4615,4.4615,4.4615,4.4615,4.4615,4.4615,4.4615,4.4384,4.3741,4.3132,4.2692,4.2523,4.2489,4.2252,4.1508,4.1407,4.117,4.0587,4.0417,4.0316,4.0316,4.018,4.0113,4.0113,4.0113,4.0113,4.0113,4.0113,4.0113,4.0113,4.0113,4.0113,4.0113,4.0113,3.9411,3.8125,3.8125,3.8058,0.0,0.0,0.0,0.0,3.1823,0.0,0.0,0.0,2.8357,2.6614,0.0,0.0,0.0,0.0,0.0,0.0,0.0,0.0,0.0,0.0,0.0,0.0,0.0,0.0,0.0,0.0,0.0,3.8058,3.7516,3.7743,3.9039,3.974,4.0113,4.0113,4.0113,4.0113,4.0113,4.0113,4.046,4.1204,4.1847,4.2625,4.3409,4.4147,4.4513,4.4615,4.4615,4.4181,4.3606,4.4215,4.4079,4.3511,4.3341,4.3775,4.4479,4.4479,4.4513,4.4615,4.4615,4.4615,4.4615,4.4615,4.4615,4.4615,4.4615,4.4615,4.4615,4.4615,4.4615,4.4615,4.4615,4.4615,4.4615,4.4615,4.4615,4.4615,4.4615,4.4615,4.4615,4.4615,4.4615,4.4581,4.4479,4.4412,4.4079,4.3403,4.3274,4.3031,4.2252,4.2185,4.2117,4.2049,4.1474,4.1068,4.1068,4.0485,4.0113,4.0113,4.0113,4.0113,4.0113,4.0113,4.0113,4.0113,4.0113,4.0113,4.0113,4.0113,3.9673,3.887,3.887,3.8531,0.0,0.0,0.0,0.0,0.0,0.0,0.0,0.0,2.7944,0.0,0.0,0.0,0.0,0.0,0.0,0.0,0.0,0.0,0.0,0.0,0.0,0.0,0.0,0.0,0.0,0.0,0.0,0.0,0.0,3.6299,3.8261,3.9039,3.9673,4.0079,4.0113,4.0113,4.0113,4.0113,4.0688,4.1847,4.2151,4.2929,4.4113,4.4445,4.4615,4.4615,4.4615,4.4412,4.4113,4.4479,4.4412,4.4079,4.4079,4.4282,4.4615,4.4615,4.4615,4.4615,4.4615,4.4615,4.4615,4.4615,4.4615,4.4615,4.4615,4.4615,4.4615,4.4615,4.4615,4.4615,4.4615,4.4615,4.4615,4.4615,4.4615,4.4615,4.4615,4.4615,4.4615,4.4615,4.4615,4.4615,4.4615,4.4615,4.4513,4.4147,4.4079,4.3809,4.3031,4.2963,4.276,4.2354,4.2016,4.1847,4.1847,4.1542,4.1399,4.1399,4.0967,4.0553,4.0113,4.0113,4.0113,4.0113,4.0113,4.0113,4.0113,4.0113,3.9943,3.9639,3.9639,3.9445,3.5545,0.0,0.0,0.0,0.0,0.0,0.0,0.0,0.0,0.0,0.0,0.0,0.0,0.0,0.0,0.0,0.0,0.0,0.0,0.0,0.0,0.0,0.0,0.0,0.0,0.0,0.0,0.0,0.0,0.0,3.7121,3.8193,3.9039,3.9774,4.0011,4.0113,4.0113,4.0316,4.106,4.2286,4.2489,4.3301,4.4615,4.4615,4.4615,4.4615,4.4615,4.4615,4.4615,4.4615,4.4615,4.4615,4.4615,4.4615,4.4615,4.4615,4.4615,4.4615,4.4615,4.4615,4.4615,4.4615,4.4615,4.4615,4.4615,4.4615,4.4615,4.4615,4.4615,4.4615,4.4615,4.4615,4.4615,4.4615,4.4615,4.4615,4.4615,4.4615,4.4615,4.4615,4.4615,4.4615,4.4615,4.4615,4.4615,4.4615,4.4615,4.4412,4.3809,4.3741,4.3538,4.2963,4.2726,4.2591,4.2591,4.2422,4.2286,4.2286,4.1813,4.1271,4.0722,4.0722,4.062,4.0417,4.0417,4.0316,4.0113,4.0113,4.0113,4.0113,4.0113,4.0113,0.0,0.0,0.0,3.311,0.0,0.0,0.0,0.0,3.0179,0.0,0.0,0.0,0.0,0.0,0.0,0.0,0.0,0.0,0.0,0.0,0.0,0.0,0.0,0.0,0.0,0.0,0.0,0.0,0.0,0.0,3.5532,3.711,3.8261,3.9005,3.974,4.0113,4.0113,4.0798,4.1542,4.2286,4.3031,4.3809,4.4615,4.4615,4.4615,4.4615,4.4615,4.4615,4.4615,4.4615,4.4615,4.4615,4.4615,4.4615,4.4615,4.4615,4.4615,4.4615,4.4615,4.4615,4.4615,4.4615,4.4615,4.4615,4.4615,4.4615,4.4615,4.4615,4.4615,4.4615,4.4615,4.4615,4.4615,4.4615,4.4615,4.4615,4.4615,4.4615,4.4615,4.4615,4.4615,4.4615,4.4615,4.4615,4.4615,4.4615,4.4615,4.4615,4.4581,4.4581,4.4547,4.4547,4.3842,4.3341,4.3341,4.2726,4.2286,4.2286,4.2286,4.2252,4.2219,4.2219,4.188,4.117,4.117,4.0798,4.0113,4.0113,4.0113,4.0113,4.0113,4.0113,0.0,0.0,4.086,3.5973,0.0,0.0,0.0,0.0,0.0,0.0,0.0,0.0,0.0,0.0,0.0,0.0,0.0,0.0,0.0,0.0,0.0,0.0,0.0,0.0,0.0,0.0,0.0,0.0,0.0,0.0,0.0,3.6332,3.7719,3.8937,3.974,4.035,4.0832,4.1068,4.1813,4.3031,4.3274,4.3809,4.4615,4.4615,4.4615,4.4615,4.4615,4.4615,4.4615,4.4615,4.4615,4.4615,4.4615,4.4615,4.4615,4.4615,4.4615,4.4615,4.4615,4.4615,4.4615,4.4615,4.4615,4.4615,4.4615,4.4615,4.4615,4.4615,4.4615,4.4615,4.4615,4.4615,4.4615,4.4615,4.4615,4.4615,4.4615,4.4615,4.4615,4.4615,4.4699,4.472,4.472,4.4803,4.4803,4.4643,4.4615,4.4615,4.4615,4.4615,4.4615,4.4615,4.4461,4.4347,4.4347,4.4109,4.3736,4.326,4.3119,4.2828,4.232,4.2286,4.2185,4.1914,4.1914,4.1813,4.1542,4.1068,4.0832,4.0832,4.035,4.0113,4.1999,4.262,0.0,0.0,3.7111,0.0,3.1696,0.0,0.0,0.0,0.0,0.0,0.0,0.0,0.0,0.0,0.0,0.0,0.0,0.0,0.0,0.0,0.0,0.0,0.0,0.0,2.6894,2.9213,0.0,0.0,0.0,0.0,3.7043,3.8565,3.9605,4.0426,4.1204,4.1474,4.2219,4.3375,4.3707,4.4079,4.4615,4.4615,4.4615,4.4615,4.4615,4.4615,4.4615,4.4615,4.4615,4.4615,4.4615,4.4615,4.4615,4.4615,4.4615,4.4615,4.4615,4.4615,4.4615,4.4615,4.4615,4.4615,4.4615,4.4784,4.4993,4.4993,4.519,4.5393,4.545,4.545,4.5479,4.5535,4.5563,4.5563,4.5563,4.5507,4.5479,4.5535,4.5592,4.5586,4.5704,4.5514,4.5248,4.4726,4.4699,4.4637,4.4615,4.4615,4.4615,4.4615,4.472,4.4831,4.4858,4.4886,4.4654,4.4177,4.4062,4.3769,4.326,4.3206,4.3044,4.2807,4.2719,4.2557,4.2286,4.1813,4.1602,4.1654,4.0857,4.0536]}]]